[[{"header":{"parameterUnit":"m.s-1","parameterCategory":1,"la1":30.6,"la2":29.2853,"lo1":-89.7004,"lo2":-87.6739,"dy":0.0162,"dx":0.0183,"nx":112,"ny":82,"refTime":"2023-10-25T12:00:00:Z","depth":0,"parameterNumber":2,"parameterNumberName":"U-component_of_WINDS"},"data":[0.0,0.0,0.0,0.0,0.0,0.0,0.0,0.0,0.0,0.0,0.0,0.0,0.0,0.0,0.0,0.0,0.0,0.0,0.0,0.0,0.0,0.0,0.0,0.0,0.0,0.0,0.0,0.0,0.0,0.0,0.0,0.0,0.0,0.0,0.0,0.0,0.0,0.0,0.0,0.0,0.0,0.0,0.0,0.0,0.0,0.0,0.0,0.0,0.0,0.0,0.0,0.0,0.0,0.0,0.0,0.0,0.0,0.0,0.0,0.0,0.0,0.0,0.0,0.0,0.0,0.0,0.0,0.0,0.0,0.0,0.0,0.0,0.0,0.0,0.0,0.0,0.0,0.0,0.0,0.0,0.0,0.0,0.0,0.0,0.0,0.0,0.0,0.0,0.0,0.0,-0.6234,-0.6687,-0.6479,-0.6156,-0.5766,-0.5603,-0.5101,-0.4092,0.0,0.0,0.0,0.0,0.0,0.0,0.0,0.0,0.0,0.0,0.0,0.0,0.0,0.0,0.0,0.0,0.0,0.0,0.0,0.0,0.0,0.0,0.0,0.0,0.0,0.0,0.0,0.0,0.0,0.0,0.0,0.0,0.0,0.0,0.0,0.0,0.0,0.0,0.0,0.0,0.0,0.0,0.0,0.0,0.0,0.0,0.0,0.0,0.0,0.0,0.0,0.0,0.0,0.0,0.0,0.0,0.0,0.0,0.0,0.0,0.0,0.0,0.0,0.0,0.0,0.0,0.0,0.0,0.0,0.0,0.0,0.0,0.0,0.0,0.0,0.0,0.0,0.0,0.0,0.0,0.0,0.0,0.0,0.0,0.0,0.0,0.0,0.0,0.0,0.0,0.0,0.0,0.0,0.0,0.0,0.0,0.0,0.0,0.0,0.0,0.0,0.0,0.0,0.0,-0.5568,-0.5932,-0.6168,-0.6074,-0.5508,-0.5291,-0.4887,-0.4214,0.0,0.0,0.0,0.0,0.0,0.0,0.0,0.0,0.0,0.0,0.0,0.0,0.0,0.0,0.0,0.0,0.0,0.0,0.0,0.0,0.0,0.0,0.0,0.0,0.0,0.0,0.0,0.0,0.0,0.0,0.0,0.0,0.0,0.0,0.0,0.0,0.0,0.0,0.0,0.0,0.0,0.0,0.0,0.0,0.0,0.0,0.0,0.0,0.0,0.0,0.0,0.0,0.0,0.0,0.0,0.0,0.0,0.0,0.0,0.0,0.0,0.0,0.0,0.0,0.0,0.0,0.0,0.0,0.0,0.0,0.0,0.0,0.0,0.0,0.0,0.0,0.0,0.0,0.0,0.0,0.0,0.0,0.0,0.0,0.0,0.0,0.0,0.0,0.0,0.0,0.0,0.0,0.0,0.0,0.0,0.0,0.0,0.0,0.0,0.0,0.0,0.0,0.0,-0.674,-0.642,-0.5962,-0.5908,-0.5788,-0.5426,-0.5148,-0.4732,-0.4139,-0.331,0.0,0.0,0.0,0.0,0.0,0.0,0.0,0.0,0.0,0.0,0.0,0.0,0.0,0.0,0.0,0.0,0.0,0.0,0.0,0.0,0.0,0.0,0.0,0.0,0.0,0.0,0.0,0.0,0.0,0.0,0.0,0.0,0.0,0.0,0.0,0.0,0.0,0.0,0.0,0.0,0.0,0.0,0.0,0.0,0.0,0.0,0.0,0.0,0.0,0.0,0.0,0.0,0.0,0.0,0.0,0.0,0.0,0.0,0.0,0.0,0.0,0.0,0.0,0.0,0.0,0.0,0.0,0.0,0.0,0.0,0.0,0.0,0.0,0.0,0.0,0.0,0.0,0.0,0.0,0.0,0.0,0.0,0.0,0.0,0.0,0.0,0.0,0.0,0.0,0.0,0.0,0.0,0.0,0.0,0.0,0.0,0.0,0.0,0.0,0.0,0.0,0.0,-0.7665,-0.7164,-0.5989,-0.5671,-0.5464,-0.5255,-0.4981,-0.4558,-0.399,-0.2817,0.0,0.0,0.0,0.0,0.0,0.0,0.0,0.0,0.0,0.0,0.0,0.0,0.0,0.0,0.0,0.0,0.0,0.0,0.0,0.0,0.0,0.0,0.0,0.0,0.0,0.0,0.0,0.0,0.0,0.0,0.0,0.0,0.0,0.0,0.0,0.0,0.0,0.0,0.0,0.0,0.0,0.0,0.0,0.0,0.0,0.0,0.0,0.0,0.0,0.0,0.0,0.0,0.0,0.0,0.0,0.0,0.0,0.0,0.0,0.0,0.0,0.0,0.0,0.0,0.0,0.0,0.0,0.0,0.0,0.0,0.0,0.0,0.0,0.0,0.0,0.0,0.0,0.0,0.0,0.0,0.0,0.0,0.0,0.0,0.0,0.0,0.0,0.0,0.0,0.0,0.0,0.0,0.0,0.0,0.0,0.0,0.0,0.0,0.0,0.0,0.0,0.0,-0.7179,-0.6844,-0.5569,-0.5426,-0.5235,-0.479,-0.4614,-0.4327,-0.3851,-0.2678,0.0,0.0,0.0,0.0,0.0,0.0,0.0,0.0,0.0,0.0,0.0,0.0,0.0,0.0,0.0,0.0,0.0,0.0,0.0,0.0,0.0,0.0,0.0,0.0,0.0,0.0,0.0,0.0,0.0,0.0,0.0,0.0,0.0,0.0,0.0,0.0,0.0,0.0,0.0,0.0,0.0,0.0,0.0,0.0,0.0,0.0,0.0,0.0,0.0,0.0,0.0,0.0,0.0,0.0,0.0,0.0,0.0,0.0,0.0,0.0,0.0,0.0,0.0,0.0,0.0,0.0,0.0,0.0,0.0,0.0,0.0,0.0,0.0,0.0,0.0,0.0,0.0,0.0,0.0,0.0,0.0,0.0,0.0,0.0,0.0,0.0,0.0,0.0,0.0,0.0,0.0,0.0,0.0,0.0,0.0,0.0,0.0,0.0,0.0,0.0,0.0,0.0,-0.7829,-0.7345,-0.6326,-0.5612,-0.5074,-0.4736,-0.458,-0.4174,-0.3417,0.0,0.0,0.0,0.0,0.0,0.0,0.0,0.0,0.0,0.0,0.0,0.0,0.0,0.0,0.0,0.0,0.0,0.0,0.0,0.0,0.0,0.0,0.0,0.0,0.0,0.0,0.0,0.0,0.0,0.0,0.0,0.0,0.0,0.0,0.0,0.0,0.0,0.0,0.0,0.0,0.0,0.0,0.0,0.0,0.0,0.0,0.0,0.0,0.0,0.0,0.0,0.0,0.0,0.0,0.0,0.0,0.0,0.0,0.0,0.0,0.0,0.0,0.0,0.0,0.0,0.0,0.0,0.0,0.0,0.0,0.0,0.0,0.0,0.0,0.0,0.0,0.0,0.0,0.0,0.0,0.0,0.0,0.0,0.0,0.0,0.0,0.0,0.0,0.0,0.0,0.0,0.0,0.0,0.0,0.0,0.0,0.0,0.0,0.0,0.0,0.0,0.0,-0.8397,-0.8063,-0.7516,-0.6646,-0.5643,-0.493,-0.4661,-0.4498,-0.4017,-0.3094,0.0,0.0,0.0,0.0,0.0,0.0,0.0,0.0,0.0,0.0,0.0,0.0,0.0,0.0,0.0,0.0,0.0,0.0,0.0,0.0,0.0,0.0,0.0,0.0,0.0,0.0,0.0,0.0,0.0,0.0,0.0,0.0,0.0,0.0,0.0,0.0,0.0,0.0,0.0,0.0,0.0,0.0,0.0,0.0,0.0,0.0,0.0,0.0,0.0,0.0,0.0,0.0,0.0,0.0,0.0,0.0,0.0,0.0,0.0,0.0,0.0,0.0,0.0,0.0,0.0,0.0,0.0,0.0,0.0,0.0,0.0,0.0,0.0,0.0,0.0,0.0,0.0,0.0,0.0,0.0,0.0,0.0,0.0,0.0,0.0,0.0,0.0,0.0,0.0,0.0,0.0,0.0,0.0,0.0,0.0,0.0,0.0,0.0,0.0,0.0,0.0,0.0,-0.8037,-0.7679,-0.7188,-0.6302,-0.5442,-0.481,-0.4532,-0.4321,-0.3824,0.0,0.0,0.0,0.0,0.0,0.0,0.0,0.0,0.0,0.0,0.0,0.0,0.0,0.0,0.0,0.0,0.0,0.0,0.0,0.0,0.0,0.0,0.0,0.0,0.0,0.0,0.0,0.0,0.0,0.0,0.0,0.0,0.0,0.0,0.0,0.0,0.0,0.0,0.0,0.0,0.0,0.0,0.0,0.0,0.0,0.0,0.0,0.0,0.0,0.0,0.0,0.0,0.0,0.0,0.0,0.0,0.0,0.0,0.0,0.0,0.0,0.0,0.0,0.0,0.0,0.0,0.0,0.0,0.0,0.0,0.0,0.0,0.0,0.0,0.0,0.0,0.0,0.0,0.0,0.0,0.0,0.0,0.0,0.0,0.0,0.0,0.0,0.0,0.0,0.0,0.0,0.0,0.0,0.0,0.0,0.0,0.0,0.0,0.0,0.0,0.0,0.0,0.0,-0.9425,-0.885,-0.8117,-0.7338,-0.6393,-0.5493,-0.4711,-0.4368,-0.3824,-0.2954,0.0,0.0,0.0,0.0,0.0,0.0,0.0,0.0,0.0,0.0,0.0,0.0,0.0,0.0,0.0,0.0,0.0,0.0,0.0,0.0,0.0,0.0,0.0,0.0,0.0,0.0,0.0,0.0,0.0,0.0,0.0,0.0,0.0,0.0,0.0,0.0,0.0,0.0,0.0,0.0,0.0,0.0,0.0,0.0,0.0,0.0,0.0,0.0,0.0,0.0,0.0,0.0,0.0,0.0,0.0,0.0,0.0,0.0,0.0,0.0,0.0,0.0,0.0,0.0,0.0,0.0,0.0,0.0,0.0,0.0,0.0,0.0,0.0,0.0,0.0,0.0,0.0,0.0,0.0,0.0,0.0,0.0,0.0,0.0,0.0,0.0,0.0,0.0,0.0,0.0,0.0,0.0,0.0,0.0,0.0,0.0,0.0,0.0,0.0,0.0,0.0,0.0,-0.9697,-0.9105,-0.8493,-0.81,-0.6949,-0.5876,-0.5089,-0.458,-0.3959,-0.3111,0.0,0.0,0.0,0.0,0.0,0.0,0.0,0.0,0.0,0.0,0.0,0.0,0.0,0.0,0.0,0.0,0.0,0.0,0.0,0.0,0.0,0.0,0.0,0.0,0.0,0.0,0.0,0.0,0.0,0.0,0.0,0.0,0.0,0.0,0.0,0.0,0.0,0.0,0.0,0.0,0.0,0.0,0.0,0.0,0.0,0.0,0.0,0.0,0.0,0.0,0.0,0.0,0.0,0.0,0.0,0.0,0.0,0.0,0.0,0.0,0.0,0.0,0.0,0.0,0.0,0.0,0.0,0.0,0.0,0.0,0.0,0.0,0.0,0.0,0.0,0.0,0.0,0.0,0.0,0.0,0.0,0.0,0.0,0.0,0.0,0.0,0.0,0.0,0.0,0.0,0.0,0.0,0.0,0.0,0.0,0.0,0.0,0.0,0.0,0.0,0.0,0.0,-0.927,-0.8827,-0.8551,-0.8616,-0.731,-0.6172,-0.5583,-0.4959,-0.4241,-0.3423,0.0,0.0,0.0,0.0,0.0,0.0,0.0,0.0,0.0,0.0,0.0,0.0,0.0,0.0,0.0,0.0,0.0,0.0,0.0,0.0,0.0,0.0,0.0,0.0,0.0,0.0,0.0,0.0,0.0,0.0,0.0,0.0,0.0,0.0,0.0,0.0,0.0,0.0,0.0,0.0,0.0,0.0,0.0,0.0,0.0,0.0,0.0,0.0,0.0,0.0,0.0,0.0,0.0,0.0,0.0,0.0,0.0,0.0,0.0,0.0,-0.6382,-0.5109,0.0,0.0,0.0,0.0,0.0,0.0,0.0,0.0,0.0,0.0,0.0,0.0,0.0,0.0,0.0,0.0,0.0,0.0,0.0,0.0,0.0,0.0,0.0,0.0,0.0,0.0,0.0,0.0,0.0,0.0,0.0,0.0,0.0,0.0,0.0,0.0,0.0,0.0,0.0,0.0,-0.9844,-0.9633,-0.9254,-0.8808,-0.836,-0.7451,-0.5868,-0.5464,-0.4868,-0.3911,-0.3456,0.0,0.0,0.0,0.0,0.0,0.0,0.0,0.0,0.0,0.0,0.0,0.0,0.0,0.0,0.0,0.0,0.0,0.0,0.0,0.0,0.0,0.0,0.0,0.0,0.0,0.0,0.0,0.0,0.0,0.0,0.0,0.0,0.0,0.0,0.0,0.0,0.0,0.0,0.0,0.0,0.0,0.0,0.0,0.0,0.0,0.0,0.0,0.0,0.0,0.0,0.0,0.0,0.0,0.0,0.0,0.0,0.0,0.0,0.0,-0.8732,-0.7451,0.0,0.0,0.0,0.0,0.0,0.0,0.0,0.0,0.0,0.0,0.0,0.0,0.0,0.0,0.0,0.0,0.0,0.0,0.0,0.0,0.0,0.0,0.0,0.0,0.0,0.0,0.0,0.0,0.0,0.0,0.0,0.0,0.0,0.0,0.0,0.0,0.0,0.0,0.0,0.0,-1.0058,-0.9965,-0.9776,-0.9452,-0.9038,-0.8295,-0.7053,-0.6211,-0.5445,-0.4763,-0.4029,0.0,0.0,0.0,0.0,0.0,0.0,0.0,0.0,0.0,0.0,0.0,0.0,0.0,0.0,0.0,0.0,0.0,0.0,0.0,0.0,0.0,0.0,0.0,0.0,0.0,0.0,0.0,0.0,0.0,0.0,0.0,0.0,0.0,0.0,0.0,0.0,0.0,0.0,0.0,0.0,0.0,0.0,0.0,0.0,0.0,0.0,0.0,0.0,0.0,0.0,0.0,0.0,0.0,-1.3101,-1.3426,-1.3715,-1.382,-1.3719,-1.3401,-1.2068,-1.086,-0.9871,-1.0082,0.0,0.0,0.0,0.0,0.0,0.0,0.0,0.0,0.0,0.0,0.0,0.0,0.0,0.0,0.0,0.0,0.0,0.0,0.0,0.0,0.0,0.0,0.0,0.0,-1.2318,-1.148,-1.0096,0.0,0.0,0.0,0.0,0.0,0.0,0.0,0.0,0.0,0.0,0.0,-1.0112,-1.0192,-1.0259,-1.0259,-0.967,-0.9023,-0.8396,-0.718,-0.6284,-0.587,-0.4924,-0.4186,0.0,0.0,0.0,0.0,0.0,0.0,0.0,0.0,0.0,0.0,0.0,0.0,0.0,0.0,0.0,0.0,0.0,0.0,0.0,0.0,0.0,0.0,0.0,0.0,0.0,0.0,0.0,0.0,0.0,0.0,0.0,0.0,-0.7877,-0.7102,0.0,0.0,0.0,0.0,0.0,0.0,0.0,0.0,0.0,0.0,0.0,0.0,0.0,-1.4868,-1.5366,-1.603,-1.6255,-1.6075,-1.737,-1.775,-1.733,-1.7868,-1.7934,-1.766,-1.6938,0.0,-1.1949,-1.1477,0.0,0.0,0.0,0.0,0.0,0.0,0.0,0.0,0.0,0.0,0.0,0.0,0.0,0.0,0.0,0.0,0.0,0.0,0.0,0.0,0.0,0.0,-1.5441,-1.4785,-1.4183,-1.3739,0.0,-1.1179,-0.8998,-0.9353,-0.8527,0.0,0.0,0.0,0.0,0.0,0.0,0.0,-1.0138,-1.0568,-1.0875,-1.0875,-1.0584,-0.9981,-0.898,-0.8504,-0.7969,-0.7277,-0.6412,-0.5782,-0.5489,-0.4329,0.0,0.0,0.0,0.0,0.0,0.0,0.0,0.0,0.0,0.0,0.0,0.0,0.0,0.0,0.0,0.0,0.0,0.0,0.0,0.0,0.0,0.0,0.0,0.0,0.0,0.0,0.0,0.0,0.0,-1.0306,-1.0133,-0.891,-0.9976,-1.0552,0.0,0.0,0.0,0.0,0.0,0.0,0.0,0.0,0.0,-1.5708,-1.646,-1.6914,-1.7033,-1.8117,-1.8772,-1.8945,-1.976,-2.0107,-2.0027,-2.0281,-2.0365,-2.0231,-1.9963,-1.8861,-1.7152,-1.5432,-1.438,-1.3897,0.0,0.0,0.0,0.0,-1.3356,-1.3642,-1.3788,-1.4238,-1.4716,-1.4789,0.0,0.0,0.0,0.0,0.0,0.0,0.0,0.0,0.0,0.0,-1.6324,-1.6431,-1.6136,-1.5775,-1.5551,-1.371,-1.1908,0.0,-1.0689,-1.0322,-1.0371,0.0,0.0,0.0,0.0,-1.1062,-1.1119,-1.1182,-1.1219,-1.1219,-1.1129,-1.0797,-1.0174,-0.9638,-0.9041,-0.8383,-0.7634,-0.7071,-0.6769,-0.6272,-0.5693,0.0,0.0,0.0,0.0,0.0,0.0,0.0,0.0,0.0,0.0,0.0,0.0,0.0,0.0,0.0,0.0,0.0,0.0,0.0,0.0,0.0,0.0,0.0,0.0,0.0,0.0,0.0,0.0,-1.2127,-1.2269,-1.0701,-1.1984,-1.262,0.0,0.0,0.0,0.0,0.0,0.0,-1.6315,-1.682,-1.7193,-1.7421,-1.8317,-1.8771,-1.8732,-1.988,-2.0695,-2.1122,-2.1496,-2.171,-2.181,-2.189,-2.1877,-2.181,-2.181,-2.1729,-2.1363,-1.8973,-1.7515,-1.6835,-1.6994,-1.6687,-1.6219,-1.6524,-1.6725,-1.6899,-1.7088,-1.7502,-1.7889,-1.7675,-1.7315,-1.6834,-1.6208,0.0,0.0,0.0,0.0,-1.6139,-1.6991,-1.6966,-1.6887,-1.7542,-1.7501,-1.7166,-1.6632,-1.5578,-1.4354,0.0,-1.2692,-1.2278,-1.1507,0.0,0.0,0.0,0.0,-1.181,-1.1975,-1.1917,-1.1859,-1.1859,-1.1793,-1.165,-1.1356,-1.0776,-1.0188,-0.9642,-0.8936,-0.8418,-0.8182,-0.8038,-0.765,-0.6951,0.0,0.0,0.0,0.0,0.0,0.0,0.0,0.0,0.0,0.0,0.0,0.0,0.0,0.0,0.0,0.0,0.0,0.0,0.0,0.0,0.0,0.0,0.0,0.0,0.0,0.0,0.0,0.0,0.0,-1.235,-1.5415,0.0,0.0,0.0,0.0,-1.6177,-1.6939,-1.7555,-1.7862,-1.8744,-1.9615,-2.0458,-2.0775,-2.1216,-2.1764,-2.2111,-2.2265,-2.2305,-2.2892,-2.2892,-2.2392,-2.2706,-2.2679,-2.2378,-2.2378,-2.2525,-2.2666,-2.0815,-1.9863,-1.9492,-1.8384,-1.8103,-1.8263,-1.7716,-1.7916,-1.8384,-1.8397,-1.8597,-1.8956,-1.9757,-1.945,-1.8489,-1.7062,-1.6872,0.0,0.0,-1.6859,-1.7448,-1.7259,-1.7555,-1.7942,-1.7955,-1.7782,-1.7501,-1.7219,-1.6203,-1.5164,0.0,-1.3714,-1.322,-1.3413,0.0,-1.29,-1.2345,-1.2543,-1.2623,-1.2318,-1.2772,-1.312,-1.312,-1.2872,-1.2596,-1.2265,-1.1966,-1.1655,-1.1298,-1.0472,-0.999,-0.9978,-0.9172,-0.8805,-0.8949,-0.7423,0.0,0.0,0.0,0.0,0.0,0.0,0.0,0.0,0.0,0.0,0.0,0.0,0.0,0.0,0.0,0.0,0.0,0.0,0.0,0.0,0.0,0.0,0.0,0.0,0.0,0.0,0.0,0.0,-1.6523,-1.8239,0.0,-1.7495,-1.8138,-1.8598,-1.8544,-1.9359,-2.0067,-2.0561,-2.1056,-2.1563,-2.2104,-2.2378,-2.2632,-2.2812,-2.314,-2.3287,-2.3287,-2.3514,-2.35,-2.3287,-2.3429,-2.3429,-2.3287,-2.3287,-2.3388,-2.3429,-2.2766,-2.1991,-2.1122,-2.0321,-2.0187,-2.0485,-2.0458,-2.0668,-2.1015,-2.1015,-2.1051,-2.1064,-2.0668,-2.0054,-1.9319,-1.8383,-1.8343,-1.8558,-1.8358,-1.9264,-2.0098,-1.9134,-1.9515,-1.9927,-1.8848,-1.8384,-1.8063,-1.7568,-1.7127,-1.6605,-1.5815,-1.479,-1.4007,-1.3948,-1.3841,-1.3641,-1.3207,-1.3093,-1.308,-1.314,-1.3167,-1.3193,-1.3193,-1.3106,-1.2999,-1.2893,-1.2631,-1.2342,-1.1993,-1.1527,-1.1169,-1.0942,-1.0846,-1.0563,-1.0065,-0.9676,-0.8943,0.0,0.0,0.0,0.0,0.0,0.0,0.0,0.0,0.0,0.0,0.0,0.0,0.0,0.0,0.0,0.0,0.0,0.0,0.0,0.0,0.0,0.0,0.0,0.0,0.0,-1.6913,-1.8438,-1.8998,-2.0201,-2.0708,-2.0057,-2.0258,-2.0481,-2.0668,-2.1416,-2.2031,-2.2418,-2.2712,-2.2966,-2.3201,-2.3367,-2.3474,-2.3474,-2.3768,-2.3915,-2.395,-2.4022,-2.4008,-2.3915,-2.3915,-2.3808,-2.3634,-2.387,-2.3897,-2.3817,-2.391,-2.3447,-2.2686,-2.2205,-2.2158,-2.2459,-2.3258,-2.3262,-2.2846,-2.2645,-2.2565,-2.2405,-2.1462,-2.0886,-2.0468,-2.008,-2.0027,-2.0258,-2.0801,-2.1168,-2.1364,-2.1,-2.0956,-2.0687,-1.9362,-1.8931,-1.8652,-1.8023,-1.7675,-1.7314,-1.6832,-1.5845,-1.5013,-1.4737,-1.4704,-1.4678,-1.4646,-1.4356,-1.427,-1.4606,-1.4241,-1.3964,-1.3964,-1.3886,-1.3721,-1.352,-1.3549,-1.3292,-1.2644,-1.265,-1.2462,-1.2037,-1.243,-1.2399,-1.1834,-1.1456,-1.0597,-0.927,0.0,0.0,0.0,0.0,0.0,0.0,0.0,0.0,0.0,0.0,0.0,0.0,0.0,0.0,0.0,0.0,0.0,0.0,0.0,0.0,0.0,0.0,0.0,-1.5498,-1.8236,-2.0067,-1.9589,-2.1269,-2.2138,-2.1296,-2.1958,-2.2451,-2.2451,-2.3012,-2.3345,-2.3345,-2.3634,-2.383,-2.383,-2.383,-2.3817,-2.3817,-2.4075,-2.4222,-2.4222,-2.4466,-2.4452,-2.4222,-2.4222,-2.3915,-2.3385,-2.3968,-2.4062,-2.3884,-2.4115,-2.4235,-2.4195,-2.3924,-2.3817,-2.403,-2.5868,-2.5391,-2.3736,-2.3108,-2.2907,-2.2827,-2.2318,-2.2116,-2.2116,-2.2169,-2.2,-2.2112,-2.3669,-2.2589,-2.13,-2.2822,-2.1829,-2.0304,-1.9724,-1.9589,-1.9398,-1.8749,-1.7943,-1.7392,-1.7568,-1.6926,-1.6235,-1.5966,-1.5891,-1.6058,-1.6596,-1.6273,0.0,-1.6576,-1.5965,-1.5492,-1.5506,-1.52,-1.4789,-1.4196,-1.4727,-1.4574,-1.3326,-1.382,-1.3892,-1.3246,-1.3839,-1.4212,-1.4226,-1.2676,-1.136,-1.0334,0.0,0.0,0.0,0.0,0.0,0.0,0.0,0.0,0.0,0.0,0.0,0.0,0.0,0.0,0.0,0.0,0.0,0.0,0.0,0.0,0.0,-1.7355,-1.8744,-1.8611,-1.9907,-2.1283,-2.2452,-2.3247,-2.3701,-2.3639,-2.3852,-2.3986,-2.3986,-2.4382,-2.4596,-2.4596,-2.4275,-2.4182,-2.4359,-2.4195,-2.4088,-2.4088,-2.4369,-2.4479,-2.4479,-2.4559,-2.4559,-2.4479,-2.4479,-2.4543,-2.4596,-2.4506,-2.4716,-2.5024,-2.489,-2.4836,-2.477,-2.4084,-2.3937,-2.416,-2.4674,-2.453,-2.3968,-2.3174,-2.3188,-2.3693,-2.4613,-2.4912,-2.5046,-2.5878,-2.6083,-2.6054,-2.6311,-2.6564,-2.6563,-2.5598,-2.5602,-2.5457,-2.3901,-2.3544,-2.3037,-2.1268,-2.069,-1.9994,-1.8239,-1.7542,-1.7015,-1.6296,-1.5833,-1.5602,-1.5733,-1.5495,0.0,-1.5454,-1.5269,-1.521,-1.5407,-1.5381,-1.5275,-1.5057,-1.5077,-1.4828,-1.4177,-1.3906,-1.3797,-1.3848,-1.4029,-1.4324,-1.4764,-1.4108,-1.3624,0.0,0.0,0.0,0.0,0.0,0.0,0.0,0.0,0.0,0.0,0.0,0.0,0.0,0.0,0.0,0.0,0.0,0.0,0.0,0.0,0.0,0.0,-1.9345,-2.1029,-2.1691,-2.2164,-2.2886,-2.4205,-2.4462,-2.4636,-2.481,-2.4823,-2.4823,-2.4823,-2.4983,-2.513,-2.5251,-2.4823,-2.4596,-2.4599,-2.4596,-2.4449,-2.4209,-2.4452,-2.4599,-2.4599,-2.4599,-2.4666,-2.4823,-2.4823,-2.485,-2.4903,-2.4933,-2.5013,-2.5119,-2.5224,-2.5264,-2.5211,0.0,0.0,0.0,0.0,-2.6307,-2.68,-2.5534,-2.4666,-2.4399,-2.5903,-2.6359,-2.6508,-2.7961,-2.808,-2.7778,-2.814,-2.776,-2.7188,-2.6957,-2.6734,-2.6382,-2.5524,-2.5302,-2.4919,-2.3483,-2.2853,-2.1967,-1.9985,-1.9018,0.0,-1.7177,-1.657,-1.6506,-1.7394,-1.6654,-1.6264,-1.6996,-1.6213,-1.5654,-1.5812,-1.5709,-1.5553,-1.541,-1.5546,0.0,0.0,0.0,-1.4657,-1.4859,-1.4838,0.0,0.0,0.0,-1.4729,-1.471,0.0,0.0,0.0,-1.3341,-1.3347,0.0,0.0,0.0,0.0,0.0,0.0,0.0,0.0,0.0,0.0,0.0,0.0,0.0,0.0,0.0,0.0,-2.1127,-2.2626,-2.4519,-2.4583,-2.4583,-2.5077,-2.5168,-2.5144,-2.5208,-2.5222,-2.5222,-2.5222,-2.5222,-2.5291,-2.5545,-2.5264,0.0,0.0,0.0,-2.481,-2.4262,-2.4532,-2.4679,-2.4653,-2.4679,-2.4877,-2.5168,-2.5168,-2.501,-2.4773,-2.5266,-2.5239,-2.4917,-2.5599,-2.6069,-2.6235,-2.5722,-2.5297,-2.5261,-2.7011,-2.8731,-2.9997,-2.8517,0.0,0.0,-2.7156,-2.7604,-2.7694,-2.9508,-2.9326,-2.8704,-2.9717,-2.7917,-2.6109,-2.7912,-2.6976,-2.5667,-2.616,-2.6258,-2.6109,-2.5557,-2.4727,-2.3718,-2.2425,-2.1151,-1.9941,-1.8861,-1.7916,-1.7969,-1.9855,-1.8567,-1.7927,-1.9428,-1.7777,-1.6416,-1.6416,0.0,0.0,-1.5511,-1.6041,-1.602,-1.5147,-1.5593,-1.5886,-1.5835,-1.5915,-1.5828,-1.5594,-1.5388,-1.5248,-1.5186,-1.4897,-1.5141,-1.5861,-1.4247,-1.3788,0.0,0.0,0.0,0.0,0.0,0.0,0.0,0.0,0.0,0.0,0.0,0.0,0.0,0.0,0.0,-2.1376,-2.2953,-2.4516,-2.5865,-2.5798,-2.5571,-2.5451,-2.5424,-2.5518,-2.5797,-2.5824,-2.5824,-2.5824,-2.5824,-2.585,-2.5904,-2.5409,-2.5157,-2.5331,-2.517,-2.4917,-2.4519,-2.5077,-2.5224,-2.4997,-2.5237,0.0,-2.5424,-2.5424,-2.5531,-2.573,-2.5571,-2.5813,-2.6491,-2.7793,-2.9435,-3.0763,-2.6968,-2.6436,-2.7575,-2.5648,-2.5612,-2.6612,-2.7192,-2.7582,-2.8334,-3.149,-3.2211,-3.2207,-3.3748,-3.3828,0.0,-3.3245,-3.2491,-3.1744,-3.1823,-3.1287,-3.0694,-3.0428,-3.0371,-2.9817,-2.7867,-2.7311,-2.663,-2.4816,-2.3762,-2.3124,-2.2885,-1.99,-1.7614,-1.78,-1.7484,-1.7246,-1.7343,-1.694,-1.6647,-1.6647,-1.6631,-1.6481,-1.6144,-1.6281,-1.6184,-1.5678,-1.5768,-1.5712,-1.5504,-1.5953,-1.6208,-1.6153,-1.6307,-1.6386,-1.6366,-1.6313,-1.6366,-1.6513,-1.5675,-1.5354,0.0,0.0,0.0,0.0,0.0,0.0,0.0,0.0,0.0,0.0,0.0,-1.8077,-1.8812,0.0,-2.1376,-2.2859,-2.3919,-2.5013,-2.6226,-2.6266,-2.6172,-2.6172,-2.5905,-2.5732,-2.5732,-2.5904,-2.5931,-2.5745,-2.5917,-2.6065,-2.6198,-2.5797,-2.5518,-2.5518,-2.5518,-2.5342,-2.4863,-2.5291,-2.5438,-2.5304,-2.5451,-2.5665,-2.5945,-2.5945,-2.6199,-2.664,-2.6453,-2.725,-2.8785,-3.063,-3.2059,-3.2691,-2.931,-2.9556,-3.1466,-2.8998,-2.8335,-2.8785,-2.9575,-2.9387,-2.9402,-3.3148,-3.4108,-3.4116,-3.5585,-3.5566,-3.4902,-3.429,-3.3457,-3.2793,-3.2793,-3.2324,-3.1894,-3.2109,-3.1836,-3.1179,-2.9979,-2.9398,-2.8607,-2.6894,-2.607,-2.5364,-2.4417,-2.247,-2.1048,-2.1107,-2.0406,-1.9969,-2.0269,-1.9568,-1.8969,-1.8779,-1.879,-1.8738,-1.8565,-1.7953,-1.7466,-1.726,-1.6624,-1.6182,-1.6059,-1.6326,-1.6486,-1.6486,-1.6633,-1.67,-1.67,-1.67,-1.67,-1.67,-1.6382,-1.6248,0.0,0.0,0.0,0.0,0.0,0.0,0.0,-1.662,-1.7341,-1.8396,-1.9011,-1.972,-2.0993,-2.1563,-2.2445,-2.4182,-2.4719,-2.5331,-2.6333,-2.6373,-2.6413,-2.6707,-2.6319,-2.5984,-2.5705,-2.5944,-2.5984,-2.5705,-2.5944,-2.6185,-2.6373,-2.6212,-2.5932,-2.5692,-2.5957,-2.5824,-2.5288,-2.5531,-2.5651,-2.5598,-2.5718,-2.6012,-2.648,-2.6533,-2.6854,-2.7309,-2.7362,-2.8788,-3.1259,-3.3092,-3.3959,-3.4049,-3.283,-3.3535,-3.4929,-3.2559,-3.1582,-3.1528,-3.2353,-3.1662,-3.0912,-3.4014,-3.5121,-3.5496,-3.6591,-3.6387,-3.5605,-3.4837,-3.3801,-3.2969,-3.3242,-3.2715,-3.2266,-3.2793,-3.2383,-3.1786,-3.1533,-3.0957,-3.0065,-2.8811,-2.8181,-2.7397,-2.5863,-2.5543,-2.5308,-2.4765,-2.3538,-2.291,-2.3619,-2.2447,-2.1428,-2.1036,-2.0936,-2.0732,-2.0401,-1.9602,-1.8886,-1.8361,-1.7534,-1.7002,-1.6819,-1.6794,-1.6847,-1.6942,-1.6942,-1.6942,-1.6942,-1.6942,-1.6941,-1.6874,-1.6874,-1.682,-1.4269,-1.3796,-1.3727,-1.499,-1.5541,-1.6342,0.0,-1.9372,-1.9943,-2.0628,-2.163,-2.2546,-2.2918,-2.3915,-2.4796,-2.5291,-2.5825,-2.6333,-2.672,-2.6333,-2.6145,-2.64,-2.6386,-2.6333,-2.6293,-2.6319,-2.6333,-2.6293,-2.6319,-2.636,-2.6386,-2.636,-2.6319,-2.6293,-2.6319,-2.6225,-2.5904,-2.6185,-2.6159,-2.5957,-2.6426,-2.6707,-2.6787,-2.7054,-2.7242,-2.7322,-2.7535,-2.9772,-3.328,-3.3766,-3.4902,-3.6454,-3.8196,-3.7874,-3.5932,-3.2102,-3.0417,-3.0371,-3.2333,-3.4064,-3.5402,-3.5402,-3.6662,-3.8086,-3.7838,-3.7461,-3.6992,-3.6558,-3.5996,-3.5508,-3.5195,-3.4726,-3.418,-3.3484,-3.325,-3.2859,-3.1728,-3.1416,-3.1191,-3.0674,-3.0199,-2.9813,-2.9584,-2.9276,-2.779,-2.4129,-2.3411,-2.3234,-2.3037,-2.2554,-2.2085,-2.1795,-2.1395,-2.0549,-1.9063,-1.9942,-1.9529,-1.7075,-1.7892,-1.807,-1.719,-1.7152,-1.7381,-1.7862,-1.7849,-1.7849,-1.7849,-1.7849,-1.7729,-1.7515,-1.7515,-1.7208,-1.5375,-1.4916,-1.4892,-1.6128,-1.7662,-1.9158,-2.016,-2.0962,-2.1744,-2.2712,-2.3434,-2.4088,-2.4743,-2.4836,-2.5024,-2.5665,-2.5692,-2.5824,-2.6253,-2.5959,-2.5678,-2.5638,-2.5208,-2.4967,-2.5104,-2.5732,-2.5919,-2.5411,-2.5999,-2.6466,-2.6627,-2.648,-2.6466,-2.664,-2.648,-2.6333,-2.6252,-2.6333,-2.6333,-2.6252,-2.6627,-2.6907,-2.7094,-2.7388,-2.7657,-2.7984,-3.0619,-3.1966,-3.2613,-3.6584,-3.7846,-3.733,-3.7016,-3.6329,-3.5231,-3.3094,-3.3009,-3.3853,-3.3503,-3.4801,-3.6684,-3.7409,-3.8243,-3.8809,-3.8125,-3.7757,-3.7578,-3.7148,-3.6914,-3.666,-3.625,-3.5801,-3.5312,-3.4707,-3.3984,-3.325,-3.2703,-3.2246,-3.1777,-3.1328,-3.1094,-3.0801,-3.0293,-3.0059,-2.9284,-2.729,-2.6784,-2.6472,-2.6094,-2.5682,-2.5304,-2.49,-2.4698,-2.4197,-2.3253,-2.2976,-2.1987,-1.9969,-1.9636,-1.9049,-1.7996,-1.7956,-1.805,-1.8303,-1.8276,-1.8276,-1.8276,-1.8276,-1.8237,-1.8103,-1.8103,-1.7983,-1.5875,-1.569,-1.5904,-1.7437,-1.9348,-2.1042,-2.1697,-2.2392,-2.3247,-2.4436,-2.4783,-2.5104,-2.5864,-2.5371,-2.5117,-2.5877,-2.5636,-2.5503,-2.5931,-2.5558,-2.5104,-2.4649,-2.3821,-2.3308,-2.3233,-2.4596,-2.5344,-2.5024,-2.5865,-2.652,-2.6814,-2.7279,-2.7584,-2.7642,-2.8165,-2.8092,-2.7351,-2.739,-2.7168,-2.664,-2.6841,-2.7094,-2.7443,-2.7724,-2.8299,-2.9244,-3.2422,-3.3553,-3.3553,-3.835,-3.9001,-3.6922,-3.596,-3.4854,-3.3734,-3.3194,-3.3928,-3.5023,-3.4081,-3.514,-3.7101,-3.8198,-3.9005,-3.9434,-3.8691,-3.844,-3.8379,-3.7949,-3.7734,-3.7559,-3.7129,-3.6601,-3.6094,-3.5664,-3.4746,-3.3906,-3.3652,-3.3027,-3.2383,-3.1953,-3.1777,-3.1445,-3.0684,-3.0566,-3.041,-3.0028,-2.9551,-2.9121,-2.8691,-2.821,-2.7643,-2.7045,-2.6634,-2.6116,-2.5457,-2.4816,-2.3651,-2.1844,-2.1159,-2.0339,-1.9265,-1.8752,-1.8571,-1.8731,-1.8651,-1.8611,-1.8611,-1.8611,-1.8571,-1.849,-1.849,-1.849,-1.5661,-1.5598,-1.6024,-1.8679,-1.9786,-2.0824,-2.3166,-2.3928,-2.4476,-2.5703,-2.5678,-2.5585,-2.5931,-2.5692,-2.5585,-2.5944,-2.5984,-2.5971,-2.5998,-2.5211,-2.4306,-2.3452,-2.2592,-2.1743,-2.09,-2.2886,-2.4716,-2.5877,-2.6252,-2.652,-2.6814,-2.9082,-3.0216,-2.9838,-3.2267,-3.2362,-2.9809,-2.9927,-2.9073,-2.7282,-2.7282,-2.7443,-2.7696,-2.8031,-2.9314,-3.1309,-3.1433,-3.3879,-3.7737,-3.7935,-3.6722,-3.4975,-3.7002,-3.5218,-3.1516,-3.1501,-3.125,-3.1305,-3.3451,-3.5536,-3.7228,-3.6947,-3.8516,-4.0372,-3.9961,-3.9844,-3.9746,-3.9277,-3.8848,-3.8437,-3.7988,-3.7266,-3.6577,-3.6094,-3.5664,-3.5098,-3.4271,-3.3691,-3.323,-3.2832,-3.2452,-3.2042,-3.1562,-3.1455,-3.1328,-3.0918,-3.0449,-3.0,-2.9618,-2.8789,-2.7949,-2.7084,-2.5722,-2.4307,-2.2945,-2.4027,-2.3632,-2.0909,-2.1932,-2.2145,-2.1062,-1.9389,-1.8786,-1.9361,-1.9052,-1.8876,-1.8876,-1.8876,-1.8743,-1.849,-1.849,-1.849,-1.5434,-1.6176,-1.7271,-2.0143,-2.1844,-2.3233,-2.4609,-2.5157,-2.5462,-2.5625,-2.481,-2.3932,-2.3661,-2.3046,-2.2873,-2.379,-2.3937,-2.4352,-2.5491,-2.4396,-2.342,-2.3305,-2.2365,-2.177,-2.1817,-2.2726,-2.3603,-2.4168,-2.5384,-2.6439,-2.7081,-2.9252,-3.0545,-3.0625,-3.2697,-3.3395,-3.2496,-3.1075,-3.0036,-2.9405,-2.8181,-2.775,-2.8045,-2.8138,-2.937,-3.1475,-3.294,-3.5218,-3.8015,-3.9492,-3.8803,-3.6762,-3.604,-3.3961,-3.1241,-2.9815,-2.9174,-2.9383,-3.1597,-3.5635,-3.958,-3.7732,-3.8644,-4.0411,-4.0019,-3.9902,-3.9863,-3.9707,-3.9336,-3.8887,-3.8457,-3.793,-3.7402,-3.6973,-3.6328,-3.5723,-3.543,-3.4785,-3.4062,-3.3359,-3.3105,-3.2773,-3.207,-3.1699,-3.1367,-3.0957,-3.0488,-3.0039,-2.9657,-2.9344,-2.8926,-2.834,-2.7833,-2.7103,-2.6109,-2.5508,-2.4384,-2.2488,-2.1834,-2.105,-2.0003,-1.9405,-1.9201,-1.9388,-1.9294,-1.9225,-1.9225,-1.9225,-1.9201,-1.9107,-1.9107,-1.9107,-1.4817,-1.6423,-1.8313,-2.094,-2.3085,-2.4716,-2.5491,-2.569,-2.5543,-2.4997,-2.3888,-2.2692,-2.1771,-2.1002,-2.0909,-2.2224,-2.2519,-2.3281,-2.5237,-2.4262,-2.338,-2.3474,-2.2525,-2.1964,-2.2231,-2.2666,-2.3067,-2.3447,-2.5061,-2.6578,-2.7892,-3.0345,-3.2157,-3.3226,-3.5332,-3.6014,-3.5075,-3.3681,-3.2228,-3.068,-2.9567,-2.9133,-2.9328,-2.9328,-3.0792,-3.3347,-3.51,-3.6883,-3.8671,-3.9614,-3.8724,-3.6522,-3.4367,-3.2176,-3.0093,-2.8712,-2.867,-2.9648,-3.1846,-3.5339,-3.8845,-3.8743,-3.9622,-4.0703,-4.043,-4.0351,-4.0312,-4.0156,-3.9902,-3.957,-3.916,-3.8613,-3.8086,-3.7812,-3.7109,-3.6484,-3.6484,-3.5781,-3.5,-3.442,-3.3965,-3.3437,-3.2734,-3.2129,-3.1601,-3.1172,-3.0859,-3.0449,-2.9891,-2.9813,-2.9629,-2.9199,-2.8671,-2.8054,-2.7397,-2.6442,-2.516,-2.3519,-2.2482,-2.139,-2.0227,-1.9678,-1.9401,-1.9401,-1.9401,-1.9401,-1.9401,-1.9401,-1.9455,-1.9548,-1.9441,-1.9455,-1.4055,-1.6424,-1.9059,-2.114,-2.3417,-2.5302,-2.5837,-2.5489,-2.478,-2.3843,-2.2846,-2.1691,-2.0224,-1.9533,-1.9696,-2.1248,-2.177,-2.2766,-2.5157,-2.4756,-2.4115,-2.387,-2.306,-2.2445,-2.2164,-2.2719,-2.3295,-2.383,-2.5195,-2.6967,-2.916,-3.2213,-3.4935,-3.7258,-3.987,-4.0006,-3.7511,-3.7511,-3.539,-3.1188,-3.1325,-3.1392,-3.1392,-3.1392,-3.3266,-3.6543,-3.7492,-3.8691,-3.9868,-3.8607,-3.6722,-3.4489,-3.2381,-3.0176,-2.8192,-2.8205,-2.9509,-3.1587,-3.3928,-3.4806,-3.5517,-3.9569,-4.1036,-4.1211,-4.1211,-4.1211,-4.1074,-4.051,-4.0412,-4.0391,-3.9868,-3.9203,-3.8669,-3.865,-3.7969,-3.7363,-3.7324,-3.668,-3.604,-3.6035,-3.498,-3.3965,-3.3535,-3.2773,-3.212,-3.1641,-3.1562,-3.123,-3.0351,-3.0234,-3.0078,-2.9676,-2.8314,-2.7252,-2.6759,-2.6667,-2.5789,-2.3848,-2.3648,-2.299,-2.1574,-2.0197,-1.9441,-1.9441,-1.9441,-1.9441,-1.9441,-1.9441,-1.9589,-1.9813,-1.9575,-1.9589,-1.5762,-1.7793,-1.957,-2.1862,-2.4095,-2.569,-2.5409,-2.4713,-2.3643,-2.1863,-2.0084,-1.837,-1.6901,-1.6513,-1.7248,-1.9826,-2.0855,-2.2231,-2.4823,-2.481,-2.4386,-2.4128,-2.4275,-2.4369,-2.4338,-2.5061,-2.5277,-2.482,-2.5529,-2.7328,-3.036,-3.305,-3.5463,-3.7672,-3.9964,-4.088,-4.02,-3.8598,-3.6463,-3.375,-3.2171,-3.1392,-3.1392,-3.1392,-3.2764,-3.5286,-3.7113,-3.9047,-4.0821,-4.051,-3.8112,-3.4651,-3.4083,-3.1531,-2.8219,-2.8404,-2.8825,-2.9888,-3.4032,-3.6161,-3.7055,-3.6772,-3.8725,-4.1211,-4.1211,-4.1211,-4.0821,-3.9086,-3.9505,-4.0105,-3.8394,-3.8766,-3.9473,-3.9121,-3.8633,-3.8164,-3.7832,-3.7344,-3.6777,-3.6152,-3.5215,-3.4414,-3.3984,-3.3457,-3.2949,-3.2539,-3.2207,-3.1729,-3.082,-3.0703,-3.0547,-3.0106,-2.9707,-2.8804,-2.7128,-2.599,-2.4643,-2.2949,-2.1758,-2.0958,-2.0555,-2.021,-2.0013,-2.0013,-2.0013,-2.0013,-2.0013,-2.0013,-2.0024,-2.009,-2.001,-2.0024,-1.6333,-1.898,-2.1535,-2.2852,-2.4614,-2.5677,-2.4432,-2.3362,-2.1911,-1.9439,-1.7809,-1.6366,-1.4874,-1.4607,-1.5591,-1.8544,-1.9867,-2.155,-2.4476,-2.485,-2.4863,-2.4957,-2.5144,-2.5424,-2.5812,-2.6293,-2.648,-2.6253,-2.7208,-2.8993,-3.1692,-3.4288,-3.6825,-3.9276,-4.0548,-4.1211,-4.1211,-3.9982,-3.8271,-3.6081,-3.4854,-3.4246,-3.4246,-3.4449,-3.5443,-3.7113,-3.9006,-4.0154,-4.0606,-4.0196,-3.7938,-3.4627,-3.377,-3.1381,-2.8419,-2.8684,-2.8804,-2.9177,-3.1984,-3.4061,-3.5745,-3.7485,-3.9584,-4.1406,-4.1269,-4.1211,-4.0919,-3.9688,-4.0064,-4.0531,-3.931,-3.9567,-4.0098,-3.9844,-3.9316,-3.8789,-3.8535,-3.8008,-3.7266,-3.6196,-3.5625,-3.5078,-3.4453,-3.4141,-3.3769,-3.3164,-3.2871,-3.2402,-3.1592,-3.1289,-3.079,-2.9827,-2.9531,-2.8581,-2.6493,-2.5553,-2.4341,-2.2602,-2.1676,-2.0909,-2.0227,-2.0197,-2.0197,-2.0197,-2.0197,-2.0197,-2.0197,-2.0197,-2.0264,-2.0428,-2.0264,-2.0277,-1.7023,-2.0382,-2.3843,-2.3736,-2.4792,-2.5342,-2.3255,-2.1683,-1.9907,-1.7114,-1.5955,-1.5074,-1.3773,-1.364,-1.4665,-1.7582,-1.9052,-2.0882,-2.3932,-2.4823,-2.5369,-2.5877,-2.5812,-2.6079,-2.6907,-2.6921,-2.7121,-2.7709,-2.9298,-3.1089,-3.3032,-3.5414,-3.8065,-4.1113,-4.1211,-4.1211,-4.1211,-4.1211,-4.0236,-3.835,-3.7737,-3.7476,-3.7547,-3.7909,-3.8524,-3.9472,-4.1501,-4.1601,-4.016,-3.9305,-3.7326,-3.4653,-3.2907,-3.0764,-2.8711,-2.8988,-2.9081,-2.9195,-3.0249,-3.1438,-3.3376,-3.9185,-4.1181,-4.1324,-4.1289,-4.125,-4.1133,-4.0841,-4.0958,-4.1133,-4.0841,-4.0686,-4.0586,-4.0489,-3.9941,-3.9355,-3.9297,-3.8613,-3.7676,-3.6469,-3.6196,-3.5937,-3.5098,-3.4902,-3.4609,-3.3809,-3.3601,-3.332,-3.2628,-3.1973,-3.1073,-2.9659,-2.9082,-2.7908,-2.5665,-2.5419,-2.4526,-2.2452,-2.2317,-2.1715,-2.0378,-2.0317,-2.0317,-2.0317,-2.0317,-2.0317,-2.0317,-2.0317,-2.0481,-2.0753,-2.0437,-2.0481,-2.0941,-2.2769,-2.4175,-2.3404,-2.4246,-2.4727,-2.2653,-2.0294,-1.7982,-1.6032,-1.4576,-1.3567,-1.3313,-1.386,-1.5234,-1.7969,-1.9199,-2.0588,-2.288,-2.4476,-2.5478,-2.5571,-2.64,-2.7255,-2.7898,-2.751,-2.7469,-2.8058,-2.999,-3.2129,-3.4288,-3.4846,-3.6958,-4.1094,-4.1211,-4.1211,-4.1211,-4.1211,-4.1016,-4.0588,-3.698,-3.5386,-3.5589,-3.5779,-3.6068,-3.6638,-4.0661,-4.2226,-4.1933,-4.144,-3.8977,-3.5468,-3.4783,-3.2233,-2.8988,-2.9522,-2.9606,-3.0073,-3.4804,-3.502,-3.3635,-3.633,-3.7971,-3.9255,-4.1127,-4.1445,-4.0802,-3.9001,-3.9786,-4.0763,-3.8961,-3.9768,-4.0976,-4.0605,-4.0372,-4.0195,-3.9844,-3.9082,-3.8301,-3.7715,-3.7324,-3.6914,-3.6441,-3.6035,-3.5625,-3.5137,-3.4726,-3.4434,-3.4277,-3.3,-3.196,-3.1698,-3.1251,-2.9728,-2.6641,-2.6067,-2.4591,-2.1544,-2.1356,-2.1231,-2.0962,-2.0949,-2.0949,-2.0949,-2.0949,-2.0949,-2.0949,-2.0949,-2.0989,-2.1029,-2.0975,-2.0989,-2.2407,-2.4421,-2.6184,-2.5269,-2.4816,-2.3875,-2.1042,-1.8691,-1.6486,-1.4242,-1.3227,-1.2732,-1.2732,-1.3233,-1.4491,-1.7128,-1.817,-1.9693,-2.2686,-2.3968,-2.4997,-2.6066,-2.6694,-2.7201,-2.7684,-2.7469,-2.7429,-2.771,-2.8689,-3.0844,-3.4513,-3.6842,-3.904,-4.1133,-4.1211,-4.1211,-4.1211,-4.1211,-4.1211,-4.1172,-3.8072,-3.6621,-3.6712,-3.6074,-3.6367,-3.7546,-4.018,-4.1376,-4.1484,-4.2187,-3.9432,-3.4768,-3.5443,-3.3117,-2.9508,-2.9993,-3.0154,-3.0583,-3.3269,-3.3169,-3.2182,-3.4259,-3.6643,-3.9046,-4.1162,-4.1504,-4.0724,-3.8508,-3.8666,-3.8961,-3.6802,-3.7002,-3.8018,-3.8955,-3.9835,-4.041,-3.998,-3.9375,-3.8769,-3.834,-3.791,-3.748,-3.707,-3.6816,-3.6465,-3.582,-3.5527,-3.4882,-3.3439,-3.3386,-3.3017,-3.1709,-3.1182,-2.9483,-2.5866,-2.5376,-2.415,-2.1541,-2.1368,-2.1269,-2.1122,-2.1109,-2.1109,-2.1109,-2.1109,-2.1109,-2.1109,-2.1109,-2.1109,-2.1109,-2.1109,-2.1109,-2.3808,-2.5949,-2.7951,-2.6961,-2.5358,-2.314,-1.9786,-1.7448,-1.5347,-1.2973,-1.2345,-1.2265,-1.2465,-1.2711,-1.3688,-1.6206,-1.6872,-1.8411,-2.2265,-2.3166,-2.4195,-2.6373,-2.68,-2.7081,-2.7509,-2.7483,-2.7456,-2.759,-2.7934,-3.0095,-3.4473,-3.8843,-4.125,-4.1348,-4.125,-4.125,-4.1348,-4.125,-4.0958,-4.049,-3.9031,-3.8145,-3.7724,-3.6686,-3.7333,-3.9274,-3.9467,-4.0138,-4.1094,-4.1473,-3.9023,-3.5106,-3.5401,-3.3563,-3.0708,-3.059,-3.1002,-3.1656,-3.2333,-3.2,-3.1739,-3.4544,-3.6424,-3.793,-3.9916,-4.0164,-3.9453,-3.7697,-3.7201,-3.6842,-3.5137,-3.4692,-3.5137,-3.6802,-3.8584,-3.9817,-3.9452,-3.9426,-3.9355,-3.8945,-3.8574,-3.8184,-3.7656,-3.7578,-3.7285,-3.6426,-3.6289,-3.5485,-3.3231,-3.3845,-3.369,-3.1538,-3.0882,-2.8991,-2.5128,-2.4713,-2.3804,-2.1819,-2.1622,-2.1475,-2.1216,-2.1149,-2.1109,-2.1109,-2.1109,-2.1109,-2.1109,-2.1109,-2.1109,-2.1109,-2.1109,-2.1109,-2.6902,-2.7704,-2.7911,-2.672,-2.4903,-2.2686,-1.9977,-1.7153,-1.4732,-1.34,-1.2497,-1.2176,-1.2973,-1.3146,-1.3854,-1.5989,-1.5708,-1.6658,-2.0735,-2.179,-2.3148,-2.577,-2.6787,-2.7603,-2.8404,-2.7976,-2.7883,-2.8444,-3.0054,-3.2114,-3.457,-3.8843,-4.1348,-4.1738,-4.1367,-4.1387,-4.1738,-4.1367,-4.0197,-3.8231,-3.8373,-3.7579,-3.5925,-3.6231,-3.7767,-4.0066,-3.7998,-3.9323,0.0,-3.8491,-3.7703,-3.8677,-3.4922,-3.3456,-3.3247,-3.1702,-3.2389,-3.4487,-3.7256,-3.6413,-3.4788,-3.937,-3.7284,-3.3326,-3.5591,-3.5812,-3.5258,-3.5056,-3.4975,-3.4935,-3.4732,-3.4692,-3.4732,-3.4935,-3.6607,-3.8028,-3.7628,-3.9029,-4.0273,-3.9863,-3.9746,-3.9453,-3.8594,-3.8493,-3.8164,-3.7305,-3.7187,-3.6942,-3.6336,-3.4883,-3.3487,-3.2451,-3.1627,-2.9587,-2.5744,-2.5092,-2.4039,-2.2096,-2.1729,-2.1569,-2.1542,-2.1256,-2.1109,-2.1109,-2.1109,-2.1109,-2.1109,-2.1109,-2.1109,-2.1109,-2.1109,-2.1109,-2.513,-2.6747,-2.7857,-2.6506,-2.4436,-2.2011,-1.9183,-1.6567,-1.4309,-1.2946,-1.2385,-1.2256,-1.2599,-1.2665,-1.3106,-1.4469,-1.4255,-1.5231,-1.8998,-1.988,-2.1456,-2.5048,-2.6238,-2.7081,-2.7976,-2.8003,-2.8562,-2.9924,-3.1762,-3.4047,-3.6858,-3.8398,-4.0128,-4.2109,-4.1523,-4.1504,-4.2168,-4.1504,-4.0879,-4.0224,-3.8981,-3.8144,-3.7652,-3.6694,-3.7879,-4.0619,-3.9416,-4.006,0.0,-4.1069,-3.895,-3.6319,-3.7393,-3.5538,-3.2521,-3.474,-3.5334,-3.5333,-3.8057,-3.7119,-3.5197,-3.8341,-3.552,-3.1452,-3.472,-3.532,-3.4646,-3.3126,-3.2694,-3.2422,-3.1117,-3.1737,-3.2694,-3.2694,-3.4367,-3.5909,-3.5772,-3.7245,-3.8507,-3.8358,-3.9204,-3.9785,-3.9434,-3.8137,-3.6942,-3.6309,-3.4939,-3.3451,-3.1907,-3.1871,-3.0971,-2.8335,-2.9398,-2.9135,-2.6268,-2.5878,-2.4848,-2.2674,-2.2439,-2.2211,-2.1863,-2.1569,-2.1408,-2.1408,-2.1203,-2.1109,-2.1109,-2.1109,-2.1109,-2.1109,-2.1109,-2.1109,-2.342,-2.5569,-2.7242,-2.6038,-2.3781,-2.1203,-1.8489,-1.5995,-1.386,-1.2572,-1.2305,-1.2305,-1.2305,-1.2305,-1.2599,-1.3453,-1.3447,-1.4461,-1.7769,-1.8557,-2.016,-2.3861,-2.4997,-2.6026,-2.7428,-2.881,-3.0099,-3.1294,-3.317,-3.5509,-3.8356,-3.822,-3.9403,-4.2322,-4.1855,-4.1836,-4.2382,-4.1719,-4.1287,-4.1019,-3.9981,-3.9215,-3.8662,-3.7802,-3.8853,-4.1294,-3.9854,-4.034,0.0,-4.194,-3.9998,-3.7225,-3.858,-3.6754,-3.3631,-3.6477,-3.7077,-3.6652,-3.8399,-3.7735,-3.6203,-3.6794,-3.3903,-3.0632,-3.3218,-3.3602,-3.2813,-3.0971,-3.0468,-3.0093,-2.86,-2.9328,-3.0468,-3.0468,-3.2134,-3.3716,-3.3716,-3.5697,-3.7499,-3.7499,-3.8989,-4.0234,-4.0098,-3.8101,-3.6363,-3.591,-3.3782,-3.1631,-2.9789,-3.0033,-2.9279,-2.6364,-2.7495,-2.7707,-2.5887,-2.5753,-2.501,-2.3271,-2.3,-2.2706,-2.2291,-2.1917,-2.1716,-2.1716,-2.147,-2.1323,-2.1243,-2.1323,-2.1283,-2.1109,-2.1203,-2.1189,-2.2745,-2.4623,-2.5877,-2.5275,-2.2907,-2.0177,-1.809,-1.5528,-1.336,-1.2492,-1.2305,-1.2305,-1.2305,-1.2305,-1.2599,-1.3453,-1.36,-1.4541,-1.7221,-1.8143,-1.9479,-2.2138,-2.2945,-2.4382,-2.7055,-3.0679,-3.2694,-3.2308,-3.4173,-3.6246,-3.8392,-3.8513,-3.9681,-4.2322,-4.2382,-4.2382,-4.2382,-4.2012,-4.0918,-3.9232,-4.1337,-4.0819,-3.7968,-3.9537,-4.1068,-4.2199,-3.8428,-3.971,0.0,-3.9461,-4.021,-4.3657,-3.7391,-3.6322,-3.7985,-3.6067,-3.6883,-3.8993,-3.8977,-3.8977,-3.8517,-3.5807,-3.3048,-3.0675,-3.0132,-2.9343,-2.8623,-2.8315,-2.8221,-2.8221,-2.8234,-2.8221,-2.8221,-2.8221,-2.9857,-3.1433,-3.1433,-3.4854,-3.7896,-3.7896,-3.9688,-4.1035,-4.0586,-3.8718,-3.7135,-3.6662,-3.4735,-3.3103,-3.2359,-3.0577,-2.9141,-2.8439,-2.6658,-2.5181,-2.4312,-2.4231,-2.4111,-2.3817,-2.3228,-2.2893,-2.2893,-2.2331,-2.201,-2.201,-2.1977,-2.1863,-2.1614,-2.1877,-2.1683,-2.1122,-2.1448,-2.1422,-1.8517,-2.0094,-2.1301,-2.0468,-1.9105,-1.7528,-1.5872,-1.4354,-1.3127,-1.2452,-1.2305,-1.2305,-1.2305,-1.2305,-1.2799,-1.4295,-1.4354,-1.5074,-1.7529,-1.8903,-2.049,-2.2732,-2.548,-2.7681,-2.8951,-3.1038,-3.3014,-3.4843,-3.6185,-3.8199,-4.101,-4.1187,-4.17,-4.2851,-4.2578,-4.2558,-4.2871,-4.2441,-4.1925,-4.1418,-4.2081,-4.1615,-4.0196,-4.1569,-4.2279,-4.236,-4.176,-4.2444,-4.3696,-4.0849,-4.0572,-4.1562,-3.8435,-3.7873,-3.8919,-3.9943,-4.0808,-4.1439,-4.1439,-4.0401,-3.879,-3.7614,-3.4404,-3.1207,-3.2031,-3.068,-2.8791,-2.8326,-2.8179,-2.8179,-2.8179,-2.8179,-2.8179,-2.8179,-2.8712,-2.9202,-2.9202,-3.2628,-3.5719,-3.5719,-3.8685,-4.0666,-3.8991,-3.8009,-3.6403,-3.3241,-3.1997,-3.0785,-2.909,-2.799,-2.7275,-2.7042,-2.613,-2.5398,-2.5117,-2.4917,-2.4676,-2.4382,-2.3995,-2.3723,-2.3522,-2.3113,-2.2806,-2.2626,-2.2378,-2.2138,-2.1877,-2.197,-2.1884,-2.171,-2.1804,-2.1836,-1.5981,-1.7515,-1.8584,-1.8116,-1.7034,-1.5778,-1.4727,-1.3647,-1.2759,-1.2385,-1.2478,-1.2572,-1.2345,-1.2492,-1.2933,-1.3835,-1.4269,-1.5088,-1.6782,-1.8476,-2.0468,-2.2873,-2.6039,-2.8649,-3.0234,-3.2334,-3.4682,-3.7292,-3.8554,-4.0113,-4.2069,-4.2187,-4.2383,-4.2812,-4.2891,-4.2116,-4.0511,-4.1963,-4.233,-4.1631,-4.233,-4.2226,-4.1445,-4.2734,-4.2988,-4.244,-4.334,-4.3984,0.0,-4.2904,-4.1977,-4.1314,-4.0317,-3.9548,-3.9295,-4.1708,-4.204,-4.1259,-4.1259,-3.9614,-3.7404,-3.619,-3.3718,-3.1467,-3.2938,-3.1349,-2.9125,-2.9674,-2.9181,-2.8657,-2.9439,-2.9016,-2.8326,-2.8219,-2.8179,-2.8431,-2.9244,-3.2217,-3.4935,-3.5759,-3.8764,-4.0509,-3.8271,-3.7086,-3.5242,-3.1665,-3.0276,-2.911,-2.7647,-2.7108,-2.6841,-2.6734,-2.6293,-2.6012,-2.6012,-2.5531,-2.517,-2.4946,-2.4559,-2.4289,-2.4102,-2.3714,-2.3407,-2.3241,-2.2913,-2.2672,-2.2485,-2.2258,-2.2151,-2.2151,-2.2151,-2.2084,0.0,-1.6339,-1.7208,-1.7475,-1.6126,-1.4691,-1.4389,-1.326,0.0,-1.2358,-1.2839,-1.3066,-1.2505,-1.2919,-1.316,-1.2612,-1.3714,-1.4874,-1.5524,-1.7515,-1.9947,-2.2813,-2.5184,-2.7751,-3.0676,-3.3986,-3.6879,-3.8944,-4.0661,-4.1579,-4.156,-4.1737,-4.1932,-4.2123,-4.2958,-4.1272,-3.6735,-4.0837,-4.2055,-4.039,-4.2096,-4.2477,-4.1719,-4.3086,-4.3223,-4.2401,-4.332,-4.435,-4.537,-4.471,-4.3597,-4.2309,-4.2139,-4.0926,-3.954,-4.1753,-4.1169,-3.9221,-3.9084,-3.739,-3.4919,-3.2489,-3.1463,-3.1481,-3.2847,-3.139,-2.9768,-3.191,-3.1067,-2.9861,-3.1372,-3.0297,-2.8737,-2.8355,-2.8332,-2.8964,-3.0981,-3.3283,-3.55,-3.7498,-3.9688,-4.0509,-3.8271,-3.6241,-3.4124,-3.1764,-2.969,-2.8253,-2.7804,-2.7709,-2.7589,-2.7362,-2.7028,-2.6854,-2.6854,-2.6052,-2.5545,-2.5545,-2.4973,-2.4653,-2.4639,-2.4155,-2.3884,-2.3843,-2.3514,-2.3332,-2.3319,-2.2758,-2.2512,-2.2512,-2.2512,-2.2352,-1.2959,0.0,-1.2873,-1.294,-1.2786,-1.2623,0.0,-1.2398,-1.2438,-1.2887,-1.3273,-1.3453,-1.3307,-1.4001,-1.4598,-1.4656,-1.5524,-1.6553,-1.7622,-2.0708,-2.3527,-2.5344,-2.7455,-2.8726,-2.8538,-3.188,-3.4077,-3.4149,-3.7594,-3.9564,-3.9274,-4.1174,-4.133,-3.9322,-4.0216,-4.0952,-4.1455,-4.1115,-4.0954,-4.0987,-4.0991,-4.0752,-4.043,-4.2676,-4.3066,-4.2012,-4.3183,-4.3212,-4.2246,-4.0035,-3.9389,-3.9642,-3.7545,-3.8791,-4.1816,-4.2398,-4.2219,-4.1484,-3.963,-3.739,-3.4919,-3.2489,-3.1463,-3.1276,-3.1618,-3.2034,-3.2368,-3.2472,-3.3357,-3.358,-3.0494,-3.0468,-3.082,-2.9209,-2.9761,-3.0859,-3.1554,-3.4547,-3.7281,-3.7816,-3.9688,-4.0509,-3.8271,-3.7498,-3.5822,-3.197,-3.0951,-3.0037,-2.8295,-2.7843,-2.7669,-2.7602,-2.7335,-2.7161,-2.7161,-2.6399,-2.5891,-2.5891,-2.5504,-2.5211,-2.4983,-2.4836,-2.4593,-2.4115,-2.3821,-2.3661,-2.3661,-2.3562,-2.3447,-2.3447,-2.3447,-2.33,-1.2305,-1.2064,-1.1913,-1.2308,-1.2251,-1.2189,-1.2585,-1.2478,-1.2518,-1.3233,-1.3407,-1.3514,-1.378,-1.4122,-1.4536,-1.5133,-1.5712,-1.6994,-1.9562,-2.2064,-2.4289,-2.6172,-2.7495,-2.8625,-2.9578,-3.174,-3.3397,-3.4216,-3.7022,-3.8626,-3.8531,-4.0628,-4.1262,-3.9933,-3.9618,-3.9092,-3.8352,-3.8435,-3.8464,-3.8322,-3.9674,-4.0488,-4.084,-4.2812,-4.2768,-4.1178,-4.2521,-4.1784,-3.9583,-3.8882,-3.802,-3.7198,-3.8061,-3.9446,-4.1079,-4.2174,-4.1905,-4.0627,-3.8154,-3.5695,-3.3403,-3.2124,-3.1557,-3.1584,-3.2543,-3.3362,-3.3874,-3.326,-3.324,-3.2991,-3.1223,-3.0807,-3.0551,-2.9279,-2.9668,-3.0622,-3.1784,-3.4576,-3.7206,-3.8235,-4.0064,-4.0464,-3.7266,-3.6546,-3.4935,-3.0592,-2.9941,-2.9523,-2.8347,-2.8045,-2.7938,-2.7938,-2.7684,-2.7468,-2.7468,-2.6948,-2.6533,-2.636,-2.6079,-2.5785,-2.5529,-2.5358,-2.4997,-2.4409,-2.4382,-2.4205,-2.3803,-2.3901,-2.3937,-2.3803,-2.3803,-2.3688,-1.2412,-1.2572,-1.2866,-1.3453,-1.3027,-1.2719,-1.3514,-1.3033,-1.2705,-1.3634,-1.366,-1.3694,-1.4202,-1.4354,-1.4581,-1.5106,-1.5775,-1.7569,-2.1502,-2.2853,-2.4191,-2.6213,-2.6947,-2.8359,-3.1076,-3.1897,-3.303,-3.5035,-3.6826,-3.7867,-3.7988,-4.0109,-4.1308,-4.1283,-3.9443,-3.6576,-3.2682,-3.4778,-3.5528,-3.4867,-3.778,-3.9698,-4.0806,-4.2029,-4.1546,-3.9796,-4.0983,0.0,-3.6971,-3.852,-3.7244,-3.4829,-3.9548,-4.0214,-3.8703,-4.1169,-4.0537,-3.8079,-3.5602,-3.3403,-3.1711,-3.1711,-3.1711,-3.2036,-3.3743,-3.4244,-3.4126,-3.3571,-3.2451,-3.1606,-3.2324,-3.126,-2.9859,-2.9262,-2.9316,-3.0016,-3.194,-3.4092,-3.6225,-3.8106,-4.0049,-4.0186,-3.6512,-3.5251,-3.3551,-2.9844,-2.8669,-2.8179,-2.8179,-2.8179,-2.8179,-2.8179,-2.7965,-2.7762,-2.7762,-2.7576,-2.7268,-2.6974,-2.664,-2.6306,-2.6011,-2.5678,-2.5277,-2.4746,-2.5024,-2.4783,-2.4071,-2.4289,-2.4262,-2.4004,-2.4004,-2.3964,-1.2913,-1.3822,-1.4424,-1.378,-1.3493,-1.3514,-1.3935,-1.3534,-1.34,-1.4544,-1.4923,-1.5084,-1.5177,-1.6769,-1.7636,-1.6324,-1.8237,-2.0869,-2.3754,-2.513,-2.6066,-2.668,-2.835,-2.9135,-2.8424,-2.9335,-2.9959,-2.9825,-3.3411,-3.5632,-3.5796,-3.9539,-4.0909,-3.9054,-3.6968,-3.4737,-3.2368,-3.3082,-3.3796,-3.4547,-3.4213,-3.4689,-3.5993,-3.703,-3.7318,-3.7005,0.0,-3.6056,-3.4086,-3.4579,-3.3585,-3.205,-3.4951,-3.5991,-3.6144,-3.8611,-3.7971,-3.5509,-3.3088,-3.1995,-3.1711,-3.1711,-3.1711,-3.1758,-3.2083,-3.2151,-3.2083,-3.1729,-3.3855,-3.5381,-3.1741,-3.1586,-3.1932,-3.0158,-3.0799,-3.1954,-3.2536,-3.418,-3.5641,-3.5975,-3.7848,-3.9241,-3.8569,-3.6621,-3.4974,-3.4331,-3.0767,-2.8179,-2.8179,-2.8179,-2.8179,-2.8179,-2.8138,-2.8112,-2.8112,-2.8072,-2.7924,-2.7575,-2.7054,-2.652,-2.6011,-2.5678,-2.5464,-2.5346,-2.5424,-2.5384,-2.5251,-2.5291,-2.5157,-2.4914,-2.4914,-2.4609,-1.2858,-1.3728,-1.4611,-1.4963,-1.4914,-1.4905,-1.5404,-1.4407,-1.398,-1.6003,-1.5351,-1.4861,-1.6313,-1.7462,-1.8504,-1.9439,-2.167,-2.3768,-2.5157,-2.5945,-2.6613,-2.7228,-2.8283,-2.9254,-2.9984,-3.0766,-3.1555,-3.2369,-3.5171,-3.63,-3.5038,-3.7966,-3.8703,-3.6523,-3.4464,-3.2952,-3.2025,-3.1066,-3.1334,-3.2825,-3.2883,-3.3596,-3.4924,-3.5741,-3.5652,-3.4804,0.0,-3.4096,-3.1612,-3.2661,-3.2261,-3.1228,-3.3882,-3.5039,-3.5416,-3.656,-3.5463,-3.3182,-3.2077,-3.1711,-3.1711,-3.1711,-3.1711,-3.1711,-3.1711,-3.1711,-3.1684,-3.1503,-3.2696,-3.346,-3.1217,-3.1062,-3.1341,-3.0384,-3.0595,-3.1041,-3.1151,-3.2862,-3.4369,-3.4369,-3.7039,-3.8547,-3.6106,-3.5476,-3.4495,-3.2026,-2.9691,-2.8179,-2.8179,-2.8179,-2.8179,-2.8179,-2.8179,-2.8179,-2.8179,-2.8179,-2.8058,-2.7722,-2.7295,-2.6947,-2.672,-2.6373,-2.6146,-2.5985,-2.5838,-2.5678,-2.5518,-2.5518,-2.5451,-2.5317,-2.5317,-2.509,-1.2858,-1.3675,-1.4683,-1.5896,-1.5939,-1.6008,-1.7168,-1.5768,-1.5008,-1.7742,-1.6473,-1.5501,-1.7635,-1.8197,-1.9319,-2.2432,-2.4502,-2.5972,-2.672,-2.7015,-2.7388,-2.8136,-2.846,-2.9345,-3.1336,-3.2172,-3.3248,-3.4777,-3.6505,-3.6691,-3.4905,-3.6775,-3.6957,-3.4905,-3.3321,-3.2255,-3.1801,-2.9674,-2.9373,-3.0965,-3.1612,-3.2556,-3.3735,-3.4045,-3.356,-3.2544,-3.3341,-3.2198,-2.994,-3.1485,-3.1581,-3.1006,-3.3265,-3.4295,-3.4467,-3.4467,-3.3276,-3.1711,-3.1711,-3.1711,-3.1711,-3.1711,-3.1711,-3.1711,-3.1711,-3.1711,-3.1711,-3.1711,-3.1503,-3.1263,-3.0969,-3.0675,-3.0507,-3.0507,-3.0287,-3.0127,-3.0127,-3.1469,-3.2674,-3.2674,-3.5676,-3.7081,-3.3599,-3.3927,-3.3458,-3.0041,-2.8759,-2.8179,-2.8179,-2.8179,-2.8179,-2.8179,-2.8179,-2.8179,-2.8179,-2.8179,-2.8085,-2.7816,-2.7535,-2.7376,-2.7309,-2.7041,-2.6827,-2.66,-2.6346,-2.6052,-2.5812,-2.5745,-2.5678,-2.5611,-2.5611,-2.5464,-1.3327,-1.4407,-1.5391,-1.5741,-1.5621,-1.6152,-1.8945,-1.7769,-1.6939,-1.9883,-1.9439,-1.8663,-1.9187,-1.9936,-2.1336,-2.3999,-2.5518,-2.7001,-2.8951,-2.9245,-2.9379,-2.9713,-2.978,-2.9838,-3.003,-3.1439,-3.2408,-3.2549,-3.4052,-3.5077,-3.5253,-3.6955,-3.708,-3.5294,-3.4768,-3.3622,-3.1828,-2.9674,-2.8971,-2.9626,-2.9158,-2.9363,-3.0226,-2.9455,-2.9385,-2.9751,-2.9531,-2.9454,-2.9624,-3.055,-3.0866,-3.0895,-3.1645,-3.1921,-3.1948,-3.1948,-3.1853,-3.1711,-3.1711,-3.1711,-3.1711,-3.1711,-3.1711,-3.1711,-3.1711,-3.1711,-3.1711,-3.1711,-3.1698,-3.157,-3.1276,-3.0982,-3.0755,-3.0755,-3.0742,-3.0728,-3.0728,-3.0652,-3.0645,-3.0645,-3.2361,-3.373,-3.3438,-3.2985,-3.2577,-3.2251,-2.993,-2.8179,-2.8179,-2.8179,-2.8179,-2.8179,-2.8179,-2.8179,-2.8179,-2.8179,-2.8179,-2.8152,-2.7829,-2.7549,-2.7322,-2.7282,-2.7269,-2.7242,-2.6907,-2.6747,-2.6734,-2.6453,-2.6225,-2.5957,-2.5957,-2.581,-1.3734,-1.491,-1.6099,-1.6754,-1.6834,-1.7341,-1.9559,-1.8811,-1.8625,-2.1957,-2.0935,-1.9613,-2.0124,-2.1657,-2.3434,-2.517,-2.6907,-2.8377,-2.9352,-2.9633,-2.9793,-2.99,-2.9913,-3.04,-3.1637,-3.2103,-3.2841,-3.408,-3.4482,-3.4758,-3.4931,-3.5544,-3.5608,-3.4931,-3.3454,-3.237,-3.1801,-2.9522,-2.8617,-2.9161,-2.8804,-2.8871,-2.9308,-2.8644,-2.8644,-2.9161,-2.9041,-2.9205,-2.9539,-3.0279,-3.0635,-3.0849,-3.1436,-3.1711,-3.1711,-3.1711,-3.1711,-3.1711,-3.1711,-3.1711,-3.1711,-3.1711,-3.1711,-3.1711,-3.1711,-3.1711,-3.1711,-3.1711,-3.1711,-3.1684,-3.153,-3.1289,-3.1062,-3.1062,-3.0929,-3.0795,-3.0795,-3.0702,-3.0635,-3.0635,-3.2287,-3.3205,-3.1775,-3.2193,-3.2217,-3.0592,-2.9229,-2.8406,-2.8205,-2.8179,-2.8179,-2.8179,-2.8179,-2.8179,-2.8179,-2.8179,-2.8179,-2.8179,-2.8072,-2.7965,-2.7857,-2.767,-2.7535,-2.7535,-2.7255,-2.7094,-2.7094,-2.7028,-2.6921,-2.6814,-2.6814,-2.656,-1.3788,-1.475,-1.5882,-1.7021,-1.7474,-1.8277,-2.0775,-2.0294,-2.0321,-2.391,-2.2779,-2.1283,-2.1636,-2.2899,-2.4342,-2.5611,-2.7321,-2.8684,-2.9259,-2.9593,-2.978,-2.978,-2.978,-3.0308,-3.1684,-3.2027,-3.2716,-3.4081,-3.4523,-3.4692,-3.4692,-3.5339,-3.5719,-3.5719,-3.4246,-3.3542,-3.374,-3.0736,-2.9368,-2.9755,-2.8893,-2.8671,-2.8975,-2.846,-2.847,-2.8988,-2.8895,-2.9125,-2.9526,-3.0159,-3.0681,-3.1116,-3.1564,-3.1711,-3.1711,-3.1711,-3.1711,-3.1711,-3.1711,-3.1711,-3.1711,-3.1711,-3.1711,-3.1711,-3.1711,-3.1711,-3.1711,-3.1711,-3.1711,-3.1711,-3.1711,-3.1517,-3.137,-3.137,-3.1209,-3.1076,-3.1076,-3.0996,-3.0929,-3.0929,-3.1906,-3.2245,-3.0672,-3.117,-3.1206,-2.9424,-2.8925,-2.8671,-2.85,-2.8473,-2.8433,-2.8339,-2.8245,-2.8179,-2.8179,-2.8179,-2.8179,-2.8179,-2.8179,-2.8179,-2.8179,-2.7991,-2.7843,-2.7843,-2.7549,-2.7443,-2.7443,-2.7349,-2.7309,-2.7309,-2.7309,-2.7095,-1.3487,-1.3874,-1.4558,-1.6286,-1.7168,-1.8719,-2.2853,-2.2392,-2.2138,-2.5665,-2.5224,-2.4128,-2.387,-2.3554,-2.3799,-2.5277,-2.6507,-2.7696,-2.8828,-2.9285,-2.9486,-2.9486,-2.9486,-2.9486,-2.9472,-3.0852,-3.1801,-3.1786,-3.3581,-3.4692,-3.4732,-3.6762,-3.7896,-3.7935,-3.7896,-3.7896,-3.7896,-3.3594,-3.1433,-3.1351,-2.9244,-2.85,-2.8961,-2.846,-2.847,-2.8975,-2.8724,-2.8938,-2.9526,-3.0159,-3.0922,-3.1711,-3.1711,-3.1711,-3.1711,-3.1711,-3.1711,-3.1724,-3.1711,-3.1724,-3.1724,-3.1724,-3.1724,-3.1724,-3.1711,-3.1711,-3.1711,-3.1711,-3.1711,-3.1711,-3.1711,-3.1711,-3.1711,-3.1711,-3.1711,-3.1711,-3.1711,-3.1436,-3.1176,-3.1176,-3.0768,-3.0413,-3.0413,-2.9918,-2.9486,-2.9486,-2.9232,-2.9001,-2.9001,-2.9001,-2.8881,-2.8644,-2.8379,-2.8192,-2.8192,-2.8192,-2.8192,-2.8192,-2.8179,-2.8179,-2.8179,-2.8179,-2.8179,-2.8179,-2.7856,-2.7696,-2.7696,-2.7456,-2.7309,-2.7309,-2.7309,-2.7309,-1.5578,-1.6043,-1.6591,-1.7929,-1.9011,-2.0378,-2.2653,-2.2886,-2.338,-2.5879,-2.5718,-2.4903,-2.4209,-2.501,-2.5693,-2.5545,-2.7028,-2.8337,-2.8684,-2.8991,-2.9135,-2.9135,-2.9135,-2.9085,-2.8885,-2.9285,-3.0114,-3.1432,-3.2072,-3.3716,-3.6802,-3.7538,-3.8587,-4.0197,-3.8706,-3.7896,-3.7896,-3.5137,-3.294,-3.1392,-3.0744,-2.9747,-2.8446,-2.8272,-2.8286,-2.846,-2.8551,-2.8711,-2.8938,-2.9998,-3.0755,-3.1383,-3.1583,-3.1711,-3.1711,-3.1711,-3.1797,-3.1944,-3.1791,-3.1992,-3.226,-3.1858,-3.181,-3.1931,-3.1778,-3.1711,-3.1711,-3.1711,-3.1711,-3.1711,-3.1711,-3.1711,-3.1711,-3.1711,-3.1711,-3.1711,-3.1711,-3.1597,-3.153,-3.153,-3.1223,-3.0902,-3.0702,-3.04,-2.9998,-2.9539,-2.9406,-2.9272,-2.9028,-2.9001,-2.8961,-2.8881,-2.8831,-2.8778,-2.8778,-2.8591,-2.847,-2.847,-2.8312,-2.8179,-2.8179,-2.8179,-2.8179,-2.8179,-2.8098,-2.8045,-2.8045,-2.7965,-2.7924,-2.7924,-2.7924,-2.7804,-1.6233,-1.6685,-1.7341,-1.9439,-2.0668,-2.1844,-2.371,-2.4502,-2.5411,-2.7241,-2.6867,-2.6119,-2.5825,-2.6253,-2.6587,-2.6413,-2.7522,-2.8417,-2.8417,-2.8684,-2.8828,-2.8828,-2.8828,-2.8804,-2.8631,-2.928,-3.0196,-3.1298,-3.2981,-3.5137,-3.7777,-3.8706,-3.9825,-4.1172,-3.9903,-3.9198,-3.9198,-3.7042,-3.4854,-3.2694,-3.1805,-3.026,-2.8179,-2.8179,-2.8179,-2.8205,-2.847,-2.8738,-2.9018,-2.9847,-3.0528,-3.1076,-3.1383,-3.149,-3.1503,-3.1671,-3.1784,-3.1904,-3.1778,-3.1952,-3.2206,-3.1917,-3.1957,-3.2064,-3.1891,-3.1837,-3.1824,-3.1751,-3.1711,-3.1711,-3.1711,-3.1711,-3.1711,-3.1711,-3.1711,-3.1711,-3.1711,-3.1711,-3.1711,-3.1711,-3.1423,-3.1169,-3.0996,-3.0621,-3.0279,-2.9931,-2.9726,-2.9593,-2.9362,-2.9242,-2.9219,-2.9219,-2.9068,-2.9001,-2.9001,-2.8735,-2.8657,-2.8735,-2.8497,-2.8366,-2.8366,-2.8245,-2.8179,-2.8179,-2.8179,-2.8179,-2.8179,-2.8179,-2.8179,-2.8179,-2.8179,-2.8085,-1.6203,-1.6578,-1.7367,-2.0846,-2.2191,-2.3327,-2.573,-2.6827,-2.7737,-2.9115,-2.8286,-2.7496,-2.8112,-2.7322,-2.6814,-2.7602,-2.8005,-2.8179,-2.8179,-2.8433,-2.8564,-2.8564,-2.8564,-2.8564,-2.8564,-3.0279,-3.1392,-3.1392,-3.542,-3.7896,-3.7896,-3.9944,-4.1172,-4.1211,-4.1172,-4.1172,-4.1211,-3.9216,-3.7002,-3.4692,-3.2669,-3.0468,-2.8179,-2.8179,-2.8305,-2.8487,-2.8529,-2.9028,-2.9768,-2.9842,-3.0221,-3.0782,-3.1076,-3.1162,-3.1263,-3.153,-3.1711,-3.1751,-3.1724,-3.1764,-3.1872,-3.2038,-3.2144,-3.2171,-3.2118,-3.2104,-3.2038,-3.1805,-3.1711,-3.1711,-3.1711,-3.1711,-3.1711,-3.1711,-3.1711,-3.1711,-3.1711,-3.1711,-3.1711,-3.1711,-3.145,-3.1263,-3.1236,-3.0795,-3.0467,-3.0413,-3.0114,-2.9913,-2.9913,-2.9686,-2.9526,-2.9526,-2.9285,-2.9081,-2.9081,-2.8858,-2.8804,-2.9015,-2.8804,-2.8644,-2.8644,-2.8393,-2.8219,-2.8179,-2.8179,-2.8179,-2.8179,-2.8179,-2.8179,-2.8179,-2.8179,-2.8179,-1.8517,-1.8704,-1.9038,-2.1903,-2.3728,-2.5464,-2.7843,-2.7976,-2.7762,-2.8353,-2.7844,-2.7563,-2.835,-2.8138,-2.7871,-2.8058,-2.8138,-2.8179,-2.8179,-2.8245,-2.8286,-2.8286,-2.8286,-2.8286,-2.8286,-3.0178,-3.1392,-3.1392,-3.542,-3.7896,-3.7896,-3.9678,-4.082,-4.1211,-4.084,-4.082,-4.1211,-4.0724,-3.8548,-3.4692,-3.4205,-3.197,-2.8179,-2.8179,-2.9118,-3.0634,-2.8991,-2.9575,-3.1583,-3.0181,-2.9927,-3.0533,-3.0768,-3.1022,-3.1236,-3.1289,-3.161,-3.1971,-3.1744,-3.2166,-3.2639,-3.2225,-3.2412,-3.2706,-3.2238,-3.2104,-3.2038,-3.1805,-3.1711,-3.1711,-3.1711,-3.1711,-3.1711,-3.1711,-3.1711,-3.1711,-3.1711,-3.1711,-3.1711,-3.1711,-3.1623,-3.1503,-3.1263,-3.1116,-3.0889,-3.048,-3.0114,-2.9913,-2.9913,-2.986,-2.982,-2.982,-2.9766,-2.9726,-2.9726,-2.9459,-2.9325,-2.9379,-2.9112,-2.8908,-2.8908,-2.8671,-2.839,-2.8192,-2.8179,-2.8179,-2.8179,-2.8179,-2.8179,-2.8179,-2.8179,-2.8179,-1.8409,-1.9223,-2.0361,-2.3714,-2.5703,-2.7054,-2.815,-2.815,-2.7991,-2.8152,-2.8058,-2.8056,-2.8524,-2.8393,-2.8179,-2.8179,-2.8179,-2.8179,-2.8179,-2.8179,-2.8179,-2.8179,-2.8179,-2.8179,-2.8179,-3.0135,-3.1846,-3.2899,-3.6023,-3.8259,-3.9074,-4.024,-4.0762,-4.0566,-4.0742,-4.084,-4.0859,-4.0043,-3.7954,-3.4692,-3.3635,-3.1407,-2.8179,-2.8179,-2.937,-3.1283,-2.9118,-2.9677,-3.1915,-3.0026,-2.9539,-3.0025,-3.0467,-3.0768,-3.1036,-3.1122,-3.1503,-3.1877,-3.1764,-3.2019,-3.2367,-3.2158,-3.2412,-3.2768,-3.2412,-3.2367,-3.23,-3.1957,-3.1784,-3.1711,-3.1711,-3.1711,-3.1711,-3.1711,-3.1711,-3.1711,-3.1711,-3.1711,-3.1711,-3.1711,-3.1711,-3.1623,-3.1463,-3.1316,-3.1022,-3.0493,-3.0266,-3.0074,-2.994,-2.9913,-2.9913,-2.9913,-2.9913,-2.9913,-2.9913,-2.9646,-2.9539,-2.9686,-2.9419,-2.9245,-2.9245,-2.9112,-2.8818,-2.8419,-2.8406,-2.8339,-2.8179,-2.8179,-2.8179,-2.8179,-2.8179,-2.8179,-1.7609,-1.9423,-2.1724,-2.5398,-2.7081,-2.7817,-2.7843,-2.7924,-2.8005,-2.8152,-2.8393,-2.8524,-2.8524,-2.8366,-2.8179,-2.8179,-2.8179,-2.8179,-2.8179,-2.8179,-2.8179,-2.8179,-2.8138,-2.8125,-2.8179,-3.0034,-3.1858,-3.3376,-3.5789,-3.7668,-3.8814,-3.9467,-3.9528,-3.8937,-3.9509,-3.968,-3.9432,-3.7998,-3.6212,-3.4083,-3.1887,-2.9941,-2.8179,-2.8179,-2.937,-3.1283,-2.9118,-2.9579,-3.1648,-2.9737,-2.9165,-2.9526,-3.0065,-3.0467,-3.0755,-3.1049,-3.1343,-3.1597,-3.1698,-3.1751,-3.1845,-3.2091,-3.2433,-3.2674,-3.2674,-3.2674,-3.2594,-3.2198,-3.1931,-3.1778,-3.1724,-3.1711,-3.1711,-3.1711,-3.1751,-3.1778,-3.1724,-3.1751,-3.1778,-3.1724,-3.1711,-3.1711,-3.1711,-3.1423,-3.1062,-3.0581,-3.0467,-3.0333,-3.0087,-2.998,-2.994,-2.998,-2.994,-2.9913,-2.9913,-2.97,-2.9659,-2.99,-2.9686,-2.9579,-2.9633,-2.9579,-2.9325,-2.8845,-2.8684,-2.8484,-2.8259,-2.8205,-2.8179,-2.8179,-2.8179,-2.8179,-1.7943,-2.0815,-2.3763,-2.5596,-2.6172,-2.668,-2.8136,-2.7709,-2.7215,-2.8031,-2.8219,-2.8245,-2.8245,-2.8219,-2.8179,-2.8179,-2.8179,-2.8179,-2.8179,-2.8179,-2.8179,-2.8179,-2.7951,-2.7898,-2.8165,-2.9688,-3.0068,-2.8744,-3.2178,-3.3747,-3.2342,-3.3483,-3.4433,-3.4937,-3.4467,-3.4467,-3.5021,-3.4794,-3.3734,-3.1805,-2.9648,-2.8473,-2.8179,-2.8179,-2.937,-3.1283,-2.9118,-2.9579,-3.1633,-2.9502,-2.8991,-2.9486,-2.9566,-2.9985,-3.0493,-3.0742,-3.1036,-3.1316,-3.1583,-3.1837,-3.2091,-3.2433,-3.2728,-3.2969,-3.2969,-3.2969,-3.2812,-3.2251,-3.2078,-3.1984,-3.1778,-3.1711,-3.1711,-3.1711,-3.1864,-3.1971,-3.1764,-3.1864,-3.1971,-3.1764,-3.1711,-3.1711,-3.1711,-3.1423,-3.1196,-3.1116,-3.0675,-3.048,-3.0648,-3.0234,-3.002,-3.0319,-3.0074,-2.9913,-2.9913,-2.9887,-2.9873,-2.9913,-2.9887,-2.998,-3.0279,-2.9993,-2.982,-2.974,-2.8991,-2.8591,-2.8537,-2.8312,-2.8179,-2.8179,-2.8179,-2.8179,-1.8517,-2.0271,-2.205,-2.5007,-2.509,-2.5117,-2.7549,-2.7308,-2.6827,-2.7709,-2.7938,-2.7991,-2.8152,-2.8179,-2.8179,-2.8179,-2.8179,-2.8179,-2.8179,-2.8179,-2.8179,-2.8179,-2.7883,-2.7749,-2.7924,-2.8386,-2.8855,-2.9241,-3.0936,-3.2023,-3.2174,-3.3006,-3.3414,-3.3254,-3.3414,-3.3497,-3.3574,-3.2602,-3.1199,-2.9312,-2.8547,-2.8179,-2.8179,-2.8179,-2.937,-3.1283,-2.9118,-2.9481,-3.1423,-2.9435,-2.8764,-2.9018,-2.9352,-2.974,-3.0167,-3.0621,-3.0982,-3.1276,-3.157,-3.1805,-3.1904,-3.2198,-3.2385,-3.2519,-3.2728,-3.2612,-3.2438,-3.2171,-3.1984,-3.1837,-3.1751,-3.1711,-3.1711,-3.1711,-3.2072,-3.2313,-3.1971,-3.2144,-3.2313,-3.1971,-3.1784,-3.1711,-3.1711,-3.1557,-3.1423,-3.1249,-3.1009,-3.0835,-3.0795,-3.0421,-3.0266,-3.0386,-3.01,-2.9913,-2.9913,-2.9913,-2.9913,-2.9913,-2.9913,-3.0047,-3.04,-3.0074,-2.9993,-3.0167,-2.9459,-2.8938,-2.8604,-2.847,-2.8353,-2.8179,-2.8179,-2.8179,-1.8398,-1.9132,-1.999,-2.3327,-2.3425,-2.3539,-2.653,-2.65,-2.6223,-2.7607,-2.7716,-2.7629,-2.7817,-2.7911,-2.7965,-2.7965,-2.7965,-2.7965,-2.7965,-2.7965,-2.7965,-2.7965,-2.7697,-2.7509,-2.7589,-2.7296,-2.7783,-2.9421,-2.9523,-3.0067,-3.1418,-3.1755,-3.166,-3.108,-3.1645,-3.1771,-3.148,-3.0296,-2.9036,-2.7696,-2.7965,-2.8112,-2.8179,-2.8179,-2.9076,-3.0509,-2.888,-2.9118,-3.0482,-2.9099,-2.8537,-2.8657,-2.9179,-2.9553,-2.9887,-3.0555,-3.0929,-3.1169,-3.1543,-3.1764,-3.181,-3.2024,-3.2158,-3.2251,-3.2527,-3.2433,-3.2198,-3.2118,-3.1944,-3.1805,-3.1738,-3.1711,-3.1738,-3.1805,-3.2219,-3.2554,-3.2358,-3.2385,-3.242,-3.2144,-3.1864,-3.1711,-3.1711,-3.1711,-3.1644,-3.137,-3.1276,-3.1142,-3.0929,-3.0648,-3.052,-3.052,-3.0274,-3.014,-3.014,-3.014,-3.014,-3.014,-3.014,-3.0274,-3.0568,-3.0301,-3.0274,-3.0614,-3.0052,-2.9419,-2.8831,-2.8751,-2.8604,-2.8406,-2.8339,-2.8299,-1.6911,-1.7929,-1.8851,-2.0144,-2.0837,-2.2037,-2.5173,-2.5093,-2.5079,-2.7793,-2.7796,-2.7242,-2.6934,-2.7121,-2.7349,-2.7349,-2.7349,-2.7349,-2.7349,-2.7349,-2.7349,-2.7349,-2.7041,-2.6974,-2.7309,-2.6814,-2.6586,-2.6974,-2.6746,-2.6785,-2.7121,-2.6918,-2.6891,-2.7108,-2.6865,-2.6904,-2.7135,-2.7351,-2.7525,-2.7696,-2.7709,-2.7911,-2.8179,-2.8179,-2.8263,-2.8347,-2.8263,-2.8263,-2.8347,-2.8248,-2.8379,-2.8631,-2.8895,-2.9245,-2.9606,-3.0474,-3.0808,-3.0902,-3.1524,-3.1851,-3.2078,-3.2104,-3.2291,-3.2581,-3.2594,-3.2581,-3.2514,-3.2185,-3.2091,-3.2011,-3.1791,-3.1711,-3.1744,-3.2011,-3.2367,-3.2661,-3.2879,-3.2505,-3.2118,-3.2104,-3.1864,-3.1711,-3.1711,-3.1711,-3.1711,-3.1698,-3.141,-3.1176,-3.1162,-3.0955,-3.0768,-3.0768,-3.0755,-3.0755,-3.0755,-3.0755,-3.0755,-3.0755,-3.0755,-3.0875,-3.1169,-3.0902,-3.0889,-3.1122,-3.0608,-3.0065,-2.9432,-2.9108,-2.8961,-2.8948,-2.8711,-2.8577,-1.627,-1.6565,-1.7021,-1.9145,-1.9265,-1.9874,-2.376,-2.398,-2.4238,-2.7382,-2.7187,-2.6566,-2.6937,-2.6999,-2.6921,-2.6734,-2.6707,-2.6774,-2.6961,-2.6987,-2.7054,-2.7282,-2.7001,-2.6867,-2.6974,-2.6627,-2.6426,-2.6533,-2.6106,-2.5959,-2.6253,-2.5812,-2.5678,-2.5972,-2.5879,-2.5972,-2.6266,-2.6747,-2.7134,-2.7469,-2.7602,-2.7898,-2.8179,-2.8179,-2.8179,-2.8179,-2.8179,-2.8179,-2.8179,-2.8179,-2.8366,-2.8631,-2.8881,-2.9219,-2.9593,-3.0474,-3.0795,-3.0875,-3.151,-3.1744,-3.1891,-3.2313,-3.238,-3.2291,-3.2541,-3.2594,-3.2527,-3.2185,-3.2104,-3.2078,-3.1971,-3.181,-3.1831,-3.2326,-3.2661,-3.2955,-3.32,-3.2946,-3.2666,-3.2666,-3.2278,-3.2011,-3.2246,-3.1965,-3.1778,-3.1917,-3.1704,-3.1517,-3.1517,-3.1249,-3.1076,-3.1076,-3.0902,-3.0795,-3.0795,-3.0795,-3.0795,-3.0795,-3.0795,-3.0929,-3.1162,-3.0942,-3.0929,-3.1176,-3.0835,-3.0354,-2.9766,-2.9472,-2.9219,-2.8988,-2.8895,-2.8841,-1.5735,-1.5641,-1.5748,-1.7689,-1.7582,-1.7936,-2.1554,-2.2181,-2.283,-2.5791,-2.5848,-2.5561,-2.6058,-2.602,-2.5945,-2.5945,-2.6026,-2.6132,-2.6226,-2.6319,-2.6453,-2.6653,-2.6587,-2.6533,-2.6533,-2.6453,-2.6346,-2.6253,-2.5879,-2.5705,-2.5837,-2.5438,-2.5317,-2.5504,-2.5611,-2.5758,-2.5998,-2.6533,-2.6921,-2.7121,-2.7415,-2.775,-2.8031,-2.8031,-2.8085,-2.8179,-2.8179,-2.8179,-2.8179,-2.8179,-2.8312,-2.8484,-2.8841,-2.9121,-2.9446,-3.0327,-3.0715,-3.0862,-3.1356,-3.165,-3.1877,-3.2313,-3.2265,-3.2144,-3.2332,-3.238,-3.2273,-3.2131,-3.2104,-3.2131,-3.2225,-3.2185,-3.2233,-3.2527,-3.2888,-3.3173,-3.3374,-3.3106,-3.2915,-3.2959,-3.2505,-3.2198,-3.2541,-3.2193,-3.1877,-3.2078,-3.1851,-3.1684,-3.153,-3.1436,-3.133,-3.1189,-3.1142,-3.1089,-3.1089,-3.1089,-3.1089,-3.1089,-3.1089,-3.1169,-3.137,-3.1196,-3.1183,-3.137,-3.1089,-3.0742,-3.0354,-2.9967,-2.9619,-2.9282,-2.9188,-2.9095,0.0,0.0,0.0,-1.5648,-1.5795,-1.6409,-1.8647,-1.969,-2.0804,-2.3118,-2.3877,-2.4142,-2.4201,-2.4178,-2.4342,-2.4941,-2.5264,-2.5371,-2.509,-2.5304,-2.5491,-2.5504,-2.5758,-2.5984,-2.5984,-2.6238,-2.6253,-2.6011,-2.5971,-2.5837,-2.5531,-2.5529,-2.5516,-2.5491,-2.5849,-2.6049,-2.5984,-2.6507,-2.676,-2.6787,-2.7121,-2.7456,-2.7682,-2.7709,-2.7911,-2.8179,-2.8179,-2.8179,-2.8179,-2.8179,-2.8192,-2.8272,-2.8804,-2.9001,-2.9121,-3.0047,-3.0587,-3.0822,-3.1116,-3.1597,-3.2078,-3.2091,-3.2104,-3.2104,-3.2104,-3.1917,-3.1805,-3.2024,-3.2118,-3.2198,-3.2527,-3.2808,-3.2942,-3.2674,-3.3,-3.3414,-3.3414,-3.2959,-3.2688,-3.2982,-3.2519,-3.2211,-3.2554,-3.2353,-3.2104,-3.2104,-3.1851,-3.157,-3.1276,-3.149,-3.1557,-3.1276,-3.149,-3.1711,-3.1711,-3.1711,-3.1711,-3.1711,-3.1711,-3.1711,-3.1711,-3.1711,-3.1711,-3.1711,-3.1383,-3.1236,-3.1176,-3.0635,-3.0207,-2.9927,-2.9633,-2.9339,-1.5297,0.0,0.0,0.0,0.0,0.0,-1.7944,-1.8773,-2.0,-2.2544,-2.285,-2.2896,-2.388,-2.363,-2.322,-2.3166,-2.3768,-2.4302,-2.4422,-2.4703,-2.4957,-2.517,-2.5451,-2.5638,-2.5638,-2.5705,-2.5812,-2.5984,-2.5358,-2.5157,-2.5491,-2.6425,-2.6296,-2.4877,-2.6481,-2.6824,-2.5638,-2.6051,-2.6413,-2.6787,-2.7121,-2.7349,-2.7443,-2.7871,-2.7991,-2.7829,-2.8085,-2.8179,-2.8179,-2.8179,-2.8446,-2.8804,-2.8935,-2.9255,-2.9726,-3.0194,-3.0453,-3.06,-3.1049,-3.133,-3.1543,-3.1957,-3.2104,-3.2104,-3.2104,-3.2345,-3.2545,-3.2198,-3.2412,-3.2706,-3.2621,-3.2661,-3.2741,-3.2875,-3.3146,-3.3414,-3.3414,-3.312,-3.2946,-3.324,-3.2826,-3.2567,-3.2862,-3.2438,-3.2104,-3.2104,-3.1851,-3.1684,-3.1557,-3.1623,-3.1684,-3.1557,-3.1623,-3.1711,-3.1711,-3.1711,-3.1711,-3.1711,-3.1711,-3.1711,-3.1711,-3.1711,-3.1711,-3.1711,-3.1583,-3.1436,-3.1176,-3.0635,-3.036,-3.0234,-2.994,-2.9646,0.0,0.0,0.0,-1.5337,0.0,0.0,-1.6338,-1.7175,-1.8288,-1.9989,-2.0629,-2.114,-2.1935,-2.1734,-2.1462,-2.1496,-2.1951,-2.2605,-2.3514,-2.4008,-2.4382,-2.4676,-2.497,-2.5197,-2.5317,-2.5438,-2.5531,-2.5623,-2.5117,-2.4917,-2.5093,-2.5745,-2.566,-2.4636,-2.5843,-2.6187,-2.5504,-2.5932,-2.6306,-2.664,-2.6934,-2.7148,-2.7322,-2.7657,-2.7857,-2.7938,-2.8112,-2.8179,-2.8179,-2.8179,-2.8473,-2.8828,-2.8948,-2.9282,-2.9766,-3.006,-3.0327,-3.0581,-3.0929,-3.1209,-3.149,-3.1957,-3.2024,-3.1944,-3.2064,-3.2251,-3.2433,-3.2171,-3.2438,-3.2835,-3.2795,-3.2781,-3.2822,-3.2933,-3.32,-3.3414,-3.3414,-3.3187,-3.3066,-3.336,-3.2995,-3.2688,-3.2933,-3.2492,-3.2144,-3.2265,-3.1979,-3.1764,-3.1837,-3.1791,-3.1711,-3.1711,-3.1711,-3.1711,-3.1711,-3.1711,-3.1764,-3.1837,-3.1744,-3.1831,-3.2072,-3.1845,-3.173,-3.1851,-3.1778,-3.1517,-3.1176,-3.0768,-3.052,-3.04,-3.0181,-3.0007,0.0,0.0,0.0,0.0,-1.5194,0.0,-1.4567,-1.5431,-1.6324,-1.6553,-1.7929,-1.9107,-1.9147,-1.9174,-1.9374,-1.9877,-1.9983,-2.0655,-2.2452,-2.3281,-2.3777,-2.3941,-2.4266,-2.4636,-2.4941,-2.5197,-2.5277,-2.505,-2.5064,-2.493,-2.4572,-2.4511,-2.4534,-2.4546,-2.4767,-2.5049,-2.5464,-2.6012,-2.6306,-2.6346,-2.6667,-2.6961,-2.7255,-2.7322,-2.7643,-2.8138,-2.8165,-2.8179,-2.8179,-2.8179,-2.8366,-2.8631,-2.8881,-2.9219,-2.9526,-2.9806,-3.0261,-3.0755,-3.0782,-3.1156,-3.1664,-3.1957,-3.1877,-3.1764,-3.1971,-3.1891,-3.1784,-3.2064,-3.234,-3.2581,-3.2929,-3.3009,-3.2946,-3.3013,-3.3227,-3.3414,-3.3414,-3.3213,-3.3106,-3.336,-3.2995,-3.2674,-3.2929,-3.2492,-3.2225,-3.2514,-3.2126,-3.1851,-3.2078,-3.1877,-3.1751,-3.1724,-3.1711,-3.1724,-3.1764,-3.1764,-3.1837,-3.2131,-3.1904,-3.2045,-3.2567,-3.2099,-3.1877,-3.2104,-3.1824,-3.1517,-3.1176,-3.0969,-3.0688,-3.0453,-3.0453,-3.0453,0.0,0.0,0.0,0.0,-1.5501,0.0,-1.4999,-1.5418,-1.5901,-1.5968,-1.6635,-1.7301,-1.7594,-1.7796,-1.805,-1.8383,-1.8677,-1.9439,-2.1203,-2.2398,-2.292,-2.2472,-2.3313,-2.3968,-2.4058,-2.4289,-2.4529,-2.4679,-2.4943,-2.485,-2.4315,-2.5661,-2.5791,-2.4325,-2.5754,-2.6089,-2.5195,-2.5504,-2.5798,-2.6091,-2.6573,-2.6814,-2.6921,-2.7402,-2.7682,-2.7802,-2.8085,-2.8179,-2.8179,-2.8179,-2.8366,-2.8631,-2.8881,-2.9219,-2.9526,-2.9806,-3.014,-3.052,-3.0715,-3.1022,-3.1356,-3.165,-3.1764,-3.1724,-3.1744,-3.1877,-3.2078,-3.242,-3.2206,-3.2059,-3.2772,-3.2848,-3.2795,-3.3213,-3.3374,-3.3414,-3.3414,-3.3374,-3.3347,-3.34,-3.2995,-3.2607,-3.2674,-3.2581,-3.2447,-3.2211,-3.234,-3.2353,-3.2131,-3.2051,-3.1931,-3.1738,-3.1711,-3.1805,-3.1998,-3.2024,-3.2144,-3.2487,-3.246,-3.2474,-3.2594,-3.2487,-3.234,-3.2104,-3.1824,-3.1517,-3.1176,-3.1169,-3.0996,-3.0715,-3.0715,-3.0715,0.0,0.0,0.0,-1.6086,0.0,0.0,0.0,-1.5618,-1.5808,-1.5808,-1.6179,-1.6486,-1.6486,-1.6607,-1.6822,-1.7275,-1.7502,-1.8009,-1.9185,-2.0615,-2.1981,-2.307,-2.3727,-2.4291,-2.4756,-2.4904,-2.4844,-2.4419,-2.4422,-2.4369,-2.4209,-2.4816,-2.486,-2.4231,-2.4991,-2.5319,-2.5115,-2.5371,-2.5665,-2.5998,-2.64,-2.676,-2.7054,-2.7348,-2.7642,-2.7965,-2.8125,-2.8179,-2.8179,-2.8179,-2.8272,-2.846,-2.8828,-2.9219,-2.9539,-2.998,-3.0327,-3.0667,-3.0902,-3.1209,-3.1476,-3.1671,-3.177,-3.1891,-3.1891,-3.1984,-3.2171,-3.2514,-3.2273,-3.2051,-3.2786,-3.2915,-3.2915,-3.3307,-3.3414,-3.3414,-3.3414,-3.3414,-3.3414,-3.3414,-3.3053,-3.2768,-3.2621,-3.2474,-3.2367,-3.2367,-3.2367,-3.2367,-3.2367,-3.2198,-3.1984,-3.1751,-3.1711,-3.1784,-3.2078,-3.2104,-3.2291,-3.2781,-3.2674,-3.2728,-3.3009,-3.2755,-3.246,-3.2104,-3.1824,-3.1644,-3.145,-3.145,-3.1289,-3.1009,-3.1009,-3.1009,0.0,0.0,0.0,0.0,0.0,-1.6008,0.0,0.0,0.0,-1.5741,-1.5979,-1.6123,-1.5781,-1.5728,-1.5875,-1.638,-1.6406,-1.6593,-1.726,-1.8517,-2.0301,-2.2846,-2.3162,-2.3571,-2.4542,-2.4805,-2.4653,-2.4076,-2.3768,-2.3728,-2.4022,-2.3545,-2.3532,-2.4102,-2.3888,-2.4205,-2.4983,-2.5344,-2.5638,-2.5917,-2.6226,-2.6667,-2.7229,-2.7282,-2.759,-2.8098,-2.8165,-2.8179,-2.8179,-2.8179,-2.8179,-2.8245,-2.8804,-2.9192,-2.9472,-3.0172,-3.0587,-3.0835,-3.1129,-3.1423,-3.1711,-3.1711,-3.1864,-3.2104,-3.2104,-3.2104,-3.2158,-3.2447,-3.2291,-3.2225,-3.2759,-3.2982,-3.3053,-3.3347,-3.3414,-3.3414,-3.3414,-3.3414,-3.3414,-3.3414,-3.3227,-3.2973,-3.2728,-3.2425,-3.2358,-3.2648,-3.2474,-3.2332,-3.2567,-3.238,-3.2078,-3.1831,-3.1845,-3.1957,-3.2251,-3.2265,-3.2492,-3.3026,-3.2888,-3.2969,-3.3387,-3.2902,-3.246,-3.2104,-3.1824,-3.1711,-3.1711,-3.1711,-3.1543,-3.1316,-3.1316,-3.1316,0.0,0.0,0.0,0.0,-1.6685,0.0,0.0,0.0,-1.6096,-1.5551,0.0,-1.5768,-1.5498,0.0,0.0,-1.5538,-1.5347,-1.5481,-1.6324,-1.6366,-1.6911,-1.8536,-1.8727,-1.9201,-2.0381,-2.1177,-2.2121,-2.3327,-2.314,-2.3134,-2.3372,-2.3332,-2.3474,-2.3843,-2.383,-2.4062,-2.4639,-2.5237,-2.5531,-2.5571,-2.6119,-2.656,-2.6881,-2.7148,-2.7483,-2.7762,-2.8072,-2.8179,-2.8179,-2.8179,-2.8179,-2.8245,-2.8804,-2.9015,-2.9148,-3.0092,-3.0587,-3.0835,-3.1129,-3.1423,-3.1711,-3.1711,-3.1864,-3.2104,-3.2104,-3.2104,-3.2104,-3.2144,-3.2131,-3.2185,-3.2554,-3.2835,-3.3053,-3.3347,-3.3414,-3.3414,-3.3414,-3.3414,-3.3414,-3.3414,-3.3387,-3.3267,-3.2973,-3.2906,-3.2893,-3.2969,-3.2906,-3.2848,-3.2621,-3.2567,-3.2433,-3.2091,-3.234,-3.2607,-3.2853,-3.2879,-3.3013,-3.3347,-3.3334,-3.3347,-3.3414,-3.2902,-3.246,-3.2104,-3.1824,-3.1711,-3.1711,-3.1711,-3.1698,-3.1623,-3.1623,-3.1623,0.0,0.0,0.0,0.0,0.0,0.0,-1.7676,0.0,-1.7209,0.0,0.0,0.0,0.0,0.0,0.0,0.0,-1.5534,-1.536,-1.5735,-1.5048,-1.5764,-1.9062,-1.9457,-1.9908,-2.106,-2.0527,-2.0494,-2.1424,-2.1724,-2.1977,-2.2318,-2.2619,-2.31,-2.379,-2.3803,-2.4048,-2.4586,-2.5186,-2.5518,-2.5518,-2.6106,-2.6547,-2.6787,-2.6947,-2.7255,-2.7709,-2.7829,-2.8031,-2.8179,-2.8179,-2.8179,-2.8232,-2.8617,-2.8855,-2.9108,-3.0034,-3.0587,-3.0862,-3.133,-3.157,-3.1778,-3.2112,-3.242,-3.2639,-3.2812,-3.2625,-3.2407,-3.2407,-3.2407,-3.2433,-3.2567,-3.2929,-3.3253,-3.3387,-3.3414,-3.3414,-3.3414,-3.3414,-3.3414,-3.3414,-3.3414,-3.3374,-3.3253,-3.3093,-3.2973,-3.2973,-3.2973,-3.2982,-3.2862,-3.2848,-3.2728,-3.2433,-3.2527,-3.2714,-3.3009,-3.2973,-3.3106,-3.3387,-3.3253,-3.324,-3.34,-3.2902,-3.2541,-3.2407,-3.2078,-3.1837,-3.1711,-3.1837,-3.1837,-3.1711,-3.1711,-3.1711,-1.8223,0.0,0.0,0.0,0.0,0.0,0.0,0.0,0.0,0.0,0.0,0.0,0.0,0.0,0.0,0.0,0.0,-1.5364,-1.5307,-1.4549,-1.526,-1.8703,-1.9383,-1.9876,-2.0631,-1.9764,-1.9305,-1.969,-2.0374,-2.0882,-2.1208,-2.1897,-2.2712,-2.3621,-2.3763,-2.4088,-2.4719,-2.5226,-2.5558,-2.5638,-2.6146,-2.6507,-2.6707,-2.6867,-2.7175,-2.7589,-2.7749,-2.7991,-2.8179,-2.8179,-2.8179,-2.8205,-2.839,-2.8657,-2.8988,-2.9913,-3.0474,-3.0862,-3.137,-3.165,-3.1864,-3.234,-3.2728,-3.3013,-3.3227,-3.2995,-3.2594,-3.2594,-3.2594,-3.2594,-3.2594,-3.2973,-3.3414,-3.3414,-3.3414,-3.3414,-3.3414,-3.3414,-3.3414,-3.3414,-3.3414,-3.3414,-3.3414,-3.324,-3.3093,-3.3093,-3.3026,-3.2973,-3.2973,-3.2973,-3.2955,-3.2741,-3.2781,-3.2915,-3.308,-3.3093,-3.3187,-3.34,-3.3213,-3.316,-3.3293,-3.2942,-3.2674,-3.2594,-3.238,-3.2078,-3.1784,-3.2078,-3.2078,-3.1784,-3.1784,-3.1791,0.0,0.0,0.0,-1.8838,0.0,0.0,0.0,0.0,-1.7622,0.0,0.0,0.0,0.0,0.0,0.0,0.0,0.0,0.0,0.0,-1.4995,-1.5102,-1.5523,-1.6585,-1.7177,-1.6896,-1.7876,-1.8531,-1.8544,-1.9345,-1.9973,-2.0224,-2.1376,-2.2418,-2.3278,-2.3621,-2.4231,-2.5101,-2.5371,-2.5651,-2.5984,-2.6279,-2.6386,-2.6426,-2.7028,-2.7309,-2.7349,-2.7924,-2.8179,-2.8179,-2.8179,-2.8179,-2.8179,-2.8192,-2.8393,-2.8724,-2.9606,-3.0301,-3.0835,-3.1129,-3.161,-3.2091,-3.2104,-3.2505,-3.2973,-3.2986,-3.2835,-3.2594,-3.2594,-3.2594,-3.2594,-3.2594,-3.2973,-3.3414,-3.3414,-3.3414,-3.3414,-3.3414,-3.3414,-3.3414,-3.3414,-3.3414,-3.3414,-3.3414,-3.34,-3.34,-3.34,-3.316,-3.2973,-3.2973,-3.2973,-3.2973,-3.3009,-3.3213,-3.3387,-3.34,-3.34,-3.34,-3.3414,-3.34,-3.328,-3.3,-3.2973,-3.2888,-3.2607,-3.2581,-3.2433,-3.2091,-3.2433,-3.2433,-3.2091,-3.2091,-3.1931,0.0,0.0,-2.1336,-2.0441,0.0,0.0,0.0,0.0,0.0,0.0,0.0,0.0,0.0,0.0,0.0,0.0,0.0,0.0,0.0,-1.5267,-1.524,-1.5146,-1.5805,-1.6393,-1.6673,-1.6404,-1.6417,-1.7006,-1.7475,-1.8022,-1.8716,-2.0267,-2.1617,-2.2652,-2.3407,-2.4102,-2.4746,-2.5264,-2.5665,-2.5998,-2.6253,-2.6493,-2.668,-2.6881,-2.7081,-2.7322,-2.7724,-2.8005,-2.8179,-2.8179,-2.8179,-2.8179,-2.8179,-2.8379,-2.8684,-2.9379,-2.9873,-3.0314,-3.0996,-3.1744,-3.2407,-3.2171,-3.2625,-3.3227,-3.304,-3.2955,-3.2835,-3.2648,-3.2728,-3.2835,-3.2648,-3.2973,-3.3414,-3.3414,-3.3414,-3.3414,-3.3414,-3.3414,-3.3414,-3.3414,-3.3414,-3.3414,-3.3414,-3.3414,-3.3414,-3.3414,-3.3334,-3.3267,-3.3267,-3.3267,-3.3267,-3.3267,-3.336,-3.3414,-3.3414,-3.3414,-3.3414,-3.3414,-3.3227,-3.316,-3.3253,-3.308,-3.2982,-3.2888,-3.2875,-3.2599,-3.2104,-3.2447,-3.234,-3.1824,-3.2011,-3.2051,-2.2278,-2.2519,0.0,-2.175,-2.1283,0.0,-2.0241,0.0,0.0,0.0,0.0,0.0,0.0,0.0,0.0,0.0,0.0,0.0,0.0,-1.5551,-1.5484,-1.532,-1.5778,-1.6142,-1.6233,-1.5963,-1.5735,-1.5682,-1.6313,-1.6914,-1.7369,-1.9292,-2.0895,-2.2071,-2.3228,-2.4155,-2.4906,-2.5424,-2.5812,-2.6158,-2.6507,-2.6747,-2.6827,-2.7041,-2.7241,-2.7483,-2.7736,-2.8005,-2.8179,-2.8179,-2.8179,-2.8179,-2.8179,-2.8379,-2.8671,-2.9152,-2.9713,-3.0354,-3.1236,-3.1984,-3.2581,-3.2438,-3.2799,-3.324,-3.316,-3.2986,-3.2848,-3.2768,-3.2888,-3.2982,-3.2795,-3.3053,-3.3414,-3.3414,-3.3414,-3.3414,-3.3414,-3.3414,-3.3414,-3.3414,-3.3414,-3.3414,-3.3414,-3.3414,-3.3414,-3.3414,-3.3414,-3.3414,-3.3414,-3.3414,-3.3414,-3.3414,-3.3414,-3.3414,-3.3414,-3.3414,-3.3414,-3.3414,-3.324,-3.3213,-3.34,-3.3227,-3.324,-3.3454,-3.324,-3.2946,-3.2572,-3.2701,-3.25,-3.1984,-3.1179,-3.0871]},{"header":{"parameterUnit":"m.s-1","parameterCategory":1,"la1":30.6,"la2":29.2853,"lo1":-89.7004,"lo2":-87.6739,"dy":0.0162,"dx":0.0183,"nx":112,"ny":82,"refTime":"2023-10-25T12:00:00:Z","depth":0,"parameterNumber":3,"parameterNumberName":"V-component_of_WINDS"},"data":[0.0,0.0,0.0,0.0,0.0,0.0,0.0,0.0,0.0,0.0,0.0,0.0,0.0,0.0,0.0,0.0,0.0,0.0,0.0,0.0,0.0,0.0,0.0,0.0,0.0,0.0,0.0,0.0,0.0,0.0,0.0,0.0,0.0,0.0,0.0,0.0,0.0,0.0,0.0,0.0,0.0,0.0,0.0,0.0,0.0,0.0,0.0,0.0,0.0,0.0,0.0,0.0,0.0,0.0,0.0,0.0,0.0,0.0,0.0,0.0,0.0,0.0,0.0,0.0,0.0,0.0,0.0,0.0,0.0,0.0,0.0,0.0,0.0,0.0,0.0,0.0,0.0,0.0,0.0,0.0,0.0,0.0,0.0,0.0,0.0,0.0,0.0,0.0,0.0,0.0,2.5177,2.8965,3.3043,3.4692,3.2699,3.1775,2.8929,2.3355,0.0,0.0,0.0,0.0,0.0,0.0,0.0,0.0,0.0,0.0,0.0,0.0,0.0,0.0,0.0,0.0,0.0,0.0,0.0,0.0,0.0,0.0,0.0,0.0,0.0,0.0,0.0,0.0,0.0,0.0,0.0,0.0,0.0,0.0,0.0,0.0,0.0,0.0,0.0,0.0,0.0,0.0,0.0,0.0,0.0,0.0,0.0,0.0,0.0,0.0,0.0,0.0,0.0,0.0,0.0,0.0,0.0,0.0,0.0,0.0,0.0,0.0,0.0,0.0,0.0,0.0,0.0,0.0,0.0,0.0,0.0,0.0,0.0,0.0,0.0,0.0,0.0,0.0,0.0,0.0,0.0,0.0,0.0,0.0,0.0,0.0,0.0,0.0,0.0,0.0,0.0,0.0,0.0,0.0,0.0,0.0,0.0,0.0,0.0,0.0,0.0,0.0,0.0,0.0,2.6771,3.1716,3.4214,3.4231,3.1038,3.0006,2.7895,2.4127,0.0,0.0,0.0,0.0,0.0,0.0,0.0,0.0,0.0,0.0,0.0,0.0,0.0,0.0,0.0,0.0,0.0,0.0,0.0,0.0,0.0,0.0,0.0,0.0,0.0,0.0,0.0,0.0,0.0,0.0,0.0,0.0,0.0,0.0,0.0,0.0,0.0,0.0,0.0,0.0,0.0,0.0,0.0,0.0,0.0,0.0,0.0,0.0,0.0,0.0,0.0,0.0,0.0,0.0,0.0,0.0,0.0,0.0,0.0,0.0,0.0,0.0,0.0,0.0,0.0,0.0,0.0,0.0,0.0,0.0,0.0,0.0,0.0,0.0,0.0,0.0,0.0,0.0,0.0,0.0,0.0,0.0,0.0,0.0,0.0,0.0,0.0,0.0,0.0,0.0,0.0,0.0,0.0,0.0,0.0,0.0,0.0,0.0,0.0,0.0,0.0,0.0,0.0,2.6661,2.9185,3.3179,3.3506,3.2615,3.0577,2.9198,2.701,2.3624,2.3834,0.0,0.0,0.0,0.0,0.0,0.0,0.0,0.0,0.0,0.0,0.0,0.0,0.0,0.0,0.0,0.0,0.0,0.0,0.0,0.0,0.0,0.0,0.0,0.0,0.0,0.0,0.0,0.0,0.0,0.0,0.0,0.0,0.0,0.0,0.0,0.0,0.0,0.0,0.0,0.0,0.0,0.0,0.0,0.0,0.0,0.0,0.0,0.0,0.0,0.0,0.0,0.0,0.0,0.0,0.0,0.0,0.0,0.0,0.0,0.0,0.0,0.0,0.0,0.0,0.0,0.0,0.0,0.0,0.0,0.0,0.0,0.0,0.0,0.0,0.0,0.0,0.0,0.0,0.0,0.0,0.0,0.0,0.0,0.0,0.0,0.0,0.0,0.0,0.0,0.0,0.0,0.0,0.0,0.0,0.0,0.0,0.0,0.0,0.0,0.0,0.0,0.0,2.9771,3.0498,3.3016,3.216,3.0888,2.9615,2.8157,2.5931,2.2699,2.2638,0.0,0.0,0.0,0.0,0.0,0.0,0.0,0.0,0.0,0.0,0.0,0.0,0.0,0.0,0.0,0.0,0.0,0.0,0.0,0.0,0.0,0.0,0.0,0.0,0.0,0.0,0.0,0.0,0.0,0.0,0.0,0.0,0.0,0.0,0.0,0.0,0.0,0.0,0.0,0.0,0.0,0.0,0.0,0.0,0.0,0.0,0.0,0.0,0.0,0.0,0.0,0.0,0.0,0.0,0.0,0.0,0.0,0.0,0.0,0.0,0.0,0.0,0.0,0.0,0.0,0.0,0.0,0.0,0.0,0.0,0.0,0.0,0.0,0.0,0.0,0.0,0.0,0.0,0.0,0.0,0.0,0.0,0.0,0.0,0.0,0.0,0.0,0.0,0.0,0.0,0.0,0.0,0.0,0.0,0.0,0.0,0.0,0.0,0.0,0.0,0.0,0.0,2.8202,2.9209,3.0511,3.0577,2.95,2.708,2.6,2.4385,2.1771,2.171,0.0,0.0,0.0,0.0,0.0,0.0,0.0,0.0,0.0,0.0,0.0,0.0,0.0,0.0,0.0,0.0,0.0,0.0,0.0,0.0,0.0,0.0,0.0,0.0,0.0,0.0,0.0,0.0,0.0,0.0,0.0,0.0,0.0,0.0,0.0,0.0,0.0,0.0,0.0,0.0,0.0,0.0,0.0,0.0,0.0,0.0,0.0,0.0,0.0,0.0,0.0,0.0,0.0,0.0,0.0,0.0,0.0,0.0,0.0,0.0,0.0,0.0,0.0,0.0,0.0,0.0,0.0,0.0,0.0,0.0,0.0,0.0,0.0,0.0,0.0,0.0,0.0,0.0,0.0,0.0,0.0,0.0,0.0,0.0,0.0,0.0,0.0,0.0,0.0,0.0,0.0,0.0,0.0,0.0,0.0,0.0,0.0,0.0,0.0,0.0,0.0,0.0,2.8717,2.953,3.0164,2.9828,2.8775,2.6772,2.5808,2.4213,2.1725,0.0,0.0,0.0,0.0,0.0,0.0,0.0,0.0,0.0,0.0,0.0,0.0,0.0,0.0,0.0,0.0,0.0,0.0,0.0,0.0,0.0,0.0,0.0,0.0,0.0,0.0,0.0,0.0,0.0,0.0,0.0,0.0,0.0,0.0,0.0,0.0,0.0,0.0,0.0,0.0,0.0,0.0,0.0,0.0,0.0,0.0,0.0,0.0,0.0,0.0,0.0,0.0,0.0,0.0,0.0,0.0,0.0,0.0,0.0,0.0,0.0,0.0,0.0,0.0,0.0,0.0,0.0,0.0,0.0,0.0,0.0,0.0,0.0,0.0,0.0,0.0,0.0,0.0,0.0,0.0,0.0,0.0,0.0,0.0,0.0,0.0,0.0,0.0,0.0,0.0,0.0,0.0,0.0,0.0,0.0,0.0,0.0,0.0,0.0,0.0,0.0,0.0,2.7251,2.8531,2.9326,2.9295,2.8947,2.8047,2.6349,2.5426,2.3844,2.1339,0.0,0.0,0.0,0.0,0.0,0.0,0.0,0.0,0.0,0.0,0.0,0.0,0.0,0.0,0.0,0.0,0.0,0.0,0.0,0.0,0.0,0.0,0.0,0.0,0.0,0.0,0.0,0.0,0.0,0.0,0.0,0.0,0.0,0.0,0.0,0.0,0.0,0.0,0.0,0.0,0.0,0.0,0.0,0.0,0.0,0.0,0.0,0.0,0.0,0.0,0.0,0.0,0.0,0.0,0.0,0.0,0.0,0.0,0.0,0.0,0.0,0.0,0.0,0.0,0.0,0.0,0.0,0.0,0.0,0.0,0.0,0.0,0.0,0.0,0.0,0.0,0.0,0.0,0.0,0.0,0.0,0.0,0.0,0.0,0.0,0.0,0.0,0.0,0.0,0.0,0.0,0.0,0.0,0.0,0.0,0.0,0.0,0.0,0.0,0.0,0.0,0.0,2.5686,2.7341,2.824,2.757,2.7753,2.7195,2.5459,2.4584,2.3005,0.0,0.0,0.0,0.0,0.0,0.0,0.0,0.0,0.0,0.0,0.0,0.0,0.0,0.0,0.0,0.0,0.0,0.0,0.0,0.0,0.0,0.0,0.0,0.0,0.0,0.0,0.0,0.0,0.0,0.0,0.0,0.0,0.0,0.0,0.0,0.0,0.0,0.0,0.0,0.0,0.0,0.0,0.0,0.0,0.0,0.0,0.0,0.0,0.0,0.0,0.0,0.0,0.0,0.0,0.0,0.0,0.0,0.0,0.0,0.0,0.0,0.0,0.0,0.0,0.0,0.0,0.0,0.0,0.0,0.0,0.0,0.0,0.0,0.0,0.0,0.0,0.0,0.0,0.0,0.0,0.0,0.0,0.0,0.0,0.0,0.0,0.0,0.0,0.0,0.0,0.0,0.0,0.0,0.0,0.0,0.0,0.0,0.0,0.0,0.0,0.0,0.0,0.0,2.7037,2.7805,2.8191,2.8121,2.783,2.7225,2.63,2.4933,2.3005,2.0452,0.0,0.0,0.0,0.0,0.0,0.0,0.0,0.0,0.0,0.0,0.0,0.0,0.0,0.0,0.0,0.0,0.0,0.0,0.0,0.0,0.0,0.0,0.0,0.0,0.0,0.0,0.0,0.0,0.0,0.0,0.0,0.0,0.0,0.0,0.0,0.0,0.0,0.0,0.0,0.0,0.0,0.0,0.0,0.0,0.0,0.0,0.0,0.0,0.0,0.0,0.0,0.0,0.0,0.0,0.0,0.0,0.0,0.0,0.0,0.0,0.0,0.0,0.0,0.0,0.0,0.0,0.0,0.0,0.0,0.0,0.0,0.0,0.0,0.0,0.0,0.0,0.0,0.0,0.0,0.0,0.0,0.0,0.0,0.0,0.0,0.0,0.0,0.0,0.0,0.0,0.0,0.0,0.0,0.0,0.0,0.0,0.0,0.0,0.0,0.0,0.0,0.0,2.6733,2.7311,2.7671,2.7789,2.7616,2.7065,2.6031,2.5093,2.3655,2.1455,0.0,0.0,0.0,0.0,0.0,0.0,0.0,0.0,0.0,0.0,0.0,0.0,0.0,0.0,0.0,0.0,0.0,0.0,0.0,0.0,0.0,0.0,0.0,0.0,0.0,0.0,0.0,0.0,0.0,0.0,0.0,0.0,0.0,0.0,0.0,0.0,0.0,0.0,0.0,0.0,0.0,0.0,0.0,0.0,0.0,0.0,0.0,0.0,0.0,0.0,0.0,0.0,0.0,0.0,0.0,0.0,0.0,0.0,0.0,0.0,0.0,0.0,0.0,0.0,0.0,0.0,0.0,0.0,0.0,0.0,0.0,0.0,0.0,0.0,0.0,0.0,0.0,0.0,0.0,0.0,0.0,0.0,0.0,0.0,0.0,0.0,0.0,0.0,0.0,0.0,0.0,0.0,0.0,0.0,0.0,0.0,0.0,0.0,0.0,0.0,0.0,0.0,2.56,2.6333,2.6916,2.7019,2.728,2.6798,2.5249,2.522,2.4598,2.2989,0.0,0.0,0.0,0.0,0.0,0.0,0.0,0.0,0.0,0.0,0.0,0.0,0.0,0.0,0.0,0.0,0.0,0.0,0.0,0.0,0.0,0.0,0.0,0.0,0.0,0.0,0.0,0.0,0.0,0.0,0.0,0.0,0.0,0.0,0.0,0.0,0.0,0.0,0.0,0.0,0.0,0.0,0.0,0.0,0.0,0.0,0.0,0.0,0.0,0.0,0.0,0.0,0.0,0.0,0.0,0.0,0.0,0.0,0.0,0.0,3.111,2.9443,0.0,0.0,0.0,0.0,0.0,0.0,0.0,0.0,0.0,0.0,0.0,0.0,0.0,0.0,0.0,0.0,0.0,0.0,0.0,0.0,0.0,0.0,0.0,0.0,0.0,0.0,0.0,0.0,0.0,0.0,0.0,0.0,0.0,0.0,0.0,0.0,0.0,0.0,0.0,0.0,2.7137,2.6922,2.6972,2.7777,2.7344,2.6755,2.6066,2.5435,2.4402,2.2911,2.33,0.0,0.0,0.0,0.0,0.0,0.0,0.0,0.0,0.0,0.0,0.0,0.0,0.0,0.0,0.0,0.0,0.0,0.0,0.0,0.0,0.0,0.0,0.0,0.0,0.0,0.0,0.0,0.0,0.0,0.0,0.0,0.0,0.0,0.0,0.0,0.0,0.0,0.0,0.0,0.0,0.0,0.0,0.0,0.0,0.0,0.0,0.0,0.0,0.0,0.0,0.0,0.0,0.0,0.0,0.0,0.0,0.0,0.0,0.0,3.4699,3.2196,0.0,0.0,0.0,0.0,0.0,0.0,0.0,0.0,0.0,0.0,0.0,0.0,0.0,0.0,0.0,0.0,0.0,0.0,0.0,0.0,0.0,0.0,0.0,0.0,0.0,0.0,0.0,0.0,0.0,0.0,0.0,0.0,0.0,0.0,0.0,0.0,0.0,0.0,0.0,0.0,2.7682,2.7425,2.7369,2.7895,2.7662,2.7078,2.6095,2.5746,2.508,2.3945,2.3604,0.0,0.0,0.0,0.0,0.0,0.0,0.0,0.0,0.0,0.0,0.0,0.0,0.0,0.0,0.0,0.0,0.0,0.0,0.0,0.0,0.0,0.0,0.0,0.0,0.0,0.0,0.0,0.0,0.0,0.0,0.0,0.0,0.0,0.0,0.0,0.0,0.0,0.0,0.0,0.0,0.0,0.0,0.0,0.0,0.0,0.0,0.0,0.0,0.0,0.0,0.0,0.0,0.0,4.2192,4.3073,4.417,4.4423,4.3759,4.218,4.0017,3.7034,3.3864,3.5673,0.0,0.0,0.0,0.0,0.0,0.0,0.0,0.0,0.0,0.0,0.0,0.0,0.0,0.0,0.0,0.0,0.0,0.0,0.0,0.0,0.0,0.0,0.0,0.0,3.3844,3.2816,3.3349,0.0,0.0,0.0,0.0,0.0,0.0,0.0,0.0,0.0,0.0,0.0,2.7829,2.8049,2.8233,2.8233,2.8234,2.7667,2.6228,2.6222,2.605,2.5425,2.4271,2.3815,0.0,0.0,0.0,0.0,0.0,0.0,0.0,0.0,0.0,0.0,0.0,0.0,0.0,0.0,0.0,0.0,0.0,0.0,0.0,0.0,0.0,0.0,0.0,0.0,0.0,0.0,0.0,0.0,0.0,0.0,0.0,0.0,3.1088,3.1954,0.0,0.0,0.0,0.0,0.0,0.0,0.0,0.0,0.0,0.0,0.0,0.0,0.0,4.1769,4.3167,4.4879,4.5587,4.5237,4.8797,4.9865,4.877,5.0196,5.0296,4.9357,4.7583,0.0,4.0419,3.9377,0.0,0.0,0.0,0.0,0.0,0.0,0.0,0.0,0.0,0.0,0.0,0.0,0.0,0.0,0.0,0.0,0.0,0.0,0.0,0.0,0.0,0.0,4.2351,4.0553,3.8901,3.7941,0.0,3.329,2.8701,3.0063,2.9373,0.0,0.0,0.0,0.0,0.0,0.0,0.0,2.7903,2.9035,2.9879,2.9879,2.9278,2.8581,2.7845,2.7177,2.685,2.6924,2.6903,2.6286,2.495,2.7236,0.0,0.0,0.0,0.0,0.0,0.0,0.0,0.0,0.0,0.0,0.0,0.0,0.0,0.0,0.0,0.0,0.0,0.0,0.0,0.0,0.0,0.0,0.0,0.0,0.0,0.0,0.0,0.0,0.0,3.3775,3.5049,3.3766,3.5743,3.5985,0.0,0.0,0.0,0.0,0.0,0.0,0.0,0.0,0.0,4.3085,4.5223,4.6471,4.6718,4.9691,5.1489,5.205,5.4289,5.5244,5.5023,5.5721,5.5856,5.5489,5.4755,5.3077,5.0527,4.5707,4.3135,4.2143,0.0,0.0,0.0,0.0,4.0429,4.1445,4.1891,4.31,4.4464,4.4604,0.0,0.0,0.0,0.0,0.0,0.0,0.0,0.0,0.0,0.0,4.4773,4.5067,4.4259,4.3269,4.2727,3.8449,3.428,0.0,3.1889,3.1188,3.0388,0.0,0.0,0.0,0.0,3.0393,3.0497,3.0723,3.0876,3.0876,3.0577,3.0073,2.9341,2.9069,2.8564,2.7745,2.788,2.7464,2.6291,2.7857,2.8061,0.0,0.0,0.0,0.0,0.0,0.0,0.0,0.0,0.0,0.0,0.0,0.0,0.0,0.0,0.0,0.0,0.0,0.0,0.0,0.0,0.0,0.0,0.0,0.0,0.0,0.0,0.0,0.0,3.6844,3.84,3.5981,3.943,4.0256,0.0,0.0,0.0,0.0,0.0,0.0,4.4901,4.6214,4.7159,4.7783,5.0325,5.1573,5.1379,5.462,5.6859,5.8033,5.9061,5.9648,5.982,6.004,6.0003,5.982,5.982,5.96,5.8694,5.204,4.8122,4.6333,4.6691,4.5847,4.4562,4.5324,4.5874,4.6351,4.6948,4.8086,4.915,4.8563,4.7572,4.625,4.4607,0.0,0.0,0.0,0.0,4.4342,4.6526,4.6535,4.6397,4.8196,4.8003,4.7003,4.5617,4.28,3.9504,0.0,3.4871,3.3733,3.1561,0.0,0.0,0.0,0.0,3.2449,3.2846,3.2742,3.2639,3.2639,3.2455,3.2008,3.1201,3.1075,3.045,2.9026,2.917,2.8998,2.8416,2.8984,2.9251,2.9023,0.0,0.0,0.0,0.0,0.0,0.0,0.0,0.0,0.0,0.0,0.0,0.0,0.0,0.0,0.0,0.0,0.0,0.0,0.0,0.0,0.0,0.0,0.0,0.0,0.0,0.0,0.0,0.0,0.0,3.8948,4.4847,0.0,0.0,0.0,0.0,4.437,4.6461,4.8233,4.9243,5.1499,5.3801,5.6113,5.7079,5.829,5.9795,6.075,6.1276,6.1386,6.3001,6.3001,6.152,6.2279,6.2205,6.1484,6.1484,6.1887,6.2169,5.7189,5.4667,5.3555,5.0508,4.9738,5.0178,4.8673,4.914,5.0508,5.0545,5.1096,5.2171,5.4373,5.3529,5.0886,4.6957,4.6278,0.0,0.0,4.6241,4.7856,4.7259,4.8233,4.938,4.95,4.8857,4.8003,4.7149,4.4443,4.1662,0.0,3.7742,3.6384,3.6978,0.0,3.5502,3.3917,3.4344,3.4564,3.3844,3.5092,3.6046,3.6046,3.5305,3.4491,3.3697,3.2932,3.2131,3.1305,3.1467,3.1624,3.1586,3.1789,3.2298,3.3109,3.0195,0.0,0.0,0.0,0.0,0.0,0.0,0.0,0.0,0.0,0.0,0.0,0.0,0.0,0.0,0.0,0.0,0.0,0.0,0.0,0.0,0.0,0.0,0.0,0.0,0.0,0.0,0.0,0.0,4.7149,5.0976,0.0,4.9748,5.0431,5.1012,5.0949,5.3188,5.5133,5.6492,5.785,5.9245,6.0627,6.1484,6.2181,6.2781,6.3576,6.398,6.398,6.4604,6.4567,6.398,6.4261,6.4261,6.398,6.398,6.415,6.4261,6.2548,6.0419,5.8033,5.5831,5.5464,5.6187,5.6113,5.6785,5.774,5.774,5.7935,5.7971,5.6785,5.5097,5.3078,5.0592,5.0398,5.0902,5.0352,5.043,5.086,5.1606,5.1087,5.0508,5.1004,5.0508,4.9544,4.8186,4.6975,4.5544,4.3379,4.0634,3.855,3.8322,3.8028,3.7477,3.6347,3.5973,3.5936,3.6163,3.6237,3.631,3.631,3.6009,3.5716,3.5422,3.4644,3.3793,3.3006,3.2551,3.2096,3.1555,3.2125,3.263,3.3114,3.2537,3.1976,0.0,0.0,0.0,0.0,0.0,0.0,0.0,0.0,0.0,0.0,0.0,0.0,0.0,0.0,0.0,0.0,0.0,0.0,0.0,0.0,0.0,0.0,0.0,0.0,0.0,4.6388,5.0572,5.2197,5.55,5.6895,5.5012,5.5563,5.6271,5.6785,5.8841,6.0529,6.1594,6.2401,6.3099,6.3637,6.42,6.4494,6.4494,6.5301,6.5705,6.5692,6.5999,6.5962,6.5705,6.5705,6.5411,6.4934,6.5472,6.5545,6.5325,6.5582,6.442,6.2328,6.1006,6.0774,6.1288,6.149,6.2115,6.2768,6.2218,6.1998,6.1557,5.8866,5.7288,5.6235,5.517,5.5023,5.5188,5.4903,5.4259,5.3804,5.4617,5.3629,5.2434,5.2396,5.2013,5.1159,4.9517,4.848,4.7489,4.6168,4.3534,4.0969,3.9154,3.8874,3.8425,3.718,3.6329,3.6111,3.6902,3.6919,3.6857,3.6857,3.7512,3.7698,3.7147,3.6179,3.5316,3.4681,3.3721,3.3166,3.3073,3.3136,3.3273,3.3478,3.3568,3.3357,3.2939,0.0,0.0,0.0,0.0,0.0,0.0,0.0,0.0,0.0,0.0,0.0,0.0,0.0,0.0,0.0,0.0,0.0,0.0,0.0,0.0,0.0,0.0,0.0,4.258,5.0188,5.5133,5.3728,5.8437,6.0823,5.851,6.0431,6.179,6.179,6.3332,6.4249,6.4249,6.4934,6.5362,6.5362,6.5362,6.5325,6.5325,6.6145,6.6549,6.6549,6.7333,6.7297,6.6549,6.6549,6.5705,6.436,6.5852,6.6109,6.5508,6.6256,6.6586,6.6476,6.5618,6.5325,6.5247,6.4329,6.4561,6.5105,6.338,6.2829,6.2609,6.1007,6.0456,6.0456,6.0396,5.9834,5.9042,5.8309,5.7436,5.6593,5.587,5.5594,5.513,5.3554,5.3187,5.2758,5.1165,4.8964,4.7461,4.8186,4.6425,4.364,4.0019,3.9333,3.8589,3.6523,3.5554,0.0,3.606,3.7271,3.8104,3.814,3.9856,4.0427,3.8938,3.7568,3.6705,3.6428,3.5196,3.5042,3.6332,3.5189,3.4576,3.4612,3.3293,3.4136,3.7184,0.0,0.0,0.0,0.0,0.0,0.0,0.0,0.0,0.0,0.0,0.0,0.0,0.0,0.0,0.0,0.0,0.0,0.0,0.0,0.0,0.0,4.7765,5.1499,5.1132,5.4693,5.8474,6.1582,6.387,6.5118,6.5057,6.5645,6.6012,6.6012,6.699,6.7577,6.7577,6.6696,6.6439,6.704,6.6476,6.6182,6.6182,6.6953,6.737,6.737,6.759,6.759,6.737,6.737,6.743,6.7577,6.7444,6.7907,6.8752,6.8385,6.8238,6.8054,6.6059,6.5655,6.6156,6.5883,6.5936,6.5852,6.3563,6.36,6.433,6.2685,6.2146,6.1797,6.0052,5.9366,5.9038,5.8238,5.7048,5.5926,5.5687,5.4825,5.39,5.3369,5.3271,5.2982,5.1905,5.1129,5.0355,4.9438,4.8196,4.6434,4.3659,4.2206,4.1249,4.0655,3.991,0.0,3.9675,4.0039,4.0479,4.1072,3.9745,3.9534,4.116,3.8522,3.7402,3.882,3.7505,3.7087,3.7984,3.7709,3.8058,3.9228,3.8305,3.8272,0.0,0.0,0.0,0.0,0.0,0.0,0.0,0.0,0.0,0.0,0.0,0.0,0.0,0.0,0.0,0.0,0.0,0.0,0.0,0.0,0.0,0.0,5.3151,5.7776,5.9697,6.0896,6.2879,6.6389,6.721,6.7687,6.8164,6.8201,6.8201,6.8201,6.8641,6.9045,6.9376,6.8201,6.7577,6.77,6.7577,6.7173,6.6512,6.7297,6.77,6.77,6.77,6.7884,6.8201,6.8201,6.8274,6.8421,6.8618,6.8839,6.9132,6.9302,6.9412,6.9265,0.0,0.0,0.0,0.0,6.6678,6.6228,6.5135,6.5427,6.6026,6.4315,6.3538,6.2926,6.1179,5.9961,5.8981,5.7855,5.6214,5.4754,5.4738,5.4063,5.3497,5.3738,5.38,5.3591,5.2743,5.1783,5.0976,5.0653,4.9144,0.0,4.6874,4.4391,4.2241,4.1417,4.0583,4.0067,4.0101,4.0509,4.0979,4.1462,4.079,4.085,4.2196,3.9848,0.0,0.0,0.0,3.8433,3.8899,3.8907,0.0,0.0,0.0,3.9199,4.0414,0.0,0.0,0.0,3.7544,3.667,0.0,0.0,0.0,0.0,0.0,0.0,0.0,0.0,0.0,0.0,0.0,0.0,0.0,0.0,0.0,0.0,5.7948,6.2059,6.748,6.754,6.754,6.8898,6.9032,6.9082,6.9142,6.9178,6.9178,6.9178,6.9178,6.9486,7.0183,6.9412,0.0,0.0,0.0,6.8164,6.6659,6.7517,6.7921,6.7847,6.7921,6.8348,6.9032,6.9032,6.8715,6.8178,6.9536,6.9463,6.8458,6.9623,7.0073,7.0053,7.0077,6.9151,6.779,6.7491,6.7074,6.6689,6.708,0.0,0.0,6.5661,6.454,6.3693,6.2743,6.097,5.9015,5.7545,5.5613,5.3978,5.3905,5.3812,5.3887,5.4387,5.4513,5.4281,5.3506,5.1695,5.0574,5.1884,4.9753,4.8143,4.9539,4.6219,4.2786,4.0991,4.0046,3.9566,3.9505,4.0402,4.1017,4.1017,0.0,0.0,4.2616,4.1249,4.0669,4.1335,4.0291,3.963,3.9566,3.9702,3.9485,3.8779,3.8146,3.9084,4.1654,4.0928,4.167,4.3653,3.921,3.7881,0.0,0.0,0.0,0.0,0.0,0.0,0.0,0.0,0.0,0.0,0.0,0.0,0.0,0.0,0.0,5.8731,6.3062,6.7357,7.1064,7.0881,7.0257,6.9926,6.9853,7.011,7.0756,7.083,7.083,7.083,7.083,7.0903,7.105,6.9692,6.9119,6.9596,6.9155,6.8458,6.748,6.8898,6.9302,6.8678,6.9339,0.0,6.9853,6.9853,7.0146,7.0573,7.0257,7.1041,7.2416,7.0669,6.9873,6.9811,7.0025,6.9434,6.8358,6.7143,6.7825,6.899,6.6364,6.6795,6.809,6.5651,6.4341,6.3467,6.1995,6.0792,0.0,5.8835,5.787,5.69,5.6318,5.5724,5.516,5.4682,5.458,5.435,5.3532,5.3028,5.2762,5.2993,5.1544,5.0376,5.0656,4.8793,4.6878,4.5845,4.5548,4.5221,4.4598,4.4711,4.4821,4.4821,4.3114,4.2586,4.4132,4.1867,4.1151,4.293,4.2813,4.2376,4.1745,4.2953,4.3567,4.3421,4.3905,4.4417,4.4966,4.4819,4.4966,4.5369,4.3139,4.2258,0.0,0.0,0.0,0.0,0.0,0.0,0.0,0.0,0.0,0.0,0.0,4.9581,5.1599,0.0,5.8731,6.2805,6.5828,6.8839,7.2055,7.2165,7.1908,7.1908,7.1174,7.0697,7.0697,7.105,7.1123,7.0734,7.1087,7.149,7.1857,7.0756,7.011,7.011,7.011,6.9509,6.8311,6.9486,6.9889,6.9522,6.9926,7.0513,7.1284,7.1284,7.1982,7.3068,7.2679,7.2885,7.3426,7.1615,7.0858,7.0913,7.1532,7.0161,6.7865,6.7597,6.8301,6.9172,6.7816,6.8195,6.8954,6.6667,6.5433,6.4502,6.2897,6.1603,6.0452,5.9317,5.7949,5.6799,5.6799,5.5987,5.5243,5.5615,5.5141,5.4483,5.4083,5.3377,5.2963,5.3285,5.2431,5.1647,5.1626,5.0842,4.9585,4.7686,4.7353,4.6902,4.5793,4.5545,4.5374,4.4988,4.3668,4.3222,4.4273,4.3343,4.3162,4.4169,4.4537,4.4534,4.4121,4.4856,4.5296,4.5296,4.57,4.5883,4.5883,4.5883,4.5883,4.5883,4.5085,4.4718,0.0,0.0,0.0,0.0,0.0,0.0,0.0,4.5663,4.7645,5.0629,5.2234,5.4179,5.7581,5.9245,6.1667,6.6439,6.8031,6.9596,7.2349,7.2459,7.2569,7.3377,7.2312,7.127,7.0624,7.116,7.127,7.0624,7.116,7.1821,7.2459,7.1894,7.1248,7.0587,7.1197,7.083,6.9362,7.0146,7.0477,7.033,7.066,7.1468,7.2753,7.2899,7.3656,7.4903,7.505,7.4389,7.3088,7.2405,7.2003,7.1788,7.2353,7.0605,6.7911,6.9035,6.9402,6.9383,6.9778,6.988,6.9532,6.785,6.6754,6.5802,6.4347,6.3024,6.167,6.0264,5.8472,5.7103,5.7577,5.6664,5.5886,5.6799,5.6089,5.5125,5.4685,5.3619,5.287,5.3341,5.2793,5.228,5.2228,5.2081,5.1108,4.8539,4.8061,4.7498,4.623,4.5768,4.5305,4.454,4.4328,4.4208,4.419,4.455,4.4901,4.516,4.5529,4.5856,4.6131,4.614,4.6287,4.6627,4.6627,4.6627,4.6627,4.6627,4.6544,4.6361,4.6361,4.6214,4.0861,3.8294,3.7779,4.1185,4.2772,4.4975,0.0,5.3225,5.4887,5.6675,5.9428,6.1838,6.3075,6.5705,6.8128,6.9486,7.0954,7.2349,7.3413,7.2349,7.1711,7.2532,7.2496,7.2349,7.2239,7.2312,7.2349,7.2239,7.2312,7.2422,7.2496,7.2422,7.2312,7.2239,7.2312,7.1931,7.105,7.1821,7.1872,7.1197,7.2606,7.3377,7.3597,7.4331,7.472,7.494,7.5652,7.4506,7.219,7.2826,7.2158,7.0685,6.9892,6.9845,7.0425,7.2209,7.2426,7.1768,7.0948,7.0134,6.9293,6.837,6.7436,6.6552,6.5703,6.4884,6.4072,6.324,6.2347,6.1501,6.096,6.0148,5.9201,5.8069,5.7663,5.6986,5.5023,5.4482,5.4161,5.3601,5.2838,5.2294,5.2289,5.1745,5.0918,4.9816,4.9639,4.9334,4.8433,4.7754,4.7025,4.6212,4.5493,4.5025,4.491,4.4399,4.4582,4.5745,4.5348,4.5655,4.691,4.6966,4.7672,4.916,4.9206,4.9206,4.9206,4.9206,4.8793,4.8039,4.8039,4.7278,4.2749,4.2787,4.3869,4.4844,4.8526,5.2637,5.539,5.7593,5.9844,6.2401,6.4383,6.6182,6.7981,6.8238,6.8752,7.0513,7.0587,7.083,7.2129,7.1321,7.055,7.044,6.9142,6.8481,6.8972,7.0697,7.1211,6.9816,7.1431,7.2716,7.3156,7.2753,7.2716,7.3193,7.2753,7.2349,7.2004,7.2349,7.2349,7.2004,7.3156,7.3927,7.4441,7.5249,7.5858,7.6237,7.5428,7.474,7.4119,7.2679,7.2029,7.1902,7.2065,7.237,7.2737,7.2619,7.2014,7.1275,7.144,7.0861,6.9816,6.8453,6.7766,6.7218,6.6034,6.548,6.5087,6.4343,6.3937,6.3497,6.2787,6.2009,6.1163,6.0114,5.8863,5.7663,5.6715,5.5852,5.504,5.4262,5.3856,5.3348,5.2469,5.2063,5.1561,5.0789,5.0306,4.972,4.8947,4.8238,4.7465,4.6707,4.6328,4.593,4.5452,4.5461,4.5904,4.6902,4.7043,4.7747,4.9194,4.9251,4.9591,5.0288,5.0298,5.0298,5.0298,5.0298,5.0105,4.9738,4.9738,4.9407,4.369,4.5247,4.7362,4.8483,5.3067,5.7813,5.9612,6.152,6.387,6.7136,6.8091,6.8972,7.094,6.9706,6.9009,7.0977,7.0316,6.9949,7.1123,7.022,6.8972,6.7724,6.5448,6.393,6.3833,6.7577,6.9633,6.8752,7.1064,7.2863,7.367,7.3082,7.2926,7.3322,7.2662,7.2355,7.243,7.2415,7.2665,7.3193,7.3744,7.4441,7.527,7.6041,7.6579,7.6808,7.5352,7.4812,7.4812,7.2603,7.23,7.3252,7.3729,7.4215,7.456,7.3474,7.2449,7.1709,7.2161,7.1651,7.0612,6.9089,6.8591,6.8301,6.7015,6.6664,6.6474,6.573,6.5358,6.5053,6.4309,6.3396,6.2516,6.1772,6.0182,5.8727,5.8287,5.7205,5.6089,5.5344,5.504,5.4465,5.3145,5.2942,5.2672,5.1945,5.1183,5.0439,4.9695,4.88,4.7819,4.6902,4.6956,4.6934,4.6583,4.6796,4.7308,4.8212,4.8517,4.9331,5.0764,5.0831,5.1022,5.1463,5.1242,5.1132,5.1132,5.1132,5.1022,5.0802,5.0802,5.0802,4.3102,4.3001,4.4176,5.1232,5.4363,5.731,6.3649,6.5742,6.7247,7.0499,7.055,7.0293,7.1123,7.0587,7.0293,7.116,7.127,7.1233,7.1307,6.9265,6.6893,6.4543,6.2071,5.9636,5.7324,6.2879,6.7907,7.0977,7.2004,7.2863,7.367,7.3477,7.3061,7.2371,7.205,7.205,7.2299,7.225,7.3103,7.483,7.483,7.527,7.6093,7.6885,7.674,7.5821,7.577,7.4665,7.288,7.2776,7.3352,7.4158,7.3212,7.4043,7.5735,7.5699,7.5211,7.4426,7.3401,7.2458,7.1515,7.0692,7.0296,7.0014,6.9214,6.9011,6.8842,6.803,6.7286,6.6576,6.5797,6.4546,6.3274,6.2516,6.1772,6.0791,5.9284,5.8355,5.7629,5.6867,5.6139,5.5428,5.4668,5.455,5.4262,5.3551,5.2739,5.1961,5.1235,4.9864,4.8409,4.6969,4.7374,4.8028,4.865,4.8124,4.8319,4.9559,4.9115,4.9447,5.0849,5.0842,5.1526,5.3104,5.2344,5.195,5.195,5.195,5.1583,5.0802,5.0802,5.0802,4.3433,4.7063,5.1806,5.6103,6.0015,6.3833,6.7614,6.9119,6.9839,7.0403,6.8164,6.5865,6.5007,6.3319,6.2842,6.5251,6.5655,6.6793,7.0036,6.7026,6.4347,6.4139,6.1447,5.971,5.9942,6.2438,6.4738,6.6402,6.9743,7.2518,7.4404,7.3788,7.3516,7.3821,7.2585,7.1922,7.2033,7.2657,7.3304,7.3938,7.5122,7.6114,7.6922,7.7179,7.6761,7.5753,7.5084,7.4043,7.2735,7.2077,7.2406,7.3332,7.369,7.4628,7.5891,7.6547,7.6626,7.6295,7.5236,7.3366,7.1404,7.1339,7.0805,7.0082,6.9316,6.9113,6.9045,6.8774,6.8132,6.7354,6.6609,6.5696,6.4783,6.4038,6.2922,6.1873,6.1366,6.025,5.8998,5.778,5.734,5.6765,5.5547,5.4905,5.4329,5.3619,5.2807,5.2029,5.1302,5.0761,5.0101,4.9086,4.9195,4.9022,4.8275,4.8418,4.8907,4.985,5.014,5.0897,5.2364,5.2422,5.2664,5.3177,5.292,5.2821,5.2821,5.2821,5.2664,5.2407,5.2407,5.2407,4.7263,5.2286,5.7752,6.1576,6.4965,6.7907,7.0036,7.0463,7.0059,6.8678,6.5632,6.245,5.9917,5.7703,5.7446,6.0958,6.1765,6.3857,6.9339,6.6659,6.4237,6.4494,6.1887,6.0346,6.108,6.2169,6.327,6.442,6.8738,7.1801,7.3018,7.2922,7.3082,7.3546,7.2341,7.1741,7.1814,7.2435,7.3136,7.3841,7.5301,7.6266,7.6777,7.6777,7.5737,7.392,7.3796,7.2878,7.1501,7.1743,7.2448,7.3452,7.4442,7.5457,7.6396,7.7051,7.7066,7.6611,7.5597,7.3986,7.2295,7.1729,7.1113,7.05,7.0026,6.9891,6.9823,6.9553,6.9113,6.8538,6.7827,6.688,6.5967,6.5493,6.4275,6.3193,6.3193,6.1975,6.0622,5.9693,5.8829,5.7915,5.6697,5.5649,5.4735,5.3991,5.345,5.2739,5.1708,5.1573,5.1319,5.0574,5.0741,5.0416,4.9172,4.947,4.9916,5.0365,5.0794,5.1559,5.278,5.3071,5.3214,5.3214,5.3214,5.3214,5.3214,5.3214,5.3361,5.3618,5.3324,5.3361,5.3981,5.8236,6.1857,6.7305,6.8861,6.9398,7.0866,6.9912,6.7967,6.5398,6.2768,5.9697,5.5658,5.3665,5.4021,5.8279,5.971,6.2548,6.9119,6.8017,6.6256,6.5472,6.3356,6.1667,6.0896,6.2316,6.3894,6.5362,6.9105,7.0946,7.0073,7.1303,7.1926,7.1764,7.1467,7.1435,7.1676,7.1676,7.266,7.4602,7.5392,7.5787,7.5787,7.5787,7.3956,7.0858,7.2214,7.1446,6.9403,7.1758,7.3352,7.4385,7.5369,7.6363,7.7326,7.7362,7.6749,7.579,7.4772,7.4324,7.3943,7.2124,7.1435,7.1289,7.1289,7.1289,7.1142,7.0521,7.0261,7.0048,6.9403,6.8073,6.6893,6.6859,6.5764,6.4715,6.4647,6.3531,6.2502,6.2415,6.0588,5.8829,5.8084,5.6765,5.5564,5.4803,5.4668,5.4093,5.257,5.2367,5.2097,5.1336,5.1878,5.2003,5.1335,5.1295,5.1305,5.1289,5.1296,5.1637,5.2244,5.2959,5.3324,5.3324,5.3324,5.3324,5.3324,5.3324,5.3728,5.4436,5.3691,5.3728,5.6717,6.2436,6.8388,7.068,7.0983,7.0463,6.9692,6.7784,6.4848,5.9967,5.5086,5.0472,4.6434,4.5369,4.7388,5.4473,5.7299,6.108,6.8201,6.8164,6.7113,6.6292,6.6696,6.6953,6.6756,6.8738,6.9449,6.8077,7.0022,7.1895,7.3297,7.3582,7.3319,7.2561,7.1727,7.1344,7.1416,7.2117,7.3133,7.438,7.5332,7.5787,7.5787,7.5787,7.4905,7.3361,7.2936,7.2009,7.0793,7.142,7.2728,7.431,7.4572,7.5771,7.7399,7.8038,7.8134,7.7733,7.6438,7.4761,7.3316,7.4157,7.3023,7.1289,7.1289,7.1289,7.1423,7.1987,7.1178,7.0347,7.0896,6.9756,6.8368,6.776,6.6914,6.6102,6.5527,6.4681,6.37,6.2618,6.0994,5.9607,5.8863,5.7949,5.707,5.6359,5.5784,5.4887,5.3382,5.3179,5.2909,5.208,5.2174,5.2233,5.2112,5.2558,5.3073,5.3658,5.4194,5.4508,5.4703,5.4873,5.4987,5.4987,5.4987,5.4987,5.4987,5.4987,5.5108,5.5291,5.5071,5.5108,6.3156,6.7864,7.2412,7.3032,7.225,7.0426,6.7013,6.4077,6.0199,5.3408,4.893,4.4966,4.0936,4.0202,4.2837,5.0949,5.4583,5.9208,6.7247,6.8274,6.8311,6.8568,6.9082,6.9853,7.0917,7.2239,7.2753,7.2129,7.1815,7.1872,7.2347,7.2496,7.2469,7.215,7.1578,7.1289,7.1289,7.1851,7.2645,7.367,7.4215,7.4498,7.4498,7.4834,7.3892,7.2059,7.2785,7.2069,7.042,7.1866,7.3171,7.4364,7.5186,7.6467,7.7949,7.8809,7.914,7.9086,7.8668,7.7066,7.5047,7.4368,7.3095,7.1718,7.1391,7.1289,7.1412,7.1969,7.1448,7.0824,7.1375,7.0562,6.9451,6.9011,6.8098,6.7184,6.6745,6.5831,6.4546,6.2773,6.1704,6.0757,5.9674,5.9133,5.849,5.7442,5.6934,5.6122,5.4651,5.4194,5.394,5.3809,5.3482,5.3332,5.3355,5.3725,5.4113,5.4567,5.4941,5.5279,5.5574,5.5585,5.5585,5.5585,5.5585,5.5585,5.5585,5.5585,5.5768,5.6124,5.5768,5.5805,7.0232,7.3029,7.4767,7.4432,7.2644,6.9509,6.3783,5.9575,5.4693,4.7021,4.391,4.1487,3.797,3.7603,4.043,4.8389,5.2344,5.7373,6.5865,6.8201,6.9582,7.0977,7.0917,7.1651,7.3927,7.3964,7.4515,7.613,7.4022,7.1928,7.0237,7.0644,7.1029,7.13,7.1289,7.1289,7.1289,7.1289,7.1754,7.2603,7.288,7.3058,7.3197,7.3802,7.2644,7.0212,7.2519,7.2056,6.9911,7.2579,7.4054,7.474,7.6249,7.7601,7.8883,7.9779,8.0036,8.0078,8.0771,7.9938,7.7918,7.4282,7.2881,7.2485,7.1695,7.1357,7.1334,7.1457,7.139,7.1334,7.1457,7.0915,7.0297,7.0217,6.918,6.8166,6.8064,6.688,6.5256,6.3246,6.2773,6.2245,6.0791,6.0452,5.9945,5.8558,5.8272,5.7712,5.6443,5.5378,5.4992,5.5635,5.5057,5.4698,5.4881,5.4823,5.4844,5.5051,5.5063,5.5303,5.5893,5.5915,5.5915,5.5915,5.5915,5.5915,5.5915,5.5915,5.6271,5.6921,5.6246,5.6271,7.1122,7.3753,7.6096,7.4086,7.1426,6.782,6.2132,5.5757,4.949,4.4048,4.0047,3.7338,3.6641,3.8146,4.1927,4.937,5.2747,5.6565,6.2756,6.7247,7.0,7.0257,7.2532,7.4757,7.6518,7.5454,7.5344,7.6959,7.5891,7.467,7.3531,7.3571,7.2927,7.1356,7.1289,7.1289,7.1289,7.1289,7.1401,7.1556,7.3267,7.4396,7.5035,7.5117,7.5196,7.5224,7.402,7.3229,7.2721,7.2689,7.4083,7.617,7.5885,7.7341,7.9779,8.1248,8.1342,8.0837,8.1131,8.0782,7.9845,7.7578,7.5435,7.3538,7.2507,7.1785,7.1479,7.23,7.196,7.1501,7.2321,7.1836,7.0973,7.0331,7.0014,6.962,6.9011,6.7692,6.6339,6.5324,6.4647,6.3937,6.3037,6.2415,6.1704,6.0858,6.0148,5.9641,5.937,5.7085,5.5566,5.5671,5.5026,5.511,5.6408,5.5901,5.6054,5.7336,5.7406,5.7453,5.7593,5.7556,5.7556,5.7556,5.7556,5.7556,5.7556,5.7556,5.7666,5.7776,5.7629,5.7666,7.2024,7.4333,7.6585,7.4173,7.0568,6.5595,5.7813,5.1353,4.5296,3.9129,3.634,3.4981,3.4981,3.6296,3.9745,4.7058,4.9921,5.4106,6.2328,6.5852,6.8678,7.1615,7.334,7.4735,7.5931,7.5344,7.5234,7.6004,7.5599,7.5041,7.4331,7.3292,7.2279,7.1334,7.1289,7.1289,7.1289,7.1289,7.1289,7.1312,7.3234,7.4362,7.4753,7.6058,7.6352,7.5822,7.5568,7.4071,7.1853,7.3071,7.4063,7.4988,7.6225,7.8495,8.1211,8.2406,8.2847,8.2898,8.2994,8.2613,8.1829,8.0344,7.7475,7.4312,7.2847,7.1887,7.1523,7.2519,7.2435,7.2321,7.3312,7.3212,7.2645,7.1747,7.0859,6.9992,6.9248,6.8199,6.7151,6.6406,6.5662,6.4918,6.4208,6.3768,6.3159,6.2042,6.1535,6.1185,6.0873,5.9159,5.7841,5.75,5.6765,5.6787,5.801,5.7757,5.7857,5.8587,5.8609,5.8437,5.8033,5.7997,5.7997,5.7997,5.7997,5.7997,5.7997,5.7997,5.7997,5.7997,5.7997,5.7997,7.3136,7.5096,7.6665,7.4074,6.9669,6.3576,5.4363,4.7939,4.2094,3.5642,3.3917,3.3697,3.4247,3.4864,3.7543,4.4525,4.6278,5.0498,6.1276,6.3649,6.6476,7.2459,7.3634,7.4404,7.5579,7.538,7.5307,7.5674,7.5339,7.484,7.435,7.2385,7.1357,7.1526,7.1357,7.1357,7.1526,7.1357,7.139,7.1656,7.3214,7.4163,7.4641,7.6805,7.697,7.5647,7.7042,7.5192,7.1356,7.4151,7.4764,7.4226,7.7234,7.9918,8.2268,8.3478,8.4034,8.4249,8.4368,8.391,8.3089,8.1751,7.8784,7.5456,7.3803,7.2644,7.2099,7.29,7.3111,7.3292,7.4082,7.4291,7.4082,7.3312,7.1903,7.0556,6.982,6.8981,6.8166,6.7455,6.6812,6.6136,6.5222,6.5087,6.458,6.3091,6.2854,6.2639,6.2008,6.1452,6.0779,5.9944,5.9009,5.8787,5.965,5.9569,5.9476,5.9442,5.9306,5.8902,5.829,5.8107,5.7997,5.7997,5.7997,5.7997,5.7997,5.7997,5.7997,5.7997,5.7997,5.7997,7.4801,7.6505,7.6555,7.3413,6.8421,6.2328,5.4792,4.7049,4.0406,3.6817,3.4277,3.3396,3.5642,3.6119,3.8065,4.3856,4.3085,4.5691,5.6969,5.9869,6.349,7.0683,7.3472,7.5711,7.8038,7.6864,7.6607,7.8148,7.6663,7.5314,7.4348,7.2385,7.1616,7.2293,7.165,7.1594,7.2293,7.165,7.1776,7.2666,7.3518,7.4758,7.6388,7.7366,7.7541,7.7172,7.8341,7.7071,0.0,7.6573,7.6877,7.6216,7.9248,8.102,8.2161,8.4649,8.4514,8.313,8.3555,8.3371,8.2581,8.0497,7.8943,7.7685,7.6544,7.5188,7.4024,7.412,7.4158,7.4177,7.4272,7.4291,7.4272,7.4177,7.3323,7.2375,7.1614,7.0683,6.9755,6.9045,6.8842,6.8335,6.6846,6.6588,6.6102,6.4613,6.441,6.4146,6.3413,6.3913,6.3818,6.242,6.0999,6.0496,6.1298,6.0765,6.0349,6.0298,5.96,5.9159,5.9086,5.84,5.7997,5.7997,5.7997,5.7997,5.7997,5.7997,5.7997,5.7997,5.7997,5.7997,6.9045,7.3362,7.6408,7.2701,6.7136,6.0578,5.2795,4.5516,3.9313,3.5569,3.4027,3.3617,3.4614,3.4798,3.6009,3.9753,3.9166,4.1846,5.2197,5.462,5.8951,6.8701,7.1967,7.4404,7.6864,7.6937,7.6648,7.621,7.4487,7.3643,7.4027,7.2887,7.2485,7.3026,7.1921,7.1887,7.3037,7.1887,7.1705,7.2566,7.3506,7.4559,7.5726,7.7147,7.7878,7.8029,7.7988,7.5941,0.0,7.5444,7.6033,7.5508,7.8286,8.1367,8.417,8.3871,8.4004,8.4259,8.3751,8.3615,8.3298,8.1295,8.0607,8.0101,7.7414,7.5852,7.5045,7.5173,7.5192,7.5352,7.5942,7.5685,7.5192,7.5192,7.4442,7.3624,7.3343,7.2122,7.1013,7.0738,6.9825,6.891,6.8301,6.8273,6.804,6.6961,6.6938,6.6909,6.6707,6.6075,6.5854,6.6351,6.4044,6.2659,6.3026,6.2765,6.2382,6.1875,6.1545,6.0921,5.9967,5.9159,5.8719,5.8719,5.8253,5.7997,5.7997,5.7997,5.7997,5.7997,5.7997,5.7997,6.4347,7.0132,7.472,7.1417,6.5338,5.8253,5.0886,4.402,3.8146,3.4541,3.3807,3.3807,3.3807,3.3807,3.4614,3.7088,3.7008,3.9798,4.882,5.0986,5.539,6.5558,6.8678,7.1505,7.5359,7.7056,7.7275,7.5785,7.3957,7.321,7.3878,7.3421,7.3237,7.3489,7.2496,7.2462,7.35,7.2259,7.2146,7.3151,7.3635,7.4045,7.4468,7.6654,7.7397,7.7054,7.7589,7.5969,0.0,7.5857,7.6326,7.5589,7.8883,8.2068,8.47,8.3642,8.389,8.4673,8.3895,8.3768,8.3761,8.252,8.2484,8.2338,7.9215,7.7395,7.6374,7.6297,7.6247,7.6396,7.7134,7.6777,7.6247,7.6247,7.5475,7.4739,7.4739,7.3292,7.2035,7.2035,7.0793,6.9688,6.9451,6.981,6.9852,6.9075,6.9359,6.9508,6.9128,6.8255,6.7944,6.8793,6.6999,6.5472,6.4785,6.4754,6.4417,6.3611,6.3086,6.2279,6.1141,6.0114,5.9563,5.9563,5.8988,5.8584,5.8364,5.8584,5.8474,5.7997,5.8253,5.8217,6.2597,6.765,7.0977,6.9325,6.2829,5.5343,4.9618,4.2735,3.6831,3.4321,3.3807,3.3807,3.3807,3.3807,3.4614,3.7088,3.7492,4.0018,4.7315,4.9764,5.3518,6.0823,6.3148,6.699,7.4206,7.7634,7.9053,7.824,7.6418,7.4936,7.3948,7.3885,7.3753,7.3489,7.35,7.35,7.35,7.2766,7.3252,7.4964,7.4003,7.3263,7.2936,7.595,7.5934,7.374,7.7391,7.8145,0.0,7.9146,7.8811,7.736,8.2166,8.3411,8.2753,8.4584,8.4573,8.3621,8.3585,8.3585,8.3669,8.3973,8.43,8.4278,8.2647,8.0482,7.8374,7.753,7.7273,7.7273,7.731,7.7273,7.7273,7.7273,7.653,7.577,7.577,7.4215,7.2797,7.2797,7.1969,7.1075,7.0297,7.1032,7.1431,7.0709,7.1415,7.1498,6.9991,7.0532,7.0462,6.8977,6.9559,6.9068,6.6683,6.6463,6.6132,6.5325,6.371,6.2793,6.2793,6.1251,6.037,6.037,6.0382,5.9967,5.9184,6.0003,5.9575,5.8033,5.8829,5.8756,5.0875,5.5207,5.8425,5.6235,5.2491,4.8159,4.3608,3.9504,3.6127,3.4211,3.3807,3.3807,3.3807,3.3807,3.5165,3.9276,3.9504,4.1487,4.8242,5.2024,5.6393,6.2561,7.0124,7.6181,7.9543,7.8543,7.7775,7.7915,7.4706,7.2991,7.3604,7.3639,7.3799,7.4221,7.3747,7.3713,7.4255,7.351,7.3447,7.3957,7.3627,7.2904,7.1866,7.4321,7.4728,7.3648,7.5823,7.6472,7.6259,7.8262,7.867,7.8372,8.1725,8.3105,8.3224,8.3041,8.275,8.2436,8.2436,8.295,8.3543,8.3137,8.4094,8.4874,8.1971,8.0316,7.9103,7.7693,7.7289,7.7289,7.7289,7.7289,7.7289,7.7289,7.7051,7.6824,7.6824,7.5263,7.3846,7.3846,7.2469,7.1422,7.1906,7.1767,7.2026,7.3153,7.3152,7.3077,7.3264,7.2562,7.1873,7.1377,7.0592,6.9779,6.9009,6.8458,6.7797,6.699,6.5925,6.5068,6.4517,6.3503,6.2658,6.2059,6.1484,6.0823,6.0003,6.026,6.0126,5.9648,5.9905,5.9893,4.3983,4.8122,5.1059,4.9858,4.6801,4.3351,4.0532,3.7558,3.5055,3.4027,3.4284,3.4541,3.3917,3.4321,3.5532,3.7947,3.9203,4.1523,4.6186,5.0849,5.6235,6.2842,7.1541,7.7657,7.9148,7.806,7.7217,7.7207,7.3864,7.2181,7.3049,7.3071,7.3409,7.4153,7.4289,7.482,7.579,7.4548,7.425,7.4912,7.425,7.3138,7.1785,7.4018,7.4458,7.3601,7.5067,7.6183,0.0,7.8002,7.8948,8.0001,8.1642,8.2798,8.3436,8.23,8.2175,8.2527,8.2527,8.3285,8.4258,8.4234,8.4918,8.5153,8.1653,8.0225,7.948,7.8066,7.7918,7.8071,7.732,7.7479,7.7693,7.7399,7.7289,7.7196,7.6808,7.544,7.4177,7.3827,7.2427,7.16,7.2645,7.2687,7.3166,7.4825,7.4935,7.4977,7.532,7.4478,7.3744,7.345,7.2239,7.1468,7.1468,7.0146,6.9155,6.8655,6.759,6.6733,6.6219,6.5154,6.431,6.3747,6.2952,6.2291,6.1777,6.1153,6.086,6.086,6.086,6.0676,0.0,4.4892,4.7278,4.8012,4.4305,4.0296,3.9533,3.6494,0.0,3.3954,3.5275,3.5899,3.4357,3.5495,3.6156,3.4651,3.7742,4.0936,4.2653,4.8122,5.4803,6.2572,6.9192,7.3489,7.4519,7.6672,7.7536,7.6431,7.402,7.2564,7.2531,7.2474,7.2812,7.3513,7.4971,7.6312,7.756,7.5703,7.5481,7.6871,7.5458,7.3851,7.2259,7.4627,7.4864,7.3534,7.5033,7.7009,7.9081,7.8424,7.9672,8.2037,8.2037,8.2648,8.3364,8.2278,8.2571,8.3514,8.3578,8.435,8.5487,8.6607,8.6444,8.5189,8.1943,8.0461,7.9617,7.8487,7.8867,7.9207,7.7526,7.7784,7.8291,7.764,7.7316,7.6956,7.6082,7.4975,7.3908,7.3003,7.1969,7.16,7.2645,7.3591,7.4554,7.5632,7.6595,7.6971,7.6261,7.613,7.5799,7.505,7.4258,7.378,7.378,7.1578,7.0183,7.0183,6.8728,6.7847,6.7811,6.6366,6.5508,6.5398,6.4604,6.4213,6.4176,6.2634,6.1851,6.1851,6.1851,6.141,3.5605,0.0,3.5429,3.5613,3.5128,3.4564,0.0,3.4064,3.4174,3.5466,3.653,3.7088,3.6684,3.8469,4.0039,4.0267,4.2653,4.548,4.8416,5.6895,6.464,6.9633,7.5432,7.8128,7.5948,7.8289,7.9317,7.7839,7.5711,7.4214,7.3572,7.3333,7.3424,7.3856,7.5239,7.5819,7.5367,7.6219,7.5329,7.2721,7.5398,7.4282,7.0026,7.3916,7.4593,7.2766,7.4796,7.7161,7.9557,7.9644,8.1096,8.3229,8.3468,8.3069,8.229,8.1991,8.2083,8.2414,8.3321,8.435,8.5487,8.6607,8.6444,8.5639,8.4847,8.2641,8.0114,7.8637,7.7756,7.7575,7.8797,7.8221,7.762,7.8908,7.7656,7.6258,7.665,7.4832,7.307,7.2838,7.1969,7.16,7.2645,7.3003,7.3753,7.5545,7.601,7.6376,7.6955,7.6497,7.6019,7.5836,7.5102,7.4625,7.4625,7.2408,7.1013,7.1013,7.0073,6.9265,6.8641,6.8238,6.7453,6.6256,6.5448,6.5007,6.5007,6.4628,6.442,6.442,6.442,6.4016,3.3807,3.3146,3.2786,3.393,3.366,3.3433,3.4578,3.4284,3.4394,3.642,3.6898,3.7191,3.7925,3.8799,3.9937,4.1507,4.3167,4.6691,5.3654,6.0517,6.6733,7.1908,7.5542,7.7333,7.6555,7.8683,7.9521,7.8108,7.5906,7.4398,7.3919,7.3012,7.2745,7.3261,7.4805,7.6004,7.6817,7.73,7.6105,7.3324,7.6011,7.4959,7.0737,7.4153,7.5304,7.4672,7.468,7.6656,7.9826,7.9171,8.0842,8.3794,8.3277,8.2933,8.2616,8.2106,8.2244,8.2839,8.3964,8.5123,8.6174,8.6784,8.6701,8.6192,8.5333,8.3756,8.1904,8.0298,7.9756,7.9648,7.9645,7.922,7.8943,7.9631,7.8695,7.7615,7.7569,7.5979,7.4421,7.3941,7.2744,7.2253,7.3735,7.3702,7.4177,7.6197,7.6498,7.666,7.7227,7.6922,7.6628,7.6628,7.5931,7.5469,7.5469,7.3913,7.2775,7.2422,7.1651,7.0844,7.0022,6.9669,6.8678,6.7063,6.699,6.6389,6.5288,6.5668,6.5655,6.5288,6.5288,6.5081,3.41,3.4541,3.5349,3.7088,3.5913,3.4945,3.7191,3.587,3.4908,3.7522,3.7595,3.7624,3.9019,3.9504,4.0128,4.1434,4.3269,4.8269,5.8976,6.2683,6.6352,7.2018,7.4037,7.5473,7.6676,7.8577,7.9252,7.8001,7.561,7.4218,7.4156,7.2451,7.1819,7.2598,7.4279,7.6468,7.9269,7.8458,7.7176,7.5416,7.6927,7.5955,7.2957,7.5048,7.6519,7.7268,7.5091,0.0,8.0081,7.8652,8.0557,8.4215,8.2798,8.291,8.3713,8.2571,8.2883,8.4041,8.5162,8.6174,8.6978,8.6978,8.6978,8.6692,8.5118,8.4623,8.4333,8.283,8.2646,8.2471,8.0511,8.0385,8.0666,8.0262,7.9867,7.9357,7.856,7.748,7.6376,7.5499,7.3953,7.3345,7.5068,7.4849,7.5027,7.6745,7.7192,7.7289,7.7289,7.7289,7.7289,7.7289,7.6702,7.6276,7.6276,7.5637,7.4918,7.4111,7.3193,7.2275,7.1344,7.055,6.9449,6.8104,6.8752,6.8091,6.6022,6.6733,6.6659,6.5839,6.5839,6.5729,3.5539,3.791,3.9562,3.7925,3.7199,3.7191,3.8285,3.7184,3.6817,3.9892,4.1001,4.1442,4.1699,4.6149,4.8536,4.4773,5.0021,5.7336,6.5264,6.9045,7.1615,7.3303,7.7892,7.9643,7.6533,7.8986,8.0129,7.8593,7.6498,7.523,7.5153,7.3297,7.2676,7.3644,7.4757,7.6335,7.8384,7.8891,7.7609,7.4617,7.764,7.7685,7.5145,7.677,7.7585,7.7692,0.0,7.8437,8.0545,8.0972,8.2866,8.5436,8.4249,8.4277,8.4891,8.3755,8.4047,8.5201,8.6338,8.6873,8.6978,8.6978,8.6978,8.696,8.6674,8.6566,8.6383,8.5431,8.301,8.1009,8.2419,8.1223,8.0037,8.1472,8.0103,7.8596,7.916,7.791,7.665,7.6494,7.5497,7.4783,7.5087,7.5188,7.5323,7.5661,7.6632,7.7289,7.7289,7.7289,7.7289,7.7289,7.7179,7.7105,7.7105,7.6995,7.6592,7.5763,7.4331,7.2863,7.1344,7.055,6.9963,6.9756,6.9853,6.9743,6.9376,6.9486,6.9119,6.8334,6.8334,6.7614,3.5268,3.7654,4.0076,4.1111,4.1046,4.1091,4.2323,3.9651,3.8476,4.3892,4.2176,4.0899,4.4819,4.7976,5.0839,5.3408,5.9538,6.5301,6.9119,7.1284,7.312,7.4808,7.7708,7.8766,7.6732,7.8733,7.9472,7.7665,7.5748,7.4736,7.4819,7.3421,7.3079,7.4062,7.5515,7.6697,7.7554,7.8489,7.792,7.5944,7.8297,7.8079,7.5648,7.6647,7.7893,7.9215,0.0,7.8416,8.1422,8.0839,8.2427,8.5075,8.439,8.4593,8.524,8.4713,8.522,8.6301,8.6802,8.6978,8.6978,8.6978,8.6978,8.6978,8.6978,8.6978,8.6904,8.6554,8.4898,8.3338,8.3912,8.2803,8.1778,8.2638,8.1559,8.047,8.0888,7.9828,7.8808,7.8808,7.7112,7.6063,7.7209,7.6296,7.5801,7.6962,7.7223,7.7289,7.7289,7.7289,7.7289,7.7289,7.7289,7.7289,7.7289,7.7289,7.6959,7.6166,7.4992,7.4037,7.3289,7.2459,7.1835,7.1394,7.0991,7.055,7.011,7.011,6.9926,6.9559,6.9559,6.8935,3.5268,3.7507,4.0341,4.3599,4.3791,4.4057,4.7168,4.3396,4.1303,4.8746,4.5259,4.2662,4.837,4.9911,5.3078,6.163,6.732,7.1358,7.3289,7.4096,7.5249,7.7304,7.806,7.8357,7.8172,7.8761,7.8567,7.7089,7.5158,7.4197,7.4536,7.3457,7.3322,7.4536,7.5728,7.6569,7.7012,7.8066,7.843,7.8109,7.8861,7.8476,7.7124,7.7031,7.8349,8.0549,7.772,7.8581,8.1844,8.1094,8.2272,8.4615,8.4719,8.515,8.5712,8.5712,8.6265,8.6978,8.6978,8.6978,8.6978,8.6978,8.6978,8.6978,8.6978,8.6978,8.6978,8.6978,8.6554,8.5894,8.5086,8.4278,8.3675,8.3675,8.3214,8.2774,8.2774,8.198,8.1254,8.1254,7.9083,7.7742,7.9394,7.768,7.6606,7.826,7.7825,7.7289,7.7289,7.7289,7.7289,7.7289,7.7289,7.7289,7.7289,7.7289,7.7032,7.6423,7.5652,7.5087,7.4903,7.4294,7.3707,7.3083,7.2261,7.1578,7.0917,7.0734,7.055,7.0367,7.0367,6.9963,3.6677,3.9651,4.2286,4.3322,4.2992,4.4378,5.205,4.882,4.6461,5.4535,5.3408,5.1363,5.2627,5.4682,5.8621,6.6048,7.011,7.4184,7.9543,8.0351,8.0718,8.1636,8.1819,8.184,8.1811,7.9686,7.8241,7.8098,7.5702,7.4585,7.5279,7.3717,7.3566,7.526,7.4773,7.5295,7.6959,7.8066,7.9328,8.0711,7.9302,7.9725,8.1656,7.9441,7.9384,8.0915,7.9913,8.0108,8.1252,8.3368,8.4375,8.4739,8.6211,8.6817,8.6891,8.6891,8.6925,8.6978,8.6978,8.6978,8.6978,8.6978,8.6978,8.6978,8.6978,8.6978,8.6978,8.6978,8.6941,8.6738,8.593,8.5123,8.4499,8.4499,8.4462,8.4425,8.4425,8.3788,8.3208,8.3208,8.1632,8.0314,8.0478,7.9144,7.8044,7.8222,7.7717,7.7289,7.7289,7.7289,7.7289,7.7289,7.7289,7.7289,7.7289,7.7289,7.7289,7.7215,7.646,7.5689,7.494,7.483,7.4793,7.472,7.3927,7.3487,7.345,7.2679,7.1931,7.1197,7.1197,7.0793,3.7734,4.0965,4.4232,4.603,4.625,4.7645,5.3739,5.1683,5.1086,6.0224,5.7519,5.3885,5.5196,5.9501,6.4383,6.9155,7.3927,7.7965,8.0645,8.1415,8.1856,8.215,8.2186,8.1716,8.0574,7.9084,7.7721,7.6545,7.512,7.4433,7.4697,7.4104,7.403,7.4697,7.5028,7.5799,7.7012,7.7539,7.8626,8.0257,7.914,7.9323,8.0661,7.8699,7.8699,8.0257,7.9926,8.0241,8.1158,8.3051,8.4168,8.4756,8.6371,8.6978,8.6978,8.6978,8.6978,8.6978,8.6978,8.6978,8.6978,8.6978,8.6978,8.6978,8.6978,8.6978,8.6978,8.6978,8.6978,8.6904,8.6628,8.5967,8.5343,8.5343,8.4976,8.4609,8.4609,8.4352,8.4168,8.4168,8.2626,8.1545,8.2239,8.0437,7.8995,7.9178,7.8567,7.7913,7.7362,7.7289,7.7289,7.7289,7.7289,7.7289,7.7289,7.7289,7.7289,7.7289,7.6995,7.6702,7.6408,7.5894,7.5652,7.5652,7.4882,7.4441,7.4441,7.4133,7.3839,7.3546,7.3546,7.2848,3.7881,4.0524,4.3562,4.6764,4.7929,5.0131,5.7079,5.5757,5.5831,6.5582,6.2585,5.8474,5.9343,6.2915,6.688,7.0367,7.5065,7.8809,8.0388,8.1305,8.1819,8.1819,8.1819,8.1333,8.0051,7.8651,7.7308,7.5988,7.4886,7.4291,7.4291,7.3986,7.3846,7.3846,7.4498,7.5117,7.567,7.6434,7.7388,7.8537,7.8317,7.8772,7.9743,7.806,7.8222,7.9779,7.9522,8.0021,8.1122,8.272,8.4152,8.549,8.6574,8.6978,8.6978,8.6978,8.6978,8.6978,8.6978,8.6978,8.6978,8.6978,8.6978,8.6978,8.6978,8.6978,8.6978,8.6978,8.6978,8.6978,8.6978,8.6591,8.6187,8.6187,8.5747,8.538,8.538,8.5159,8.4976,8.4976,8.3527,8.2517,8.3281,8.1467,7.9987,8.0161,7.947,7.8772,7.817,7.8096,7.7986,7.7729,7.7472,7.7289,7.7289,7.7289,7.7289,7.7289,7.7289,7.7289,7.7289,7.6775,7.6497,7.6497,7.5689,7.527,7.527,7.5014,7.4903,7.4903,7.4903,7.4316,3.7118,3.8182,3.9929,4.4745,4.7168,5.1342,6.2683,6.152,6.0823,7.0513,6.9302,6.6292,6.5472,6.4714,6.5498,6.9449,7.2826,7.6093,7.9339,8.0461,8.1012,8.1012,8.1012,8.1012,8.0975,7.8574,7.7012,7.6976,7.5313,7.4291,7.4272,7.3332,7.2797,7.2776,7.2797,7.2797,7.2797,7.4794,7.577,7.5804,7.6808,7.817,7.9706,7.806,7.8222,7.9743,7.8919,7.9507,8.1122,8.272,8.4812,8.6978,8.6978,8.6978,8.6978,8.6978,8.6978,8.7014,8.6978,8.7014,8.7014,8.7014,8.7014,8.7014,8.6978,8.6978,8.6978,8.6978,8.6978,8.6978,8.6978,8.6978,8.6978,8.6978,8.6978,8.6978,8.6978,8.6371,8.58,8.58,8.4535,8.3418,8.3418,8.206,8.1012,8.1012,8.0314,7.9816,7.9816,7.9816,7.9486,7.8699,7.7839,7.7326,7.7326,7.7326,7.7326,7.7326,7.7289,7.7289,7.7289,7.7289,7.7289,7.7289,7.6533,7.6093,7.6093,7.5307,7.4903,7.4903,7.4903,7.4903,4.28,4.4003,4.5507,4.926,5.2234,5.5893,6.2132,6.2879,6.4237,7.1101,7.066,6.8421,6.6512,6.8715,7.0711,7.0183,7.4258,7.7855,7.8809,7.9653,8.0183,8.0183,8.0183,7.991,7.936,7.8588,7.7562,7.6235,7.5671,7.4739,7.3312,7.2982,7.2477,7.1776,7.2414,7.2797,7.2797,7.4082,7.5084,7.5787,7.6094,7.6866,7.8023,7.7546,7.7582,7.806,7.8442,7.8883,7.9507,8.228,8.4499,8.6224,8.6775,8.6978,8.6978,8.6978,8.7362,8.7766,8.7198,8.7748,8.8482,8.7381,8.7399,8.7729,8.7161,8.6978,8.6978,8.6978,8.6978,8.6978,8.6978,8.6978,8.6978,8.6978,8.6978,8.6978,8.6978,8.6811,8.6628,8.6628,8.5783,8.4903,8.4352,8.3381,8.228,8.1158,8.0791,8.0424,7.989,7.9816,7.9706,7.9486,7.9213,7.9066,7.9066,7.8552,7.8222,7.8222,7.7656,7.7289,7.7289,7.7289,7.7289,7.7289,7.7069,7.6922,7.6922,7.6702,7.6592,7.6592,7.6592,7.6261,4.4599,4.5764,4.7562,5.3408,5.6785,6.0015,6.5031,6.732,6.9816,7.4845,7.3817,7.1762,7.0954,7.2129,7.3046,7.2569,7.5616,7.8075,7.8075,7.8809,7.9339,7.9339,7.9339,7.914,7.8662,7.7923,7.7027,7.591,7.5066,7.4082,7.2859,7.2414,7.1939,7.1312,7.1895,7.2193,7.2193,7.3191,7.4215,7.5192,7.5614,7.633,7.7289,7.7289,7.7289,7.7362,7.8222,7.8956,7.9727,8.2003,8.3875,8.538,8.6224,8.6518,8.6554,8.6867,8.7325,8.7655,8.7161,8.7638,8.8335,8.7692,8.7802,8.8096,8.7619,8.7472,8.7435,8.7088,8.6978,8.6978,8.6978,8.6978,8.6978,8.6978,8.6978,8.6978,8.6978,8.6978,8.6978,8.6978,8.6334,8.5637,8.5159,8.4132,8.3051,8.2096,8.1672,8.1305,8.0807,8.0477,8.0277,8.0277,8.0,7.9816,7.9816,7.9082,7.8736,7.9082,7.8295,7.7803,7.7803,7.7472,7.7289,7.7289,7.7289,7.7289,7.7289,7.7289,7.7289,7.7289,7.7289,7.7032,4.4443,4.5471,4.7636,5.7178,6.097,6.409,7.0573,7.3582,7.6078,7.9858,7.7582,7.5417,7.7105,7.494,7.367,7.5836,7.6812,7.7289,7.7289,7.7986,7.8479,7.8479,7.8479,7.8479,7.8479,7.6868,7.5787,7.5787,7.3947,7.2797,7.2797,7.1783,7.1222,7.1289,7.1222,7.1222,7.1289,7.2228,7.3212,7.4291,7.5245,7.6247,7.7289,7.7289,7.7243,7.7217,7.8117,7.9349,8.0825,8.1713,8.303,8.4572,8.538,8.5764,8.5894,8.6628,8.6978,8.7088,8.7014,8.7124,8.7418,8.8023,8.8316,8.839,8.8243,8.8206,8.8023,8.7234,8.6978,8.6978,8.6978,8.6978,8.6978,8.6978,8.6978,8.6978,8.6978,8.6978,8.6978,8.6978,8.6407,8.5894,8.582,8.4609,8.3564,8.3418,8.2737,8.2186,8.2186,8.1562,8.1122,8.1122,8.0461,8.0036,8.0036,7.9286,7.914,7.9853,7.914,7.8699,7.8699,7.7876,7.7399,7.7289,7.7289,7.7289,7.7289,7.7289,7.7289,7.7289,7.7289,7.7289,5.0875,5.1389,5.2307,6.0077,6.5191,6.9963,7.6497,7.6864,7.6276,7.7766,7.6371,7.5601,7.7892,7.7179,7.6445,7.6959,7.7179,7.7289,7.7289,7.7472,7.7582,7.7582,7.7582,7.7582,7.7582,7.6488,7.5787,7.5787,7.3947,7.2797,7.2797,7.1305,7.0703,7.1289,7.0737,7.0703,7.1289,7.1523,7.2498,7.4291,7.4517,7.5545,7.7289,7.7289,7.6856,7.6181,7.7155,7.8062,7.8914,8.0588,8.2223,8.3748,8.4535,8.5233,8.582,8.5967,8.6848,8.7839,8.7215,8.8225,8.9674,8.8536,8.905,8.9858,8.8573,8.8206,8.8023,8.7234,8.6978,8.6978,8.6978,8.6978,8.6978,8.6978,8.6978,8.6978,8.6978,8.6978,8.6978,8.6978,8.6885,8.6554,8.5894,8.549,8.4866,8.3601,8.2737,8.2186,8.2186,8.2039,8.1929,8.1929,8.1782,8.1672,8.1672,8.0938,8.0571,8.0718,7.9984,7.9559,7.9559,7.8772,7.8002,7.7326,7.7289,7.7289,7.7289,7.7289,7.7289,7.7289,7.7289,7.7289,5.0665,5.2905,5.5941,6.5154,7.0499,7.4331,7.7341,7.7341,7.6775,7.7215,7.6959,7.7084,7.8369,7.7876,7.7289,7.7289,7.7289,7.7289,7.7289,7.7289,7.7289,7.7289,7.7289,7.7289,7.7289,7.6379,7.5597,7.5102,7.3655,7.243,7.1593,7.1034,7.0601,7.0263,7.0567,7.0737,7.077,7.1594,7.2811,7.4291,7.4776,7.5823,7.7289,7.7289,7.6761,7.5874,7.6856,7.7438,7.7768,7.9645,8.1158,8.2353,8.3564,8.4535,8.527,8.5654,8.6554,8.7582,8.7124,8.7822,8.8776,8.8353,8.905,8.9877,8.905,8.8776,8.8592,8.7802,8.7325,8.6978,8.6978,8.6978,8.6978,8.6978,8.6978,8.6978,8.6978,8.6978,8.6978,8.6978,8.6978,8.6885,8.6444,8.604,8.5233,8.3638,8.3014,8.2627,8.226,8.2186,8.2186,8.2186,8.2186,8.2186,8.2186,8.1452,8.1158,8.1562,8.0828,8.0351,8.0351,7.9984,7.9176,7.7949,7.7913,7.7729,7.7289,7.7289,7.7289,7.7289,7.7289,7.7289,4.8462,5.3455,5.9685,6.9779,7.428,7.6298,7.6497,7.6592,7.6812,7.7215,7.7876,7.8369,7.8369,7.7803,7.7289,7.7289,7.7289,7.7289,7.7289,7.7289,7.7289,7.7289,7.7179,7.7142,7.7289,7.6125,7.5168,7.4635,7.3378,7.2167,7.1024,7.111,7.0763,6.9795,7.0729,7.1036,7.0682,7.2126,7.3431,7.4572,7.558,7.6498,7.7289,7.7289,7.6761,7.5874,7.6856,7.7182,7.7118,7.8878,8.0131,8.1122,8.2463,8.3564,8.4499,8.5306,8.6114,8.6811,8.6941,8.7088,8.7344,8.8169,8.8959,8.962,8.962,8.962,8.94,8.8463,8.7729,8.7161,8.7014,8.6978,8.6978,8.6978,8.7088,8.7161,8.7014,8.7088,8.7161,8.7014,8.6978,8.6978,8.6978,8.6334,8.5343,8.4022,8.3564,8.3197,8.2663,8.237,8.226,8.237,8.226,8.2186,8.2186,8.1599,8.1489,8.215,8.1562,8.1269,8.1415,8.1269,8.0571,7.925,7.8809,7.8259,7.7509,7.7362,7.7289,7.7289,7.7289,7.7289,4.9297,5.7189,6.5178,7.0206,7.1784,7.3179,7.7304,7.613,7.4771,7.6885,7.7399,7.7472,7.7472,7.7399,7.7289,7.7289,7.7289,7.7289,7.7289,7.7289,7.7289,7.7289,7.6665,7.6518,7.7252,7.5128,7.4303,7.5745,7.3456,7.2577,7.3939,7.201,7.1387,7.2532,7.1458,7.1458,7.2708,7.2947,7.3916,7.5614,7.6611,7.7181,7.7289,7.7289,7.6761,7.5874,7.6856,7.7182,7.7082,7.8256,7.9653,8.1012,8.1232,8.2243,8.3638,8.4462,8.527,8.604,8.6775,8.7472,8.8169,8.8959,8.9767,9.0427,9.0427,9.0427,9.0152,8.861,8.8133,8.7876,8.7161,8.6978,8.6978,8.6978,8.7545,8.7839,8.7124,8.7545,8.7839,8.7124,8.6978,8.6978,8.6978,8.6334,8.571,8.549,8.4278,8.3601,8.4205,8.3067,8.248,8.3161,8.2627,8.2186,8.2186,8.2113,8.2076,8.2186,8.2113,8.237,8.3051,8.2406,8.1929,8.1709,7.9653,7.8552,7.8405,7.7656,7.7289,7.7289,7.7289,7.7289,5.0875,5.56,6.0481,6.8591,6.8935,6.9009,7.5689,7.5028,7.3707,7.613,7.6628,7.6775,7.7215,7.7289,7.7289,7.7289,7.7289,7.7289,7.7289,7.7289,7.7289,7.7289,7.6607,7.624,7.6592,7.517,7.4321,7.459,7.3437,7.2671,7.2476,7.18,7.1352,7.1212,7.1352,7.1529,7.1795,7.2798,7.4174,7.5988,7.6862,7.7289,7.7289,7.7289,7.6761,7.5874,7.6856,7.6927,7.645,7.7948,7.9029,7.9727,8.0645,8.1709,8.2884,8.4132,8.5123,8.593,8.6738,8.7234,8.7655,8.8463,8.8977,8.9344,8.9767,8.9601,8.9124,8.839,8.7876,8.7472,8.7088,8.6978,8.6978,8.6978,8.7968,8.8629,8.7839,8.8316,8.8629,8.7839,8.7325,8.6978,8.6978,8.6701,8.6334,8.5857,8.5196,8.4719,8.4609,8.3581,8.3014,8.3344,8.27,8.2186,8.2186,8.2186,8.2186,8.2186,8.2186,8.2553,8.3381,8.2627,8.2406,8.2884,8.0938,7.9507,7.8589,7.8222,7.7766,7.7289,7.7289,7.7289,5.0462,5.2564,5.4829,6.409,6.447,6.4345,7.1194,7.183,7.1682,7.4086,7.5254,7.5909,7.6298,7.6555,7.6702,7.6702,7.6702,7.6702,7.6702,7.6702,7.6702,7.6702,7.5968,7.5579,7.5799,7.4867,7.4062,7.3511,7.3301,7.27,7.1614,7.185,7.1636,7.0739,7.16,7.1886,7.1544,7.3028,7.4545,7.6093,7.6702,7.7105,7.7289,7.7289,7.6872,7.6231,7.6988,7.6856,7.6283,7.7698,7.8405,7.8736,8.0167,8.1195,8.2113,8.3948,8.4976,8.5637,8.6664,8.7124,8.7399,8.7986,8.8353,8.861,8.9216,8.8959,8.8463,8.8243,8.7766,8.7234,8.7051,8.6978,8.7051,8.7234,8.8372,8.929,8.8904,8.8977,8.8923,8.8316,8.7545,8.6978,8.6978,8.6978,8.6794,8.6187,8.593,8.5563,8.4976,8.4205,8.3711,8.3711,8.3177,8.281,8.281,8.281,8.281,8.281,8.281,8.3177,8.3985,8.3251,8.3177,8.3968,8.2427,8.0828,7.9213,7.8993,7.8589,7.7913,7.7729,7.7619,4.6305,4.9177,5.1793,5.5438,5.7347,5.9237,6.2799,6.5264,6.7524,6.9996,7.2887,7.472,7.4001,7.4515,7.5014,7.5014,7.5014,7.5014,7.5014,7.5014,7.5014,7.5014,7.4294,7.4111,7.4903,7.3546,7.2922,7.3612,7.2988,7.2849,7.3516,7.2842,7.2768,7.3479,7.282,7.2805,7.3553,7.4389,7.524,7.6093,7.613,7.6555,7.7289,7.7289,7.7258,7.7227,7.7258,7.7258,7.7227,7.7347,7.7839,7.8662,7.9522,8.0351,8.1342,8.3728,8.4646,8.4903,8.6464,8.7509,8.8133,8.8206,8.872,8.9363,8.94,8.9363,8.9179,8.8426,8.8169,8.7949,8.7198,8.6978,8.7215,8.7949,8.8776,8.9583,9.0335,8.9307,8.8243,8.8206,8.7545,8.6978,8.6978,8.6978,8.6978,8.6941,8.6297,8.58,8.5764,8.5049,8.4535,8.4535,8.4499,8.4499,8.4499,8.4499,8.4499,8.4499,8.4499,8.4829,8.5637,8.4903,8.4866,8.5654,8.4095,8.2463,8.0865,8.011,7.9706,7.9669,7.8883,7.8516,4.4626,4.5434,4.6764,5.2601,5.2931,5.3331,5.9367,6.247,6.4294,6.4804,6.9018,7.1889,6.9493,7.1853,7.3964,7.345,7.3377,7.356,7.4074,7.4147,7.4331,7.483,7.4184,7.3817,7.4111,7.3156,7.2606,7.2899,7.1725,7.1321,7.2129,7.0917,7.055,7.1358,7.1101,7.1358,7.2165,7.3487,7.4551,7.5344,7.5836,7.6518,7.7289,7.7289,7.7289,7.7289,7.7289,7.7289,7.7289,7.7289,7.7803,7.8662,7.9486,8.0277,8.1305,8.3728,8.4609,8.4829,8.6427,8.7215,8.7619,8.8629,8.8812,8.872,8.9253,8.94,8.9216,8.8426,8.8206,8.8133,8.7839,8.7399,8.7308,8.8666,8.9583,9.0391,9.1216,9.0519,8.9748,8.9748,8.8683,8.7949,8.8445,8.7675,8.7161,8.7692,8.7105,8.6591,8.6591,8.5857,8.538,8.538,8.4903,8.4609,8.4609,8.4609,8.4609,8.4609,8.4609,8.4976,8.5764,8.5013,8.4976,8.58,8.4719,8.3398,8.1782,8.0975,8.0277,7.9779,7.9522,7.9376,4.3158,4.2902,4.3195,4.86,4.8306,4.8051,5.3349,5.7595,6.0358,6.0302,6.5305,6.9054,6.6901,6.9133,7.1284,7.1284,7.1505,7.1798,7.2055,7.2312,7.2679,7.323,7.3046,7.2899,7.2899,7.2679,7.2386,7.2129,7.1101,7.0624,7.0866,6.9889,6.9559,7.0073,7.0367,7.077,7.1307,7.2899,7.3964,7.4515,7.5322,7.6114,7.6885,7.6885,7.7032,7.7289,7.7289,7.7289,7.7289,7.7289,7.7656,7.8259,7.9376,8.0147,8.0901,8.3324,8.4389,8.4792,8.6151,8.6958,8.7582,8.8629,8.8647,8.8316,8.883,8.8812,8.8519,8.828,8.8206,8.828,8.8536,8.8426,8.8409,8.9216,9.0207,9.1143,9.1693,9.0959,9.028,9.0555,8.9307,8.8463,8.9253,8.8299,8.7582,8.8133,8.7509,8.6904,8.6628,8.6371,8.6077,8.5837,8.5563,8.5416,8.5416,8.5416,8.5416,8.5416,8.5416,8.5637,8.6187,8.571,8.5673,8.6187,8.5416,8.4462,8.3398,8.2333,8.1379,8.0587,8.033,8.0073,0.0,0.0,0.0,4.3065,4.3469,4.3742,4.4535,5.0307,5.5736,5.6508,6.1798,6.6329,6.6266,6.6316,6.688,6.8408,6.9412,6.9706,6.8935,6.9522,7.0036,7.0073,7.077,7.127,7.127,7.1967,7.2129,7.1344,7.1233,7.0866,7.0146,7.0022,6.9986,7.0036,7.0779,7.1205,7.127,7.2826,7.3648,7.3722,7.4515,7.5307,7.6056,7.613,7.6555,7.7289,7.7289,7.7289,7.7289,7.7289,7.7326,7.7546,7.914,7.9816,8.0147,8.2553,8.3895,8.4682,8.549,8.6811,8.8133,8.8169,8.8206,8.8206,8.8206,8.7692,8.7234,8.7986,8.8243,8.8463,8.9216,8.9987,9.0354,8.962,9.0665,9.1803,9.1803,9.0555,8.9657,9.0464,8.9344,8.85,8.929,8.8739,8.8206,8.8206,8.7509,8.6738,8.593,8.6518,8.6701,8.593,8.6518,8.6978,8.6978,8.6978,8.6978,8.6978,8.6978,8.6978,8.6978,8.6978,8.6978,8.6978,8.6224,8.582,8.58,8.4168,8.2994,8.2223,8.1415,8.0608,4.2029,0.0,0.0,0.0,0.0,0.0,4.3389,4.8275,5.2616,5.1236,5.6912,6.1751,6.0622,6.2268,6.3796,6.3649,6.5301,6.6769,6.71,6.7871,6.8568,6.9155,6.9926,7.044,7.044,7.0624,7.0917,7.127,6.9669,6.9119,7.0036,6.8393,6.773,6.8348,6.8539,6.9202,7.044,7.1454,7.2569,7.3722,7.4515,7.5014,7.527,7.6445,7.6775,7.646,7.7032,7.7289,7.7289,7.7289,7.8023,7.914,7.9633,8.0514,8.1672,8.2957,8.3528,8.3931,8.5306,8.6077,8.6664,8.7802,8.8206,8.8206,8.8206,8.8867,8.9417,8.8463,8.905,8.9858,8.9473,8.9583,8.9803,9.017,9.1069,9.1803,9.1803,9.0996,9.0519,9.1326,9.0188,8.9326,9.0134,8.9124,8.8206,8.8206,8.7509,8.6904,8.6701,8.6885,8.6904,8.6701,8.6885,8.6978,8.6978,8.6978,8.6978,8.6978,8.6978,8.6978,8.6978,8.6978,8.6978,8.6978,8.6775,8.6371,8.58,8.4168,8.3271,8.3067,8.226,8.1452,0.0,0.0,0.0,4.2139,0.0,0.0,4.1677,4.5332,4.867,4.7742,5.2792,5.7111,5.6224,5.7556,5.8866,5.9061,6.0309,6.2108,6.4604,6.5962,6.699,6.7797,6.8605,6.9229,6.9559,6.9889,7.0146,7.0279,6.9009,6.8458,6.9059,6.7398,6.6846,6.7687,6.7654,6.8442,7.0073,7.1248,7.2275,7.3193,7.4001,7.4588,7.494,7.5858,7.6408,7.6628,7.7105,7.7289,7.7289,7.7289,7.8096,7.9339,7.9669,8.0587,8.1782,8.259,8.3324,8.4022,8.4976,8.5747,8.6518,8.7802,8.7986,8.7766,8.8096,8.861,8.8959,8.839,8.9124,9.006,8.995,8.9913,9.0024,9.0482,9.1216,9.1803,9.1803,9.1179,9.0849,9.1657,9.0501,8.9657,9.0482,8.9271,8.8316,8.8647,8.7711,8.7124,8.7472,8.7198,8.6978,8.6978,8.6978,8.6978,8.6978,8.6978,8.7124,8.7472,8.7215,8.7308,8.7968,8.7344,8.7178,8.7509,8.7161,8.6591,8.58,8.4535,8.3711,8.3381,8.292,8.2443,0.0,0.0,0.0,0.0,4.1817,0.0,4.0092,4.2396,4.4773,4.548,4.926,5.2407,5.2517,5.259,5.3141,5.4704,5.4997,5.6748,6.1582,6.3857,6.5215,6.5778,6.6783,6.7687,6.8408,6.9229,6.9449,6.8825,6.8862,6.8495,6.7627,6.6776,6.6726,6.7554,6.7473,6.8243,6.9963,7.1468,7.2275,7.2386,7.3266,7.4074,7.4757,7.494,7.5821,7.7179,7.7252,7.7289,7.7289,7.7289,7.7803,7.8662,7.9486,8.0277,8.1122,8.1893,8.3141,8.4499,8.4572,8.56,8.6995,8.7802,8.7582,8.7124,8.7839,8.7619,8.7325,8.8096,8.8702,8.9363,9.0317,9.0537,9.0519,9.0702,9.1289,9.1803,9.1803,9.1253,9.0959,9.1657,9.0501,8.962,9.0317,8.9271,8.8536,8.9179,8.8115,8.7509,8.8133,8.7582,8.7088,8.7014,8.6978,8.7014,8.7124,8.7124,8.7472,8.828,8.7655,8.7895,8.9326,8.8042,8.7582,8.8206,8.7435,8.6591,8.58,8.5086,8.4315,8.3528,8.3528,8.3528,0.0,0.0,0.0,0.0,4.2662,0.0,4.114,4.2359,4.3763,4.3947,4.5782,4.7535,4.8177,4.881,4.9591,5.0592,5.1316,5.3408,5.8253,6.1435,6.2866,6.1741,6.4053,6.5852,6.5985,6.6733,6.7393,6.7921,6.8531,6.8274,6.6806,6.5882,6.5789,6.6719,6.6013,6.6763,6.9105,7.0073,7.0881,7.1564,7.301,7.3795,7.3964,7.5285,7.6056,7.6387,7.7032,7.7289,7.7289,7.7289,7.7803,7.8662,7.9486,8.0277,8.1122,8.1893,8.281,8.3711,8.4389,8.5233,8.6151,8.6958,8.7124,8.7014,8.7215,8.7582,8.8133,8.8923,8.8335,8.7932,9.0041,9.0097,8.995,9.1253,9.1693,9.1803,9.1803,9.1693,9.162,9.1767,9.0501,8.9436,8.962,8.9363,8.8996,8.85,8.8702,8.8739,8.828,8.8059,8.7729,8.7051,8.6978,8.7234,8.7912,8.7986,8.8316,8.9106,8.9033,8.9069,8.94,8.9106,8.8702,8.8206,8.7435,8.6591,8.58,8.5637,8.5159,8.4389,8.4389,8.4389,0.0,0.0,0.0,4.4195,0.0,0.0,0.0,4.291,4.3506,4.3506,4.4452,4.5296,4.5296,4.5626,4.6296,4.7545,4.8086,4.9481,5.2711,5.6638,5.9382,5.9806,6.1311,6.2768,6.397,6.4458,6.5359,6.6976,6.71,6.6953,6.6512,6.5286,6.5186,6.6463,6.5638,6.6391,6.8885,6.9706,7.0513,7.1307,7.2532,7.3523,7.4331,7.5139,7.5946,7.6702,7.7142,7.7289,7.7289,7.7289,7.7546,7.806,7.9339,8.0277,8.1158,8.237,8.3324,8.4115,8.4903,8.5747,8.6481,8.6867,8.7288,8.7619,8.7619,8.7876,8.839,8.9179,8.8519,8.8059,9.0078,9.028,9.028,9.151,9.1803,9.1803,9.1803,9.1803,9.1803,9.1803,9.0812,8.9877,8.9473,8.9069,8.8776,8.8776,8.8776,8.8776,8.8776,8.8463,8.7876,8.7088,8.6978,8.7325,8.8133,8.8206,8.872,8.9913,8.962,8.9767,9.0537,8.984,8.9033,8.8206,8.7435,8.6794,8.6407,8.6407,8.5967,8.5196,8.5196,8.5196,0.0,0.0,0.0,0.0,0.0,4.4057,0.0,0.0,0.0,4.3322,4.3901,4.4223,4.3433,4.3286,4.369,4.5002,4.5076,4.559,4.7342,5.0875,5.4298,5.7082,5.7418,5.8433,6.1031,6.1684,6.3089,6.5812,6.5301,6.5191,6.5999,6.48,6.4763,6.6219,6.5632,6.6389,6.8641,6.9633,7.044,7.1087,7.2055,7.3266,7.4683,7.483,7.5674,7.7069,7.7252,7.7289,7.7289,7.7289,7.7289,7.7472,7.914,8.0204,8.0975,8.2757,8.3895,8.4719,8.5527,8.6334,8.6978,8.6978,8.7545,8.8206,8.8206,8.8206,8.8353,8.8996,8.872,8.8536,9.0005,9.0464,9.0812,9.162,9.1803,9.1803,9.1803,9.1803,9.1803,9.1803,9.1289,9.0592,8.9767,8.9087,8.8904,8.9546,8.9069,8.883,8.9326,8.8812,8.8133,8.7308,8.7344,8.7802,8.861,8.8647,8.9271,9.0739,9.0207,9.0427,9.173,9.0244,8.9033,8.8206,8.7435,8.6978,8.6978,8.6978,8.6664,8.604,8.604,8.604,0.0,0.0,0.0,0.0,4.5764,0.0,0.0,0.0,4.4149,4.2727,0.0,4.3396,4.258,0.0,0.0,4.269,4.2094,4.2461,4.4773,4.4966,4.6305,5.0161,5.0591,5.1873,5.506,5.7306,6.0164,6.409,6.3576,6.3453,6.4323,6.4213,6.4494,6.5398,6.5362,6.6109,6.7811,6.9339,7.0146,7.0257,7.1762,7.2973,7.3854,7.4588,7.538,7.6276,7.6995,7.7289,7.7289,7.7289,7.7289,7.7472,7.914,7.9853,8.022,8.2537,8.3895,8.4719,8.5527,8.6334,8.6978,8.6978,8.7545,8.8206,8.8206,8.8206,8.8206,8.8316,8.828,8.8426,8.929,9.006,9.0812,9.162,9.1803,9.1803,9.1803,9.1803,9.1803,9.1803,9.173,9.14,9.0592,9.0408,9.0372,9.0427,9.0408,9.0097,8.9473,8.9326,8.8959,8.8169,8.8702,8.9436,9.0262,9.0335,9.0702,9.162,9.1583,9.162,9.1803,9.0244,8.9033,8.8206,8.7435,8.6978,8.6978,8.6978,8.6941,8.6885,8.6885,8.6885,0.0,0.0,0.0,0.0,0.0,0.0,4.8646,0.0,4.7361,0.0,0.0,0.0,0.0,0.0,0.0,0.0,4.2608,4.2131,4.3158,4.1413,4.2232,4.8161,4.8846,5.0137,5.3378,5.463,5.6308,5.8963,5.9685,6.0382,6.1215,6.2144,6.3466,6.5251,6.5288,6.6072,6.7664,6.9316,7.011,7.011,7.1725,7.2936,7.3722,7.4037,7.4882,7.613,7.646,7.6885,7.7289,7.7289,7.7289,7.7436,7.8626,7.9412,8.011,8.2517,8.3895,8.4792,8.6077,8.6738,8.7161,8.8078,8.8923,8.9674,9.0152,8.9638,8.8886,8.8886,8.8886,8.8959,8.9326,9.0317,9.1363,9.173,9.1803,9.1803,9.1803,9.1803,9.1803,9.1803,9.1803,9.1693,9.1363,9.0922,9.0592,9.0592,9.0592,9.0464,9.0134,9.0097,8.9767,8.8959,8.9216,8.973,9.0537,9.0592,9.0959,9.173,9.1363,9.1326,9.1767,9.0244,8.9253,8.8886,8.8133,8.7472,8.6978,8.7472,8.7472,8.6978,8.6978,8.6978,5.0151,0.0,0.0,0.0,0.0,0.0,0.0,0.0,0.0,0.0,0.0,0.0,0.0,0.0,0.0,0.0,0.0,4.2213,4.1984,3.9974,4.0544,4.6075,4.7527,4.8887,5.0984,5.1995,5.3041,5.419,5.5978,5.7373,5.8168,6.0162,6.2401,6.4897,6.5178,6.6182,6.8031,6.9426,7.022,7.044,7.1835,7.2826,7.3377,7.3817,7.4661,7.5799,7.624,7.6775,7.7289,7.7289,7.7289,7.7362,7.8002,7.8736,7.9779,8.2186,8.3728,8.4792,8.6187,8.6958,8.7545,8.8702,8.9767,9.0702,9.1289,9.0501,8.94,8.94,8.94,8.94,8.94,9.0592,9.1803,9.1803,9.1803,9.1803,9.1803,9.1803,9.1803,9.1803,9.1803,9.1803,9.1803,9.1326,9.0922,9.0922,9.0739,9.0592,9.0592,9.0592,9.0391,8.9803,8.9913,9.028,9.0886,9.0922,9.1179,9.1767,9.1253,9.1106,9.1473,9.0354,8.962,8.94,8.8812,8.8133,8.7325,8.8133,8.8133,8.7325,8.7325,8.7198,0.0,0.0,0.0,5.1756,0.0,0.0,0.0,0.0,4.8333,0.0,0.0,0.0,0.0,0.0,0.0,0.0,0.0,0.0,0.0,4.1058,4.1352,4.2362,4.526,4.6874,4.6186,4.903,5.0912,5.0949,5.3151,5.4876,5.5658,5.8731,6.1594,6.4066,6.4897,6.6463,6.8848,6.9706,7.0477,7.127,7.2078,7.2496,7.2606,7.4133,7.4903,7.5014,7.6592,7.7289,7.7289,7.7289,7.7289,7.7289,7.7326,7.7876,7.8919,8.1342,8.3251,8.4719,8.5527,8.6848,8.8169,8.8206,8.9307,9.0592,9.0629,9.006,8.94,8.94,8.94,8.94,8.94,9.0592,9.1803,9.1803,9.1803,9.1803,9.1803,9.1803,9.1803,9.1803,9.1803,9.1803,9.1803,9.1767,9.1767,9.1767,9.1106,9.0592,9.0592,9.0592,9.0592,9.0537,9.1253,9.173,9.1767,9.1767,9.1767,9.1803,9.1767,9.1436,9.0665,9.0592,9.0207,8.9436,8.9363,8.8959,8.8169,8.8959,8.8959,8.8169,8.8169,8.7729,0.0,0.0,5.8621,5.6161,0.0,0.0,0.0,0.0,0.0,0.0,0.0,0.0,0.0,0.0,0.0,0.0,0.0,0.0,0.0,4.1874,4.1801,4.1544,4.3424,4.5039,4.581,4.4993,4.503,4.6645,4.8012,4.9601,5.151,5.5684,5.9391,6.234,6.431,6.6219,6.8104,6.9412,7.0513,7.1307,7.2129,7.2789,7.3303,7.3854,7.4404,7.494,7.6041,7.6812,7.7289,7.7289,7.7289,7.7289,7.7289,7.7839,7.8809,8.0718,8.2076,8.3287,8.5159,8.7215,8.8886,8.839,8.9638,9.1289,9.0776,9.0391,9.006,8.9546,8.9767,9.006,8.9546,9.0592,9.1803,9.1803,9.1803,9.1803,9.1803,9.1803,9.1803,9.1803,9.1803,9.1803,9.1803,9.1803,9.1803,9.1803,9.1583,9.14,9.14,9.14,9.14,9.14,9.1657,9.1803,9.1803,9.1803,9.1803,9.1803,9.1289,9.1106,9.1363,9.0886,9.0464,9.0207,9.017,8.9564,8.8206,8.8996,8.8702,8.7435,8.7949,8.8059,6.1104,6.1765,0.0,5.9758,5.8474,0.0,5.5611,0.0,0.0,0.0,0.0,0.0,0.0,0.0,0.0,0.0,0.0,0.0,0.0,4.2727,4.2543,4.2021,4.3351,4.4424,4.4599,4.3782,4.3158,4.3012,4.4819,4.6471,4.7802,5.3004,5.7409,6.0639,6.371,6.6366,6.8545,6.9853,7.0917,7.1747,7.2826,7.3487,7.3707,7.4294,7.4845,7.538,7.6203,7.6812,7.7289,7.7289,7.7289,7.7289,7.7289,7.7839,7.8772,8.0094,8.1636,8.3398,8.582,8.7876,8.9363,8.9124,9.0115,9.1326,9.1106,9.0629,9.0097,8.9877,9.0207,9.0464,8.995,9.0812,9.1803,9.1803,9.1803,9.1803,9.1803,9.1803,9.1803,9.1803,9.1803,9.1803,9.1803,9.1803,9.1803,9.1803,9.1803,9.1803,9.1803,9.1803,9.1803,9.1803,9.1803,9.1803,9.1803,9.1803,9.1803,9.1803,9.1326,9.1253,9.1767,9.1289,9.1326,9.1913,9.1326,9.0519,8.9491,8.9693,8.9143,8.7876,8.8662,8.9183]}]]